<?xml version="1.0" encoding="UTF-8" standalone="yes"?>
<gpx
 xmlns="http://www.topografix.com/GPX/1/1"
 creator="OziExplorer Version 3955k - http://www.oziexplorer.com"
 version="1.1"
 xmlns:xsi="http://www.w3.org/2001/XMLSchema-instance"
 xsi:schemaLocation="http://www.topografix.com/GPX/1/1 http://www.topografix.com/GPX/1/1/gpx.xsd">
<metadata>
 <time>2012-03-09T19:25:57Z</time>
 <bounds minlat="30.985145" minlon="35.194535" maxlat="31.055827" maxlon="35.311077"/>
</metadata>
<trk>
 <desc>Current Track: 09 MAR 2012 09:00</desc>
<trkseg>
<trkpt lat="31.0552611" lon="35.1947285">
<ele>397.639984</ele>
<time>2012-03-09T07:00:24.000Z</time>
</trkpt>
<trkpt lat="31.0552626" lon="35.1947232">
<ele>398.119995</ele>
<time>2012-03-09T07:00:49.000Z</time>
</trkpt>
<trkpt lat="31.0552696" lon="35.1947223">
<ele>397.639984</ele>
<time>2012-03-09T07:01:21.000Z</time>
</trkpt>
<trkpt lat="31.0552626" lon="35.1947210">
<ele>397.639984</ele>
<time>2012-03-09T07:01:51.000Z</time>
</trkpt>
<trkpt lat="31.0552609" lon="35.1947197">
<ele>397.639984</ele>
<time>2012-03-09T07:02:22.000Z</time>
</trkpt>
<trkpt lat="31.0552472" lon="35.1947159">
<ele>398.119995</ele>
<time>2012-03-09T07:02:53.000Z</time>
</trkpt>
<trkpt lat="31.0552487" lon="35.1947156">
<ele>398.119995</ele>
<time>2012-03-09T07:03:23.000Z</time>
</trkpt>
<trkpt lat="31.0552594" lon="35.1947117">
<ele>398.600006</ele>
<time>2012-03-09T07:03:54.000Z</time>
</trkpt>
<trkpt lat="31.0552579" lon="35.1947161">
<ele>398.600006</ele>
<time>2012-03-09T07:04:24.000Z</time>
</trkpt>
<trkpt lat="31.0552614" lon="35.1947160">
<ele>398.600006</ele>
<time>2012-03-09T07:04:52.000Z</time>
</trkpt>
<trkpt lat="31.0552599" lon="35.1947127">
<ele>399.080017</ele>
<time>2012-03-09T07:05:22.000Z</time>
</trkpt>
<trkpt lat="31.0552618" lon="35.1947154">
<ele>399.570007</ele>
<time>2012-03-09T07:05:47.000Z</time>
</trkpt>
<trkpt lat="31.0552639" lon="35.1947168">
<ele>399.080017</ele>
<time>2012-03-09T07:06:14.000Z</time>
</trkpt>
<trkpt lat="31.0553153" lon="35.1947249">
<ele>399.570007</ele>
<time>2012-03-09T07:06:27.000Z</time>
</trkpt>
<trkpt lat="31.0554030" lon="35.1947421">
<ele>400.049988</ele>
<time>2012-03-09T07:06:43.000Z</time>
</trkpt>
<trkpt lat="31.0554005" lon="35.1947374">
<ele>400.049988</ele>
<time>2012-03-09T07:06:59.000Z</time>
</trkpt>
<trkpt lat="31.0554094" lon="35.1947300">
<ele>400.049988</ele>
<time>2012-03-09T07:07:30.000Z</time>
</trkpt>
<trkpt lat="31.0553976" lon="35.1947162">
<ele>400.049988</ele>
<time>2012-03-09T07:07:50.000Z</time>
</trkpt>
<trkpt lat="31.0553329" lon="35.1945353">
<ele>399.570007</ele>
<time>2012-03-09T07:08:03.000Z</time>
</trkpt>
<trkpt lat="31.0552536" lon="35.1946129">
<ele>399.080017</ele>
<time>2012-03-09T07:08:10.000Z</time>
</trkpt>
<trkpt lat="31.0552968" lon="35.1946762">
<ele>399.570007</ele>
<time>2012-03-09T07:08:14.000Z</time>
</trkpt>
<trkpt lat="31.0554108" lon="35.1946887">
<ele>400.049988</ele>
<time>2012-03-09T07:08:21.000Z</time>
</trkpt>
<trkpt lat="31.0554589" lon="35.1948720">
<ele>400.529999</ele>
<time>2012-03-09T07:08:33.000Z</time>
</trkpt>
<trkpt lat="31.0553877" lon="35.1950577">
<ele>401.010010</ele>
<time>2012-03-09T07:08:45.000Z</time>
</trkpt>
<trkpt lat="31.0554775" lon="35.1951535">
<ele>401.010010</ele>
<time>2012-03-09T07:08:58.000Z</time>
</trkpt>
<trkpt lat="31.0554750" lon="35.1951531">
<ele>401.489990</ele>
<time>2012-03-09T07:09:37.000Z</time>
</trkpt>
<trkpt lat="31.0555884" lon="35.1952015">
<ele>401.489990</ele>
<time>2012-03-09T07:09:55.000Z</time>
</trkpt>
<trkpt lat="31.0558266" lon="35.1954863">
<ele>402.450012</ele>
<time>2012-03-09T07:10:07.000Z</time>
</trkpt>
<trkpt lat="31.0556521" lon="35.1959813">
<ele>401.489990</ele>
<time>2012-03-09T07:10:18.000Z</time>
</trkpt>
<trkpt lat="31.0553217" lon="35.1968770">
<ele>399.080017</ele>
<time>2012-03-09T07:10:32.000Z</time>
</trkpt>
<trkpt lat="31.0549075" lon="35.1978449">
<ele>397.160004</ele>
<time>2012-03-09T07:10:48.000Z</time>
</trkpt>
<trkpt lat="31.0545906" lon="35.1985132">
<ele>397.160004</ele>
<time>2012-03-09T07:11:03.000Z</time>
</trkpt>
<trkpt lat="31.0543753" lon="35.1990656">
<ele>399.570007</ele>
<time>2012-03-09T07:11:18.000Z</time>
</trkpt>
<trkpt lat="31.0541659" lon="35.1995448">
<ele>402.930023</ele>
<time>2012-03-09T07:11:35.000Z</time>
</trkpt>
<trkpt lat="31.0538828" lon="35.2001801">
<ele>402.930023</ele>
<time>2012-03-09T07:11:53.000Z</time>
</trkpt>
<trkpt lat="31.0535093" lon="35.2010427">
<ele>401.489990</ele>
<time>2012-03-09T07:12:12.000Z</time>
</trkpt>
<trkpt lat="31.0533408" lon="35.2014328">
<ele>402.450012</ele>
<time>2012-03-09T07:12:23.000Z</time>
</trkpt>
<trkpt lat="31.0532121" lon="35.2017541">
<ele>403.410004</ele>
<time>2012-03-09T07:12:33.000Z</time>
</trkpt>
<trkpt lat="31.0530141" lon="35.2023739">
<ele>402.930023</ele>
<time>2012-03-09T07:12:48.000Z</time>
</trkpt>
<trkpt lat="31.0528351" lon="35.2029755">
<ele>401.970001</ele>
<time>2012-03-09T07:13:02.000Z</time>
</trkpt>
<trkpt lat="31.0527154" lon="35.2032990">
<ele>402.930023</ele>
<time>2012-03-09T07:13:13.000Z</time>
</trkpt>
<trkpt lat="31.0526896" lon="35.2033071">
<ele>402.930023</ele>
<time>2012-03-09T07:13:14.000Z</time>
</trkpt>
<trkpt lat="31.0526621" lon="35.2033043">
<ele>402.930023</ele>
<time>2012-03-09T07:13:15.000Z</time>
</trkpt>
<trkpt lat="31.0522606" lon="35.2032241">
<ele>402.450012</ele>
<time>2012-03-09T07:13:27.000Z</time>
</trkpt>
<trkpt lat="31.0519070" lon="35.2031054">
<ele>401.010010</ele>
<time>2012-03-09T07:13:35.000Z</time>
</trkpt>
<trkpt lat="31.0510579" lon="35.2027822">
<ele>399.080017</ele>
<time>2012-03-09T07:13:51.000Z</time>
</trkpt>
<trkpt lat="31.0498660" lon="35.2023171">
<ele>396.200012</ele>
<time>2012-03-09T07:14:09.000Z</time>
</trkpt>
<trkpt lat="31.0486210" lon="35.2018242">
<ele>393.320007</ele>
<time>2012-03-09T07:14:26.000Z</time>
</trkpt>
<trkpt lat="31.0475913" lon="35.2014355">
<ele>392.839996</ele>
<time>2012-03-09T07:14:42.000Z</time>
</trkpt>
<trkpt lat="31.0468363" lon="35.2012223">
<ele>392.360016</ele>
<time>2012-03-09T07:14:57.000Z</time>
</trkpt>
<trkpt lat="31.0467441" lon="35.2013717">
<ele>392.360016</ele>
<time>2012-03-09T07:15:05.000Z</time>
</trkpt>
<trkpt lat="31.0467395" lon="35.2013865">
<ele>392.839996</ele>
<time>2012-03-09T07:15:06.000Z</time>
</trkpt>
<trkpt lat="31.0467368" lon="35.2014021">
<ele>392.839996</ele>
<time>2012-03-09T07:15:07.000Z</time>
</trkpt>
<trkpt lat="31.0467226" lon="35.2014722">
<ele>393.799988</ele>
<time>2012-03-09T07:15:11.000Z</time>
</trkpt>
<trkpt lat="31.0467224" lon="35.2014933">
<ele>393.799988</ele>
<time>2012-03-09T07:15:12.000Z</time>
</trkpt>
<trkpt lat="31.0467223" lon="35.2015118">
<ele>393.799988</ele>
<time>2012-03-09T07:15:13.000Z</time>
</trkpt>
<trkpt lat="31.0467204" lon="35.2015293">
<ele>394.279999</ele>
<time>2012-03-09T07:15:14.000Z</time>
</trkpt>
<trkpt lat="31.0467180" lon="35.2015485">
<ele>394.279999</ele>
<time>2012-03-09T07:15:15.000Z</time>
</trkpt>
<trkpt lat="31.0467164" lon="35.2015676">
<ele>394.760010</ele>
<time>2012-03-09T07:15:16.000Z</time>
</trkpt>
<trkpt lat="31.0467163" lon="35.2015862">
<ele>395.239990</ele>
<time>2012-03-09T07:15:17.000Z</time>
</trkpt>
<trkpt lat="31.0467144" lon="35.2016024">
<ele>395.239990</ele>
<time>2012-03-09T07:15:18.000Z</time>
</trkpt>
<trkpt lat="31.0467092" lon="35.2016192">
<ele>395.239990</ele>
<time>2012-03-09T07:15:19.000Z</time>
</trkpt>
<trkpt lat="31.0467058" lon="35.2016355">
<ele>395.239990</ele>
<time>2012-03-09T07:15:20.000Z</time>
</trkpt>
<trkpt lat="31.0467044" lon="35.2016545">
<ele>395.720001</ele>
<time>2012-03-09T07:15:21.000Z</time>
</trkpt>
<trkpt lat="31.0467032" lon="35.2016735">
<ele>395.720001</ele>
<time>2012-03-09T07:15:22.000Z</time>
</trkpt>
<trkpt lat="31.0467022" lon="35.2016915">
<ele>395.720001</ele>
<time>2012-03-09T07:15:23.000Z</time>
</trkpt>
<trkpt lat="31.0466981" lon="35.2017072">
<ele>396.200012</ele>
<time>2012-03-09T07:15:24.000Z</time>
</trkpt>
<trkpt lat="31.0466957" lon="35.2017231">
<ele>396.200012</ele>
<time>2012-03-09T07:15:25.000Z</time>
</trkpt>
<trkpt lat="31.0466942" lon="35.2017389">
<ele>396.680023</ele>
<time>2012-03-09T07:15:26.000Z</time>
</trkpt>
<trkpt lat="31.0466902" lon="35.2017560">
<ele>396.680023</ele>
<time>2012-03-09T07:15:27.000Z</time>
</trkpt>
<trkpt lat="31.0466695" lon="35.2018944">
<ele>397.639984</ele>
<time>2012-03-09T07:15:40.000Z</time>
</trkpt>
<trkpt lat="31.0466390" lon="35.2023061">
<ele>399.570007</ele>
<time>2012-03-09T07:15:57.000Z</time>
</trkpt>
<trkpt lat="31.0466193" lon="35.2026142">
<ele>401.489990</ele>
<time>2012-03-09T07:16:11.000Z</time>
</trkpt>
<trkpt lat="31.0465775" lon="35.2027427">
<ele>400.049988</ele>
<time>2012-03-09T07:16:14.000Z</time>
</trkpt>
<trkpt lat="31.0465550" lon="35.2027924">
<ele>399.080017</ele>
<time>2012-03-09T07:16:15.000Z</time>
</trkpt>
<trkpt lat="31.0465263" lon="35.2028404">
<ele>398.600006</ele>
<time>2012-03-09T07:16:16.000Z</time>
</trkpt>
<trkpt lat="31.0464901" lon="35.2028854">
<ele>398.600006</ele>
<time>2012-03-09T07:16:17.000Z</time>
</trkpt>
<trkpt lat="31.0464495" lon="35.2029281">
<ele>398.119995</ele>
<time>2012-03-09T07:16:18.000Z</time>
</trkpt>
<trkpt lat="31.0464045" lon="35.2029608">
<ele>397.639984</ele>
<time>2012-03-09T07:16:19.000Z</time>
</trkpt>
<trkpt lat="31.0462606" lon="35.2029861">
<ele>398.119995</ele>
<time>2012-03-09T07:16:22.000Z</time>
</trkpt>
<trkpt lat="31.0457872" lon="35.2029774">
<ele>398.600006</ele>
<time>2012-03-09T07:16:36.000Z</time>
</trkpt>
<trkpt lat="31.0457053" lon="35.2029844">
<ele>399.080017</ele>
<time>2012-03-09T07:16:45.000Z</time>
</trkpt>
<trkpt lat="31.0457116" lon="35.2029903">
<ele>399.080017</ele>
<time>2012-03-09T07:17:16.000Z</time>
</trkpt>
<trkpt lat="31.0457115" lon="35.2029907">
<ele>398.600006</ele>
<time>2012-03-09T07:17:18.000Z</time>
</trkpt>
<trkpt lat="31.0455447" lon="35.2031513">
<ele>399.570007</ele>
<time>2012-03-09T07:17:27.000Z</time>
</trkpt>
<trkpt lat="31.0455302" lon="35.2032716">
<ele>400.049988</ele>
<time>2012-03-09T07:17:30.000Z</time>
</trkpt>
<trkpt lat="31.0455030" lon="35.2039010">
<ele>401.970001</ele>
<time>2012-03-09T07:17:44.000Z</time>
</trkpt>
<trkpt lat="31.0454723" lon="35.2047009">
<ele>404.369995</ele>
<time>2012-03-09T07:18:00.000Z</time>
</trkpt>
<trkpt lat="31.0454642" lon="35.2048662">
<ele>404.850006</ele>
<time>2012-03-09T07:18:04.000Z</time>
</trkpt>
<trkpt lat="31.0454458" lon="35.2050453">
<ele>405.330017</ele>
<time>2012-03-09T07:18:08.000Z</time>
</trkpt>
<trkpt lat="31.0454424" lon="35.2051106">
<ele>405.809998</ele>
<time>2012-03-09T07:18:10.000Z</time>
</trkpt>
<trkpt lat="31.0454184" lon="35.2056262">
<ele>409.180023</ele>
<time>2012-03-09T07:18:26.000Z</time>
</trkpt>
<trkpt lat="31.0453942" lon="35.2062631">
<ele>409.180023</ele>
<time>2012-03-09T07:18:42.000Z</time>
</trkpt>
<trkpt lat="31.0453822" lon="35.2066718">
<ele>408.700012</ele>
<time>2012-03-09T07:18:53.000Z</time>
</trkpt>
<trkpt lat="31.0453753" lon="35.2067257">
<ele>409.660004</ele>
<time>2012-03-09T07:18:55.000Z</time>
</trkpt>
<trkpt lat="31.0453484" lon="35.2072049">
<ele>411.100006</ele>
<time>2012-03-09T07:19:11.000Z</time>
</trkpt>
<trkpt lat="31.0453429" lon="35.2076963">
<ele>412.539978</ele>
<time>2012-03-09T07:19:28.000Z</time>
</trkpt>
<trkpt lat="31.0453161" lon="35.2080198">
<ele>414.470001</ele>
<time>2012-03-09T07:19:40.000Z</time>
</trkpt>
<trkpt lat="31.0453062" lon="35.2083355">
<ele>416.869995</ele>
<time>2012-03-09T07:19:54.000Z</time>
</trkpt>
<trkpt lat="31.0453053" lon="35.2086050">
<ele>417.830017</ele>
<time>2012-03-09T07:20:08.000Z</time>
</trkpt>
<trkpt lat="31.0452791" lon="35.2089293">
<ele>420.230011</ele>
<time>2012-03-09T07:20:23.000Z</time>
</trkpt>
<trkpt lat="31.0452800" lon="35.2091639">
<ele>420.709991</ele>
<time>2012-03-09T07:20:32.000Z</time>
</trkpt>
<trkpt lat="31.0452583" lon="35.2094647">
<ele>422.160004</ele>
<time>2012-03-09T07:20:45.000Z</time>
</trkpt>
<trkpt lat="31.0452322" lon="35.2099894">
<ele>423.119995</ele>
<time>2012-03-09T07:21:05.000Z</time>
</trkpt>
<trkpt lat="31.0452142" lon="35.2105611">
<ele>423.119995</ele>
<time>2012-03-09T07:21:25.000Z</time>
</trkpt>
<trkpt lat="31.0452020" lon="35.2108542">
<ele>422.639984</ele>
<time>2012-03-09T07:21:35.000Z</time>
</trkpt>
<trkpt lat="31.0452049" lon="35.2108850">
<ele>422.639984</ele>
<time>2012-03-09T07:21:36.000Z</time>
</trkpt>
<trkpt lat="31.0451907" lon="35.2115705">
<ele>420.709991</ele>
<time>2012-03-09T07:21:52.000Z</time>
</trkpt>
<trkpt lat="31.0451589" lon="35.2121890">
<ele>418.789978</ele>
<time>2012-03-09T07:22:02.000Z</time>
</trkpt>
<trkpt lat="31.0451266" lon="35.2132418">
<ele>416.869995</ele>
<time>2012-03-09T07:22:20.000Z</time>
</trkpt>
<trkpt lat="31.0451070" lon="35.2138395">
<ele>417.350006</ele>
<time>2012-03-09T07:22:36.000Z</time>
</trkpt>
<trkpt lat="31.0450926" lon="35.2144077">
<ele>417.830017</ele>
<time>2012-03-09T07:22:51.000Z</time>
</trkpt>
<trkpt lat="31.0450739" lon="35.2148937">
<ele>419.269989</ele>
<time>2012-03-09T07:23:05.000Z</time>
</trkpt>
<trkpt lat="31.0450633" lon="35.2152778">
<ele>420.709991</ele>
<time>2012-03-09T07:23:16.000Z</time>
</trkpt>
<trkpt lat="31.0450435" lon="35.2157007">
<ele>422.639984</ele>
<time>2012-03-09T07:23:31.000Z</time>
</trkpt>
<trkpt lat="31.0450409" lon="35.2160589">
<ele>425.039978</ele>
<time>2012-03-09T07:23:45.000Z</time>
</trkpt>
<trkpt lat="31.0450293" lon="35.2164159">
<ele>427.920013</ele>
<time>2012-03-09T07:24:02.000Z</time>
</trkpt>
<trkpt lat="31.0450264" lon="35.2164575">
<ele>427.920013</ele>
<time>2012-03-09T07:24:05.000Z</time>
</trkpt>
<trkpt lat="31.0450277" lon="35.2164719">
<ele>427.920013</ele>
<time>2012-03-09T07:24:06.000Z</time>
</trkpt>
<trkpt lat="31.0450293" lon="35.2164865">
<ele>428.399994</ele>
<time>2012-03-09T07:24:07.000Z</time>
</trkpt>
<trkpt lat="31.0450280" lon="35.2165017">
<ele>428.399994</ele>
<time>2012-03-09T07:24:08.000Z</time>
</trkpt>
<trkpt lat="31.0450253" lon="35.2165168">
<ele>428.399994</ele>
<time>2012-03-09T07:24:09.000Z</time>
</trkpt>
<trkpt lat="31.0450232" lon="35.2165328">
<ele>428.399994</ele>
<time>2012-03-09T07:24:10.000Z</time>
</trkpt>
<trkpt lat="31.0450236" lon="35.2165496">
<ele>428.399994</ele>
<time>2012-03-09T07:24:11.000Z</time>
</trkpt>
<trkpt lat="31.0450243" lon="35.2165665">
<ele>428.889984</ele>
<time>2012-03-09T07:24:12.000Z</time>
</trkpt>
<trkpt lat="31.0450220" lon="35.2165810">
<ele>428.889984</ele>
<time>2012-03-09T07:24:13.000Z</time>
</trkpt>
<trkpt lat="31.0450210" lon="35.2165964">
<ele>428.889984</ele>
<time>2012-03-09T07:24:14.000Z</time>
</trkpt>
<trkpt lat="31.0450197" lon="35.2166122">
<ele>428.889984</ele>
<time>2012-03-09T07:24:15.000Z</time>
</trkpt>
<trkpt lat="31.0450198" lon="35.2166267">
<ele>429.369995</ele>
<time>2012-03-09T07:24:16.000Z</time>
</trkpt>
<trkpt lat="31.0450217" lon="35.2166433">
<ele>429.369995</ele>
<time>2012-03-09T07:24:17.000Z</time>
</trkpt>
<trkpt lat="31.0450139" lon="35.2168824">
<ele>431.289978</ele>
<time>2012-03-09T07:24:31.000Z</time>
</trkpt>
<trkpt lat="31.0450124" lon="35.2169031">
<ele>431.289978</ele>
<time>2012-03-09T07:24:32.000Z</time>
</trkpt>
<trkpt lat="31.0450125" lon="35.2169217">
<ele>431.769989</ele>
<time>2012-03-09T07:24:33.000Z</time>
</trkpt>
<trkpt lat="31.0450101" lon="35.2171197">
<ele>433.209991</ele>
<time>2012-03-09T07:24:45.000Z</time>
</trkpt>
<trkpt lat="31.0450093" lon="35.2171366">
<ele>433.209991</ele>
<time>2012-03-09T07:24:46.000Z</time>
</trkpt>
<trkpt lat="31.0450096" lon="35.2171558">
<ele>433.690002</ele>
<time>2012-03-09T07:24:47.000Z</time>
</trkpt>
<trkpt lat="31.0450079" lon="35.2171746">
<ele>433.690002</ele>
<time>2012-03-09T07:24:48.000Z</time>
</trkpt>
<trkpt lat="31.0450066" lon="35.2171956">
<ele>433.690002</ele>
<time>2012-03-09T07:24:49.000Z</time>
</trkpt>
<trkpt lat="31.0450060" lon="35.2172159">
<ele>434.170013</ele>
<time>2012-03-09T07:24:50.000Z</time>
</trkpt>
<trkpt lat="31.0449986" lon="35.2173348">
<ele>435.130005</ele>
<time>2012-03-09T07:24:57.000Z</time>
</trkpt>
<trkpt lat="31.0449959" lon="35.2173521">
<ele>435.130005</ele>
<time>2012-03-09T07:24:58.000Z</time>
</trkpt>
<trkpt lat="31.0449953" lon="35.2173726">
<ele>435.130005</ele>
<time>2012-03-09T07:24:59.000Z</time>
</trkpt>
<trkpt lat="31.0449791" lon="35.2176603">
<ele>436.100006</ele>
<time>2012-03-09T07:25:13.000Z</time>
</trkpt>
<trkpt lat="31.0449671" lon="35.2179200">
<ele>436.100006</ele>
<time>2012-03-09T07:25:24.000Z</time>
</trkpt>
<trkpt lat="31.0449635" lon="35.2179442">
<ele>436.580017</ele>
<time>2012-03-09T07:25:25.000Z</time>
</trkpt>
<trkpt lat="31.0449455" lon="35.2183590">
<ele>437.059998</ele>
<time>2012-03-09T07:25:41.000Z</time>
</trkpt>
<trkpt lat="31.0449488" lon="35.2186565">
<ele>437.539978</ele>
<time>2012-03-09T07:25:54.000Z</time>
</trkpt>
<trkpt lat="31.0449298" lon="35.2190509">
<ele>439.459991</ele>
<time>2012-03-09T07:26:11.000Z</time>
</trkpt>
<trkpt lat="31.0449231" lon="35.2194000">
<ele>440.899994</ele>
<time>2012-03-09T07:26:26.000Z</time>
</trkpt>
<trkpt lat="31.0449174" lon="35.2197566">
<ele>442.339996</ele>
<time>2012-03-09T07:26:41.000Z</time>
</trkpt>
<trkpt lat="31.0449038" lon="35.2201178">
<ele>443.789978</ele>
<time>2012-03-09T07:26:57.000Z</time>
</trkpt>
<trkpt lat="31.0448956" lon="35.2204848">
<ele>446.670013</ele>
<time>2012-03-09T07:27:14.000Z</time>
</trkpt>
<trkpt lat="31.0448720" lon="35.2208485">
<ele>449.070007</ele>
<time>2012-03-09T07:27:31.000Z</time>
</trkpt>
<trkpt lat="31.0448646" lon="35.2210710">
<ele>450.519989</ele>
<time>2012-03-09T07:27:43.000Z</time>
</trkpt>
<trkpt lat="31.0448537" lon="35.2211505">
<ele>451.000000</ele>
<time>2012-03-09T07:27:47.000Z</time>
</trkpt>
<trkpt lat="31.0448490" lon="35.2211712">
<ele>451.480011</ele>
<time>2012-03-09T07:27:48.000Z</time>
</trkpt>
<trkpt lat="31.0448486" lon="35.2211919">
<ele>451.480011</ele>
<time>2012-03-09T07:27:49.000Z</time>
</trkpt>
<trkpt lat="31.0448580" lon="35.2213284">
<ele>452.440002</ele>
<time>2012-03-09T07:27:56.000Z</time>
</trkpt>
<trkpt lat="31.0448579" lon="35.2213466">
<ele>452.440002</ele>
<time>2012-03-09T07:27:57.000Z</time>
</trkpt>
<trkpt lat="31.0448584" lon="35.2213682">
<ele>452.920013</ele>
<time>2012-03-09T07:27:58.000Z</time>
</trkpt>
<trkpt lat="31.0448593" lon="35.2213882">
<ele>452.920013</ele>
<time>2012-03-09T07:27:59.000Z</time>
</trkpt>
<trkpt lat="31.0448594" lon="35.2214078">
<ele>452.920013</ele>
<time>2012-03-09T07:28:00.000Z</time>
</trkpt>
<trkpt lat="31.0448568" lon="35.2214269">
<ele>452.920013</ele>
<time>2012-03-09T07:28:01.000Z</time>
</trkpt>
<trkpt lat="31.0448495" lon="35.2217873">
<ele>452.920013</ele>
<time>2012-03-09T07:28:16.000Z</time>
</trkpt>
<trkpt lat="31.0448366" lon="35.2220966">
<ele>451.959991</ele>
<time>2012-03-09T07:28:26.000Z</time>
</trkpt>
<trkpt lat="31.0448198" lon="35.2223773">
<ele>449.070007</ele>
<time>2012-03-09T07:28:30.000Z</time>
</trkpt>
<trkpt lat="31.0448159" lon="35.2227582">
<ele>447.149994</ele>
<time>2012-03-09T07:28:34.000Z</time>
</trkpt>
<trkpt lat="31.0448030" lon="35.2231031">
<ele>443.789978</ele>
<time>2012-03-09T07:28:37.000Z</time>
</trkpt>
<trkpt lat="31.0447869" lon="35.2236022">
<ele>440.420013</ele>
<time>2012-03-09T07:28:41.000Z</time>
</trkpt>
<trkpt lat="31.0447675" lon="35.2239950">
<ele>437.059998</ele>
<time>2012-03-09T07:28:44.000Z</time>
</trkpt>
<trkpt lat="31.0447504" lon="35.2244016">
<ele>434.170013</ele>
<time>2012-03-09T07:28:47.000Z</time>
</trkpt>
<trkpt lat="31.0447436" lon="35.2245354">
<ele>433.690002</ele>
<time>2012-03-09T07:28:48.000Z</time>
</trkpt>
<trkpt lat="31.0447307" lon="35.2248909">
<ele>431.769989</ele>
<time>2012-03-09T07:28:51.000Z</time>
</trkpt>
<trkpt lat="31.0447243" lon="35.2251918">
<ele>428.399994</ele>
<time>2012-03-09T07:28:55.000Z</time>
</trkpt>
<trkpt lat="31.0449345" lon="35.2253813">
<ele>425.039978</ele>
<time>2012-03-09T07:29:02.000Z</time>
</trkpt>
<trkpt lat="31.0448994" lon="35.2255038">
<ele>425.039978</ele>
<time>2012-03-09T07:29:05.000Z</time>
</trkpt>
<trkpt lat="31.0447099" lon="35.2258258">
<ele>422.160004</ele>
<time>2012-03-09T07:29:17.000Z</time>
</trkpt>
<trkpt lat="31.0447132" lon="35.2259091">
<ele>421.190002</ele>
<time>2012-03-09T07:29:21.000Z</time>
</trkpt>
<trkpt lat="31.0446929" lon="35.2260202">
<ele>420.230011</ele>
<time>2012-03-09T07:29:31.000Z</time>
</trkpt>
<trkpt lat="31.0446946" lon="35.2260335">
<ele>420.230011</ele>
<time>2012-03-09T07:29:51.000Z</time>
</trkpt>
<trkpt lat="31.0446997" lon="35.2260356">
<ele>420.230011</ele>
<time>2012-03-09T07:30:21.000Z</time>
</trkpt>
<trkpt lat="31.0447057" lon="35.2260366">
<ele>420.230011</ele>
<time>2012-03-09T07:30:50.000Z</time>
</trkpt>
<trkpt lat="31.0447102" lon="35.2260396">
<ele>419.269989</ele>
<time>2012-03-09T07:31:21.000Z</time>
</trkpt>
<trkpt lat="31.0447095" lon="35.2260428">
<ele>419.750000</ele>
<time>2012-03-09T07:31:24.000Z</time>
</trkpt>
<trkpt lat="31.0447077" lon="35.2261479">
<ele>419.269989</ele>
<time>2012-03-09T07:31:28.000Z</time>
</trkpt>
<trkpt lat="31.0446729" lon="35.2266683">
<ele>414.950012</ele>
<time>2012-03-09T07:31:35.000Z</time>
</trkpt>
<trkpt lat="31.0446610" lon="35.2270392">
<ele>411.580017</ele>
<time>2012-03-09T07:31:39.000Z</time>
</trkpt>
<trkpt lat="31.0446546" lon="35.2272273">
<ele>410.139984</ele>
<time>2012-03-09T07:31:41.000Z</time>
</trkpt>
<trkpt lat="31.0446413" lon="35.2275307">
<ele>406.289978</ele>
<time>2012-03-09T07:31:44.000Z</time>
</trkpt>
<trkpt lat="31.0446304" lon="35.2278221">
<ele>402.450012</ele>
<time>2012-03-09T07:31:47.000Z</time>
</trkpt>
<trkpt lat="31.0446154" lon="35.2282264">
<ele>399.080017</ele>
<time>2012-03-09T07:31:51.000Z</time>
</trkpt>
<trkpt lat="31.0446038" lon="35.2285404">
<ele>395.720001</ele>
<time>2012-03-09T07:31:54.000Z</time>
</trkpt>
<trkpt lat="31.0445942" lon="35.2288629">
<ele>392.360016</ele>
<time>2012-03-09T07:31:57.000Z</time>
</trkpt>
<trkpt lat="31.0445810" lon="35.2291941">
<ele>388.989990</ele>
<time>2012-03-09T07:32:00.000Z</time>
</trkpt>
<trkpt lat="31.0445706" lon="35.2295963">
<ele>385.149994</ele>
<time>2012-03-09T07:32:04.000Z</time>
</trkpt>
<trkpt lat="31.0445644" lon="35.2297875">
<ele>382.260010</ele>
<time>2012-03-09T07:32:06.000Z</time>
</trkpt>
<trkpt lat="31.0445465" lon="35.2301401">
<ele>377.450012</ele>
<time>2012-03-09T07:32:09.000Z</time>
</trkpt>
<trkpt lat="31.0445357" lon="35.2305035">
<ele>375.049988</ele>
<time>2012-03-09T07:32:12.000Z</time>
</trkpt>
<trkpt lat="31.0445179" lon="35.2311026">
<ele>371.689972</ele>
<time>2012-03-09T07:32:17.000Z</time>
</trkpt>
<trkpt lat="31.0445004" lon="35.2316838">
<ele>368.320007</ele>
<time>2012-03-09T07:32:22.000Z</time>
</trkpt>
<trkpt lat="31.0444968" lon="35.2317955">
<ele>367.839996</ele>
<time>2012-03-09T07:32:23.000Z</time>
</trkpt>
<trkpt lat="31.0444843" lon="35.2322434">
<ele>366.399994</ele>
<time>2012-03-09T07:32:27.000Z</time>
</trkpt>
<trkpt lat="31.0444725" lon="35.2326391">
<ele>363.519989</ele>
<time>2012-03-09T07:32:31.000Z</time>
</trkpt>
<trkpt lat="31.0444606" lon="35.2332884">
<ele>361.110016</ele>
<time>2012-03-09T07:32:42.000Z</time>
</trkpt>
<trkpt lat="31.0444604" lon="35.2337372">
<ele>359.669983</ele>
<time>2012-03-09T07:32:54.000Z</time>
</trkpt>
<trkpt lat="31.0444931" lon="35.2338752">
<ele>359.189972</ele>
<time>2012-03-09T07:33:04.000Z</time>
</trkpt>
<trkpt lat="31.0444937" lon="35.2338849">
<ele>359.189972</ele>
<time>2012-03-09T07:33:33.000Z</time>
</trkpt>
<trkpt lat="31.0444947" lon="35.2338831">
<ele>359.189972</ele>
<time>2012-03-09T07:33:49.000Z</time>
</trkpt>
<trkpt lat="31.0445202" lon="35.2338894">
<ele>359.189972</ele>
<time>2012-03-09T07:33:51.000Z</time>
</trkpt>
<trkpt lat="31.0445367" lon="35.2338829">
<ele>359.189972</ele>
<time>2012-03-09T07:33:52.000Z</time>
</trkpt>
<trkpt lat="31.0445503" lon="35.2338702">
<ele>359.669983</ele>
<time>2012-03-09T07:33:53.000Z</time>
</trkpt>
<trkpt lat="31.0447658" lon="35.2337149">
<ele>360.149994</ele>
<time>2012-03-09T07:34:06.000Z</time>
</trkpt>
<trkpt lat="31.0451562" lon="35.2336434">
<ele>359.669983</ele>
<time>2012-03-09T07:34:20.000Z</time>
</trkpt>
<trkpt lat="31.0456752" lon="35.2334358">
<ele>359.669983</ele>
<time>2012-03-09T07:34:36.000Z</time>
</trkpt>
<trkpt lat="31.0460952" lon="35.2331232">
<ele>359.669983</ele>
<time>2012-03-09T07:34:50.000Z</time>
</trkpt>
<trkpt lat="31.0466114" lon="35.2328161">
<ele>360.149994</ele>
<time>2012-03-09T07:35:07.000Z</time>
</trkpt>
<trkpt lat="31.0470500" lon="35.2324991">
<ele>361.110016</ele>
<time>2012-03-09T07:35:23.000Z</time>
</trkpt>
<trkpt lat="31.0472656" lon="35.2322883">
<ele>361.589996</ele>
<time>2012-03-09T07:35:33.000Z</time>
</trkpt>
<trkpt lat="31.0476647" lon="35.2320150">
<ele>361.589996</ele>
<time>2012-03-09T07:35:49.000Z</time>
</trkpt>
<trkpt lat="31.0479710" lon="35.2318879">
<ele>362.549988</ele>
<time>2012-03-09T07:36:01.000Z</time>
</trkpt>
<trkpt lat="31.0483498" lon="35.2316377">
<ele>363.519989</ele>
<time>2012-03-09T07:36:17.000Z</time>
</trkpt>
<trkpt lat="31.0486670" lon="35.2315655">
<ele>364.000000</ele>
<time>2012-03-09T07:36:29.000Z</time>
</trkpt>
<trkpt lat="31.0490996" lon="35.2315011">
<ele>364.960022</ele>
<time>2012-03-09T07:36:44.000Z</time>
</trkpt>
<trkpt lat="31.0494990" lon="35.2315928">
<ele>365.439972</ele>
<time>2012-03-09T07:36:58.000Z</time>
</trkpt>
<trkpt lat="31.0499362" lon="35.2316617">
<ele>365.919983</ele>
<time>2012-03-09T07:37:13.000Z</time>
</trkpt>
<trkpt lat="31.0502160" lon="35.2316471">
<ele>365.919983</ele>
<time>2012-03-09T07:37:25.000Z</time>
</trkpt>
<trkpt lat="31.0505715" lon="35.2316243">
<ele>366.880005</ele>
<time>2012-03-09T07:37:40.000Z</time>
</trkpt>
<trkpt lat="31.0509363" lon="35.2316360">
<ele>367.839996</ele>
<time>2012-03-09T07:37:54.000Z</time>
</trkpt>
<trkpt lat="31.0511974" lon="35.2317979">
<ele>367.839996</ele>
<time>2012-03-09T07:38:05.000Z</time>
</trkpt>
<trkpt lat="31.0514565" lon="35.2320100">
<ele>368.799988</ele>
<time>2012-03-09T07:38:17.000Z</time>
</trkpt>
<trkpt lat="31.0517132" lon="35.2321107">
<ele>369.279999</ele>
<time>2012-03-09T07:38:28.000Z</time>
</trkpt>
<trkpt lat="31.0519789" lon="35.2323208">
<ele>369.760010</ele>
<time>2012-03-09T07:38:42.000Z</time>
</trkpt>
<trkpt lat="31.0520482" lon="35.2325671">
<ele>371.689972</ele>
<time>2012-03-09T07:38:55.000Z</time>
</trkpt>
<trkpt lat="31.0520500" lon="35.2325833">
<ele>371.689972</ele>
<time>2012-03-09T07:38:56.000Z</time>
</trkpt>
<trkpt lat="31.0520557" lon="35.2326019">
<ele>371.689972</ele>
<time>2012-03-09T07:38:57.000Z</time>
</trkpt>
<trkpt lat="31.0520985" lon="35.2328102">
<ele>373.130005</ele>
<time>2012-03-09T07:39:10.000Z</time>
</trkpt>
<trkpt lat="31.0520984" lon="35.2328537">
<ele>374.089996</ele>
<time>2012-03-09T07:39:13.000Z</time>
</trkpt>
<trkpt lat="31.0521042" lon="35.2328691">
<ele>374.570007</ele>
<time>2012-03-09T07:39:14.000Z</time>
</trkpt>
<trkpt lat="31.0521825" lon="35.2330994">
<ele>376.489990</ele>
<time>2012-03-09T07:39:29.000Z</time>
</trkpt>
<trkpt lat="31.0522140" lon="35.2333370">
<ele>377.939972</ele>
<time>2012-03-09T07:39:43.000Z</time>
</trkpt>
<trkpt lat="31.0522115" lon="35.2333673">
<ele>377.939972</ele>
<time>2012-03-09T07:39:45.000Z</time>
</trkpt>
<trkpt lat="31.0522066" lon="35.2333847">
<ele>377.939972</ele>
<time>2012-03-09T07:39:46.000Z</time>
</trkpt>
<trkpt lat="31.0522031" lon="35.2334037">
<ele>378.419983</ele>
<time>2012-03-09T07:39:47.000Z</time>
</trkpt>
<trkpt lat="31.0521990" lon="35.2334189">
<ele>378.419983</ele>
<time>2012-03-09T07:39:48.000Z</time>
</trkpt>
<trkpt lat="31.0522008" lon="35.2334311">
<ele>378.419983</ele>
<time>2012-03-09T07:39:49.000Z</time>
</trkpt>
<trkpt lat="31.0522024" lon="35.2334441">
<ele>378.899994</ele>
<time>2012-03-09T07:39:50.000Z</time>
</trkpt>
<trkpt lat="31.0522039" lon="35.2334573">
<ele>378.419983</ele>
<time>2012-03-09T07:39:51.000Z</time>
</trkpt>
<trkpt lat="31.0522045" lon="35.2334960">
<ele>379.380005</ele>
<time>2012-03-09T07:39:54.000Z</time>
</trkpt>
<trkpt lat="31.0522062" lon="35.2335096">
<ele>379.380005</ele>
<time>2012-03-09T07:39:55.000Z</time>
</trkpt>
<trkpt lat="31.0522010" lon="35.2336342">
<ele>380.339996</ele>
<time>2012-03-09T07:40:04.000Z</time>
</trkpt>
<trkpt lat="31.0522054" lon="35.2336436">
<ele>380.820007</ele>
<time>2012-03-09T07:40:05.000Z</time>
</trkpt>
<trkpt lat="31.0522060" lon="35.2336555">
<ele>381.299988</ele>
<time>2012-03-09T07:40:06.000Z</time>
</trkpt>
<trkpt lat="31.0522045" lon="35.2336684">
<ele>381.299988</ele>
<time>2012-03-09T07:40:07.000Z</time>
</trkpt>
<trkpt lat="31.0521914" lon="35.2337236">
<ele>382.260010</ele>
<time>2012-03-09T07:40:12.000Z</time>
</trkpt>
<trkpt lat="31.0521952" lon="35.2337372">
<ele>382.260010</ele>
<time>2012-03-09T07:40:13.000Z</time>
</trkpt>
<trkpt lat="31.0522002" lon="35.2337584">
<ele>383.220001</ele>
<time>2012-03-09T07:40:15.000Z</time>
</trkpt>
<trkpt lat="31.0522017" lon="35.2337720">
<ele>383.220001</ele>
<time>2012-03-09T07:40:16.000Z</time>
</trkpt>
<trkpt lat="31.0522063" lon="35.2337849">
<ele>384.180023</ele>
<time>2012-03-09T07:40:17.000Z</time>
</trkpt>
<trkpt lat="31.0522065" lon="35.2337975">
<ele>383.700012</ele>
<time>2012-03-09T07:40:18.000Z</time>
</trkpt>
<trkpt lat="31.0522033" lon="35.2338115">
<ele>384.180023</ele>
<time>2012-03-09T07:40:19.000Z</time>
</trkpt>
<trkpt lat="31.0522003" lon="35.2338257">
<ele>384.180023</ele>
<time>2012-03-09T07:40:20.000Z</time>
</trkpt>
<trkpt lat="31.0521956" lon="35.2338372">
<ele>384.180023</ele>
<time>2012-03-09T07:40:21.000Z</time>
</trkpt>
<trkpt lat="31.0521893" lon="35.2338493">
<ele>384.660004</ele>
<time>2012-03-09T07:40:22.000Z</time>
</trkpt>
<trkpt lat="31.0521888" lon="35.2338619">
<ele>385.149994</ele>
<time>2012-03-09T07:40:30.000Z</time>
</trkpt>
<trkpt lat="31.0522002" lon="35.2339006">
<ele>385.630005</ele>
<time>2012-03-09T07:40:46.000Z</time>
</trkpt>
<trkpt lat="31.0522132" lon="35.2339163">
<ele>385.630005</ele>
<time>2012-03-09T07:40:48.000Z</time>
</trkpt>
<trkpt lat="31.0522159" lon="35.2339333">
<ele>385.630005</ele>
<time>2012-03-09T07:40:49.000Z</time>
</trkpt>
<trkpt lat="31.0522111" lon="35.2339583">
<ele>386.110016</ele>
<time>2012-03-09T07:40:51.000Z</time>
</trkpt>
<trkpt lat="31.0522039" lon="35.2339692">
<ele>386.589996</ele>
<time>2012-03-09T07:40:52.000Z</time>
</trkpt>
<trkpt lat="31.0521947" lon="35.2339794">
<ele>386.589996</ele>
<time>2012-03-09T07:40:53.000Z</time>
</trkpt>
<trkpt lat="31.0521884" lon="35.2339931">
<ele>386.589996</ele>
<time>2012-03-09T07:40:54.000Z</time>
</trkpt>
<trkpt lat="31.0521835" lon="35.2340075">
<ele>387.070007</ele>
<time>2012-03-09T07:40:55.000Z</time>
</trkpt>
<trkpt lat="31.0521794" lon="35.2340200">
<ele>387.070007</ele>
<time>2012-03-09T07:40:56.000Z</time>
</trkpt>
<trkpt lat="31.0521752" lon="35.2340320">
<ele>387.549988</ele>
<time>2012-03-09T07:40:57.000Z</time>
</trkpt>
<trkpt lat="31.0521719" lon="35.2340454">
<ele>387.549988</ele>
<time>2012-03-09T07:40:58.000Z</time>
</trkpt>
<trkpt lat="31.0521706" lon="35.2340599">
<ele>387.549988</ele>
<time>2012-03-09T07:40:59.000Z</time>
</trkpt>
<trkpt lat="31.0521679" lon="35.2340779">
<ele>388.029999</ele>
<time>2012-03-09T07:41:00.000Z</time>
</trkpt>
<trkpt lat="31.0521639" lon="35.2340941">
<ele>388.029999</ele>
<time>2012-03-09T07:41:01.000Z</time>
</trkpt>
<trkpt lat="31.0521732" lon="35.2341155">
<ele>388.510010</ele>
<time>2012-03-09T07:41:03.000Z</time>
</trkpt>
<trkpt lat="31.0521742" lon="35.2341282">
<ele>388.510010</ele>
<time>2012-03-09T07:41:04.000Z</time>
</trkpt>
<trkpt lat="31.0521690" lon="35.2341420">
<ele>388.989990</ele>
<time>2012-03-09T07:41:05.000Z</time>
</trkpt>
<trkpt lat="31.0521635" lon="35.2341553">
<ele>388.989990</ele>
<time>2012-03-09T07:41:06.000Z</time>
</trkpt>
<trkpt lat="31.0521512" lon="35.2341631">
<ele>388.989990</ele>
<time>2012-03-09T07:41:07.000Z</time>
</trkpt>
<trkpt lat="31.0521452" lon="35.2341724">
<ele>388.989990</ele>
<time>2012-03-09T07:41:08.000Z</time>
</trkpt>
<trkpt lat="31.0521398" lon="35.2341843">
<ele>389.470001</ele>
<time>2012-03-09T07:41:09.000Z</time>
</trkpt>
<trkpt lat="31.0521390" lon="35.2341985">
<ele>389.470001</ele>
<time>2012-03-09T07:41:10.000Z</time>
</trkpt>
<trkpt lat="31.0521394" lon="35.2342134">
<ele>389.950012</ele>
<time>2012-03-09T07:41:11.000Z</time>
</trkpt>
<trkpt lat="31.0521381" lon="35.2342275">
<ele>389.950012</ele>
<time>2012-03-09T07:41:12.000Z</time>
</trkpt>
<trkpt lat="31.0521349" lon="35.2342413">
<ele>390.430023</ele>
<time>2012-03-09T07:41:13.000Z</time>
</trkpt>
<trkpt lat="31.0521304" lon="35.2342537">
<ele>390.430023</ele>
<time>2012-03-09T07:41:14.000Z</time>
</trkpt>
<trkpt lat="31.0521145" lon="35.2343118">
<ele>391.869995</ele>
<time>2012-03-09T07:41:19.000Z</time>
</trkpt>
<trkpt lat="31.0521098" lon="35.2343260">
<ele>391.869995</ele>
<time>2012-03-09T07:41:20.000Z</time>
</trkpt>
<trkpt lat="31.0520949" lon="35.2343848">
<ele>392.839996</ele>
<time>2012-03-09T07:41:24.000Z</time>
</trkpt>
<trkpt lat="31.0520819" lon="35.2344260">
<ele>393.320007</ele>
<time>2012-03-09T07:41:28.000Z</time>
</trkpt>
<trkpt lat="31.0520768" lon="35.2344375">
<ele>393.320007</ele>
<time>2012-03-09T07:41:29.000Z</time>
</trkpt>
<trkpt lat="31.0520722" lon="35.2344492">
<ele>393.320007</ele>
<time>2012-03-09T07:41:30.000Z</time>
</trkpt>
<trkpt lat="31.0520672" lon="35.2344612">
<ele>393.799988</ele>
<time>2012-03-09T07:41:31.000Z</time>
</trkpt>
<trkpt lat="31.0520601" lon="35.2344735">
<ele>393.799988</ele>
<time>2012-03-09T07:41:32.000Z</time>
</trkpt>
<trkpt lat="31.0520549" lon="35.2345049">
<ele>394.279999</ele>
<time>2012-03-09T07:41:35.000Z</time>
</trkpt>
<trkpt lat="31.0520480" lon="35.2345151">
<ele>393.799988</ele>
<time>2012-03-09T07:41:36.000Z</time>
</trkpt>
<trkpt lat="31.0520453" lon="35.2345282">
<ele>393.799988</ele>
<time>2012-03-09T07:41:37.000Z</time>
</trkpt>
<trkpt lat="31.0519928" lon="35.2347210">
<ele>395.720001</ele>
<time>2012-03-09T07:41:53.000Z</time>
</trkpt>
<trkpt lat="31.0519920" lon="35.2347322">
<ele>395.239990</ele>
<time>2012-03-09T07:41:54.000Z</time>
</trkpt>
<trkpt lat="31.0519884" lon="35.2347443">
<ele>395.720001</ele>
<time>2012-03-09T07:41:55.000Z</time>
</trkpt>
<trkpt lat="31.0519860" lon="35.2347592">
<ele>395.720001</ele>
<time>2012-03-09T07:41:56.000Z</time>
</trkpt>
<trkpt lat="31.0519880" lon="35.2347983">
<ele>396.200012</ele>
<time>2012-03-09T07:41:59.000Z</time>
</trkpt>
<trkpt lat="31.0519916" lon="35.2348120">
<ele>396.200012</ele>
<time>2012-03-09T07:42:00.000Z</time>
</trkpt>
<trkpt lat="31.0519919" lon="35.2348246">
<ele>396.200012</ele>
<time>2012-03-09T07:42:01.000Z</time>
</trkpt>
<trkpt lat="31.0519899" lon="35.2348383">
<ele>396.680023</ele>
<time>2012-03-09T07:42:02.000Z</time>
</trkpt>
<trkpt lat="31.0519899" lon="35.2348507">
<ele>396.680023</ele>
<time>2012-03-09T07:42:03.000Z</time>
</trkpt>
<trkpt lat="31.0519894" lon="35.2348639">
<ele>396.680023</ele>
<time>2012-03-09T07:42:04.000Z</time>
</trkpt>
<trkpt lat="31.0519888" lon="35.2348776">
<ele>397.160004</ele>
<time>2012-03-09T07:42:05.000Z</time>
</trkpt>
<trkpt lat="31.0519938" lon="35.2349017">
<ele>397.160004</ele>
<time>2012-03-09T07:42:07.000Z</time>
</trkpt>
<trkpt lat="31.0519972" lon="35.2349125">
<ele>397.160004</ele>
<time>2012-03-09T07:42:08.000Z</time>
</trkpt>
<trkpt lat="31.0520032" lon="35.2349462">
<ele>397.639984</ele>
<time>2012-03-09T07:42:11.000Z</time>
</trkpt>
<trkpt lat="31.0520069" lon="35.2349588">
<ele>397.639984</ele>
<time>2012-03-09T07:42:12.000Z</time>
</trkpt>
<trkpt lat="31.0520099" lon="35.2349708">
<ele>397.639984</ele>
<time>2012-03-09T07:42:13.000Z</time>
</trkpt>
<trkpt lat="31.0520142" lon="35.2349803">
<ele>398.119995</ele>
<time>2012-03-09T07:42:14.000Z</time>
</trkpt>
<trkpt lat="31.0520419" lon="35.2351128">
<ele>399.570007</ele>
<time>2012-03-09T07:42:26.000Z</time>
</trkpt>
<trkpt lat="31.0520472" lon="35.2351250">
<ele>399.080017</ele>
<time>2012-03-09T07:42:27.000Z</time>
</trkpt>
<trkpt lat="31.0520511" lon="35.2351381">
<ele>399.570007</ele>
<time>2012-03-09T07:42:28.000Z</time>
</trkpt>
<trkpt lat="31.0520531" lon="35.2351526">
<ele>399.570007</ele>
<time>2012-03-09T07:42:29.000Z</time>
</trkpt>
<trkpt lat="31.0520803" lon="35.2352626">
<ele>400.529999</ele>
<time>2012-03-09T07:42:37.000Z</time>
</trkpt>
<trkpt lat="31.0520841" lon="35.2352758">
<ele>400.529999</ele>
<time>2012-03-09T07:42:38.000Z</time>
</trkpt>
<trkpt lat="31.0520856" lon="35.2352911">
<ele>400.529999</ele>
<time>2012-03-09T07:42:39.000Z</time>
</trkpt>
<trkpt lat="31.0520910" lon="35.2353068">
<ele>401.010010</ele>
<time>2012-03-09T07:42:40.000Z</time>
</trkpt>
<trkpt lat="31.0520927" lon="35.2353226">
<ele>401.010010</ele>
<time>2012-03-09T07:42:41.000Z</time>
</trkpt>
<trkpt lat="31.0520896" lon="35.2353369">
<ele>401.489990</ele>
<time>2012-03-09T07:42:42.000Z</time>
</trkpt>
<trkpt lat="31.0520887" lon="35.2353498">
<ele>401.010010</ele>
<time>2012-03-09T07:42:43.000Z</time>
</trkpt>
<trkpt lat="31.0520912" lon="35.2353644">
<ele>401.010010</ele>
<time>2012-03-09T07:42:44.000Z</time>
</trkpt>
<trkpt lat="31.0521480" lon="35.2356917">
<ele>402.450012</ele>
<time>2012-03-09T07:43:01.000Z</time>
</trkpt>
<trkpt lat="31.0520762" lon="35.2360461">
<ele>401.970001</ele>
<time>2012-03-09T07:43:13.000Z</time>
</trkpt>
<trkpt lat="31.0520396" lon="35.2362492">
<ele>402.930023</ele>
<time>2012-03-09T07:43:23.000Z</time>
</trkpt>
<trkpt lat="31.0520406" lon="35.2362688">
<ele>403.410004</ele>
<time>2012-03-09T07:43:24.000Z</time>
</trkpt>
<trkpt lat="31.0520413" lon="35.2362926">
<ele>402.930023</ele>
<time>2012-03-09T07:43:25.000Z</time>
</trkpt>
<trkpt lat="31.0520408" lon="35.2363180">
<ele>403.410004</ele>
<time>2012-03-09T07:43:26.000Z</time>
</trkpt>
<trkpt lat="31.0520343" lon="35.2363403">
<ele>403.410004</ele>
<time>2012-03-09T07:43:27.000Z</time>
</trkpt>
<trkpt lat="31.0520268" lon="35.2363605">
<ele>403.889984</ele>
<time>2012-03-09T07:43:28.000Z</time>
</trkpt>
<trkpt lat="31.0520262" lon="35.2363799">
<ele>403.410004</ele>
<time>2012-03-09T07:43:29.000Z</time>
</trkpt>
<trkpt lat="31.0520269" lon="35.2364009">
<ele>403.889984</ele>
<time>2012-03-09T07:43:30.000Z</time>
</trkpt>
<trkpt lat="31.0520269" lon="35.2364208">
<ele>403.889984</ele>
<time>2012-03-09T07:43:31.000Z</time>
</trkpt>
<trkpt lat="31.0519657" lon="35.2367259">
<ele>404.850006</ele>
<time>2012-03-09T07:43:46.000Z</time>
</trkpt>
<trkpt lat="31.0519256" lon="35.2369736">
<ele>405.809998</ele>
<time>2012-03-09T07:43:58.000Z</time>
</trkpt>
<trkpt lat="31.0518753" lon="35.2372375">
<ele>406.769989</ele>
<time>2012-03-09T07:44:11.000Z</time>
</trkpt>
<trkpt lat="31.0518355" lon="35.2375897">
<ele>407.739990</ele>
<time>2012-03-09T07:44:27.000Z</time>
</trkpt>
<trkpt lat="31.0518482" lon="35.2379509">
<ele>410.619995</ele>
<time>2012-03-09T07:44:45.000Z</time>
</trkpt>
<trkpt lat="31.0518931" lon="35.2381932">
<ele>411.100006</ele>
<time>2012-03-09T07:44:58.000Z</time>
</trkpt>
<trkpt lat="31.0519347" lon="35.2385405">
<ele>412.059998</ele>
<time>2012-03-09T07:45:14.000Z</time>
</trkpt>
<trkpt lat="31.0519281" lon="35.2388830">
<ele>411.100006</ele>
<time>2012-03-09T07:45:27.000Z</time>
</trkpt>
<trkpt lat="31.0517994" lon="35.2393341">
<ele>409.180023</ele>
<time>2012-03-09T07:45:42.000Z</time>
</trkpt>
<trkpt lat="31.0516463" lon="35.2394095">
<ele>409.660004</ele>
<time>2012-03-09T07:45:49.000Z</time>
</trkpt>
<trkpt lat="31.0516258" lon="35.2394089">
<ele>410.139984</ele>
<time>2012-03-09T07:45:50.000Z</time>
</trkpt>
<trkpt lat="31.0513388" lon="35.2393355">
<ele>410.619995</ele>
<time>2012-03-09T07:46:04.000Z</time>
</trkpt>
<trkpt lat="31.0511143" lon="35.2391619">
<ele>411.580017</ele>
<time>2012-03-09T07:46:18.000Z</time>
</trkpt>
<trkpt lat="31.0508844" lon="35.2390336">
<ele>414.470001</ele>
<time>2012-03-09T07:46:32.000Z</time>
</trkpt>
<trkpt lat="31.0507094" lon="35.2390647">
<ele>415.910004</ele>
<time>2012-03-09T07:46:42.000Z</time>
</trkpt>
<trkpt lat="31.0506982" lon="35.2390757">
<ele>415.430023</ele>
<time>2012-03-09T07:46:43.000Z</time>
</trkpt>
<trkpt lat="31.0506880" lon="35.2390836">
<ele>415.430023</ele>
<time>2012-03-09T07:46:44.000Z</time>
</trkpt>
<trkpt lat="31.0506772" lon="35.2390906">
<ele>415.430023</ele>
<time>2012-03-09T07:46:45.000Z</time>
</trkpt>
<trkpt lat="31.0506753" lon="35.2390884">
<ele>415.910004</ele>
<time>2012-03-09T07:46:55.000Z</time>
</trkpt>
<trkpt lat="31.0506809" lon="35.2391020">
<ele>416.389984</ele>
<time>2012-03-09T07:47:16.000Z</time>
</trkpt>
<trkpt lat="31.0506901" lon="35.2391047">
<ele>416.389984</ele>
<time>2012-03-09T07:47:44.000Z</time>
</trkpt>
<trkpt lat="31.0506939" lon="35.2391068">
<ele>415.910004</ele>
<time>2012-03-09T07:48:05.000Z</time>
</trkpt>
<trkpt lat="31.0506858" lon="35.2391064">
<ele>415.910004</ele>
<time>2012-03-09T07:48:34.000Z</time>
</trkpt>
<trkpt lat="31.0506774" lon="35.2391136">
<ele>415.910004</ele>
<time>2012-03-09T07:48:40.000Z</time>
</trkpt>
<trkpt lat="31.0506680" lon="35.2391288">
<ele>415.910004</ele>
<time>2012-03-09T07:48:41.000Z</time>
</trkpt>
<trkpt lat="31.0506578" lon="35.2391447">
<ele>416.389984</ele>
<time>2012-03-09T07:48:42.000Z</time>
</trkpt>
<trkpt lat="31.0506462" lon="35.2391629">
<ele>416.389984</ele>
<time>2012-03-09T07:48:43.000Z</time>
</trkpt>
<trkpt lat="31.0506350" lon="35.2391840">
<ele>416.389984</ele>
<time>2012-03-09T07:48:44.000Z</time>
</trkpt>
<trkpt lat="31.0505007" lon="35.2395779">
<ele>416.869995</ele>
<time>2012-03-09T07:48:59.000Z</time>
</trkpt>
<trkpt lat="31.0503707" lon="35.2398749">
<ele>416.389984</ele>
<time>2012-03-09T07:49:12.000Z</time>
</trkpt>
<trkpt lat="31.0501415" lon="35.2400021">
<ele>417.350006</ele>
<time>2012-03-09T07:49:26.000Z</time>
</trkpt>
<trkpt lat="31.0500039" lon="35.2400684">
<ele>418.789978</ele>
<time>2012-03-09T07:49:35.000Z</time>
</trkpt>
<trkpt lat="31.0499815" lon="35.2400859">
<ele>419.269989</ele>
<time>2012-03-09T07:49:38.000Z</time>
</trkpt>
<trkpt lat="31.0499695" lon="35.2400896">
<ele>419.269989</ele>
<time>2012-03-09T07:49:39.000Z</time>
</trkpt>
<trkpt lat="31.0499555" lon="35.2400909">
<ele>418.789978</ele>
<time>2012-03-09T07:49:40.000Z</time>
</trkpt>
<trkpt lat="31.0499404" lon="35.2400905">
<ele>419.269989</ele>
<time>2012-03-09T07:49:41.000Z</time>
</trkpt>
<trkpt lat="31.0499259" lon="35.2400955">
<ele>419.269989</ele>
<time>2012-03-09T07:49:42.000Z</time>
</trkpt>
<trkpt lat="31.0499126" lon="35.2401011">
<ele>418.789978</ele>
<time>2012-03-09T07:49:43.000Z</time>
</trkpt>
<trkpt lat="31.0498975" lon="35.2401054">
<ele>419.269989</ele>
<time>2012-03-09T07:49:44.000Z</time>
</trkpt>
<trkpt lat="31.0498828" lon="35.2401104">
<ele>419.269989</ele>
<time>2012-03-09T07:49:45.000Z</time>
</trkpt>
<trkpt lat="31.0498687" lon="35.2401156">
<ele>419.269989</ele>
<time>2012-03-09T07:49:46.000Z</time>
</trkpt>
<trkpt lat="31.0498551" lon="35.2401249">
<ele>419.750000</ele>
<time>2012-03-09T07:49:47.000Z</time>
</trkpt>
<trkpt lat="31.0497406" lon="35.2401826">
<ele>420.709991</ele>
<time>2012-03-09T07:49:55.000Z</time>
</trkpt>
<trkpt lat="31.0497260" lon="35.2401892">
<ele>420.709991</ele>
<time>2012-03-09T07:49:56.000Z</time>
</trkpt>
<trkpt lat="31.0497131" lon="35.2402000">
<ele>420.709991</ele>
<time>2012-03-09T07:49:57.000Z</time>
</trkpt>
<trkpt lat="31.0495075" lon="35.2404347">
<ele>421.680023</ele>
<time>2012-03-09T07:50:14.000Z</time>
</trkpt>
<trkpt lat="31.0492765" lon="35.2407316">
<ele>422.160004</ele>
<time>2012-03-09T07:50:31.000Z</time>
</trkpt>
<trkpt lat="31.0490667" lon="35.2410080">
<ele>422.639984</ele>
<time>2012-03-09T07:50:45.000Z</time>
</trkpt>
<trkpt lat="31.0488750" lon="35.2412769">
<ele>422.639984</ele>
<time>2012-03-09T07:50:57.000Z</time>
</trkpt>
<trkpt lat="31.0486869" lon="35.2414769">
<ele>423.119995</ele>
<time>2012-03-09T07:51:09.000Z</time>
</trkpt>
<trkpt lat="31.0485155" lon="35.2417811">
<ele>422.639984</ele>
<time>2012-03-09T07:51:23.000Z</time>
</trkpt>
<trkpt lat="31.0483537" lon="35.2419430">
<ele>422.639984</ele>
<time>2012-03-09T07:51:34.000Z</time>
</trkpt>
<trkpt lat="31.0480322" lon="35.2419099">
<ele>423.600006</ele>
<time>2012-03-09T07:51:48.000Z</time>
</trkpt>
<trkpt lat="31.0478797" lon="35.2418763">
<ele>424.559998</ele>
<time>2012-03-09T07:51:56.000Z</time>
</trkpt>
<trkpt lat="31.0478605" lon="35.2418769">
<ele>425.039978</ele>
<time>2012-03-09T07:51:57.000Z</time>
</trkpt>
<trkpt lat="31.0478397" lon="35.2418773">
<ele>425.039978</ele>
<time>2012-03-09T07:51:58.000Z</time>
</trkpt>
<trkpt lat="31.0478208" lon="35.2418772">
<ele>425.039978</ele>
<time>2012-03-09T07:51:59.000Z</time>
</trkpt>
<trkpt lat="31.0478022" lon="35.2418758">
<ele>425.039978</ele>
<time>2012-03-09T07:52:00.000Z</time>
</trkpt>
<trkpt lat="31.0477841" lon="35.2418742">
<ele>425.039978</ele>
<time>2012-03-09T07:52:01.000Z</time>
</trkpt>
<trkpt lat="31.0474949" lon="35.2418727">
<ele>426.480011</ele>
<time>2012-03-09T07:52:17.000Z</time>
</trkpt>
<trkpt lat="31.0472251" lon="35.2419279">
<ele>426.959991</ele>
<time>2012-03-09T07:52:31.000Z</time>
</trkpt>
<trkpt lat="31.0470360" lon="35.2421907">
<ele>428.399994</ele>
<time>2012-03-09T07:52:47.000Z</time>
</trkpt>
<trkpt lat="31.0470165" lon="35.2423300">
<ele>429.369995</ele>
<time>2012-03-09T07:52:54.000Z</time>
</trkpt>
<trkpt lat="31.0470169" lon="35.2423440">
<ele>429.369995</ele>
<time>2012-03-09T07:53:07.000Z</time>
</trkpt>
<trkpt lat="31.0470163" lon="35.2423491">
<ele>429.369995</ele>
<time>2012-03-09T07:53:34.000Z</time>
</trkpt>
<trkpt lat="31.0470197" lon="35.2423552">
<ele>429.369995</ele>
<time>2012-03-09T07:54:00.000Z</time>
</trkpt>
<trkpt lat="31.0470250" lon="35.2423668">
<ele>429.369995</ele>
<time>2012-03-09T07:54:01.000Z</time>
</trkpt>
<trkpt lat="31.0470320" lon="35.2423799">
<ele>429.369995</ele>
<time>2012-03-09T07:54:02.000Z</time>
</trkpt>
<trkpt lat="31.0470620" lon="35.2425446">
<ele>430.809998</ele>
<time>2012-03-09T07:54:12.000Z</time>
</trkpt>
<trkpt lat="31.0470683" lon="35.2425577">
<ele>431.289978</ele>
<time>2012-03-09T07:54:13.000Z</time>
</trkpt>
<trkpt lat="31.0471205" lon="35.2426331">
<ele>432.730011</ele>
<time>2012-03-09T07:54:19.000Z</time>
</trkpt>
<trkpt lat="31.0471303" lon="35.2426437">
<ele>432.730011</ele>
<time>2012-03-09T07:54:20.000Z</time>
</trkpt>
<trkpt lat="31.0471394" lon="35.2426559">
<ele>432.730011</ele>
<time>2012-03-09T07:54:21.000Z</time>
</trkpt>
<trkpt lat="31.0471495" lon="35.2426676">
<ele>432.730011</ele>
<time>2012-03-09T07:54:22.000Z</time>
</trkpt>
<trkpt lat="31.0471568" lon="35.2426828">
<ele>432.730011</ele>
<time>2012-03-09T07:54:23.000Z</time>
</trkpt>
<trkpt lat="31.0471630" lon="35.2426989">
<ele>433.209991</ele>
<time>2012-03-09T07:54:24.000Z</time>
</trkpt>
<trkpt lat="31.0471253" lon="35.2429177">
<ele>433.690002</ele>
<time>2012-03-09T07:54:37.000Z</time>
</trkpt>
<trkpt lat="31.0471044" lon="35.2429764">
<ele>434.170013</ele>
<time>2012-03-09T07:54:41.000Z</time>
</trkpt>
<trkpt lat="31.0470967" lon="35.2429900">
<ele>434.649994</ele>
<time>2012-03-09T07:54:42.000Z</time>
</trkpt>
<trkpt lat="31.0470897" lon="35.2430061">
<ele>434.649994</ele>
<time>2012-03-09T07:54:43.000Z</time>
</trkpt>
<trkpt lat="31.0470050" lon="35.2432314">
<ele>436.100006</ele>
<time>2012-03-09T07:54:58.000Z</time>
</trkpt>
<trkpt lat="31.0470055" lon="35.2432482">
<ele>435.609985</ele>
<time>2012-03-09T07:54:59.000Z</time>
</trkpt>
<trkpt lat="31.0469920" lon="35.2435268">
<ele>437.539978</ele>
<time>2012-03-09T07:55:16.000Z</time>
</trkpt>
<trkpt lat="31.0469933" lon="35.2435437">
<ele>438.019989</ele>
<time>2012-03-09T07:55:17.000Z</time>
</trkpt>
<trkpt lat="31.0469914" lon="35.2435593">
<ele>438.019989</ele>
<time>2012-03-09T07:55:18.000Z</time>
</trkpt>
<trkpt lat="31.0469910" lon="35.2435751">
<ele>438.019989</ele>
<time>2012-03-09T07:55:19.000Z</time>
</trkpt>
<trkpt lat="31.0469913" lon="35.2435930">
<ele>438.019989</ele>
<time>2012-03-09T07:55:20.000Z</time>
</trkpt>
<trkpt lat="31.0469927" lon="35.2436069">
<ele>438.500000</ele>
<time>2012-03-09T07:55:21.000Z</time>
</trkpt>
<trkpt lat="31.0469915" lon="35.2436220">
<ele>438.500000</ele>
<time>2012-03-09T07:55:22.000Z</time>
</trkpt>
<trkpt lat="31.0469897" lon="35.2436379">
<ele>438.500000</ele>
<time>2012-03-09T07:55:23.000Z</time>
</trkpt>
<trkpt lat="31.0469931" lon="35.2436525">
<ele>438.980011</ele>
<time>2012-03-09T07:55:24.000Z</time>
</trkpt>
<trkpt lat="31.0469982" lon="35.2436684">
<ele>438.980011</ele>
<time>2012-03-09T07:55:25.000Z</time>
</trkpt>
<trkpt lat="31.0470019" lon="35.2436869">
<ele>439.459991</ele>
<time>2012-03-09T07:55:26.000Z</time>
</trkpt>
<trkpt lat="31.0470038" lon="35.2437038">
<ele>439.459991</ele>
<time>2012-03-09T07:55:27.000Z</time>
</trkpt>
<trkpt lat="31.0470013" lon="35.2437426">
<ele>440.899994</ele>
<time>2012-03-09T07:55:36.000Z</time>
</trkpt>
<trkpt lat="31.0470144" lon="35.2438529">
<ele>442.820007</ele>
<time>2012-03-09T07:55:50.000Z</time>
</trkpt>
<trkpt lat="31.0470050" lon="35.2439152">
<ele>444.269989</ele>
<time>2012-03-09T07:55:57.000Z</time>
</trkpt>
<trkpt lat="31.0470095" lon="35.2439365">
<ele>444.750000</ele>
<time>2012-03-09T07:56:11.000Z</time>
</trkpt>
<trkpt lat="31.0469935" lon="35.2439238">
<ele>444.750000</ele>
<time>2012-03-09T07:56:21.000Z</time>
</trkpt>
<trkpt lat="31.0469755" lon="35.2439418">
<ele>445.709991</ele>
<time>2012-03-09T07:56:27.000Z</time>
</trkpt>
<trkpt lat="31.0469385" lon="35.2439954">
<ele>446.670013</ele>
<time>2012-03-09T07:56:37.000Z</time>
</trkpt>
<trkpt lat="31.0469285" lon="35.2440426">
<ele>447.630005</ele>
<time>2012-03-09T07:56:46.000Z</time>
</trkpt>
<trkpt lat="31.0469268" lon="35.2440565">
<ele>448.109985</ele>
<time>2012-03-09T07:56:47.000Z</time>
</trkpt>
<trkpt lat="31.0468936" lon="35.2440894">
<ele>449.550018</ele>
<time>2012-03-09T07:56:55.000Z</time>
</trkpt>
<trkpt lat="31.0468765" lon="35.2441343">
<ele>451.000000</ele>
<time>2012-03-09T07:57:03.000Z</time>
</trkpt>
<trkpt lat="31.0468542" lon="35.2441696">
<ele>450.519989</ele>
<time>2012-03-09T07:57:12.000Z</time>
</trkpt>
<trkpt lat="31.0468480" lon="35.2441768">
<ele>451.000000</ele>
<time>2012-03-09T07:57:31.000Z</time>
</trkpt>
<trkpt lat="31.0468463" lon="35.2441762">
<ele>451.000000</ele>
<time>2012-03-09T07:57:35.000Z</time>
</trkpt>
<trkpt lat="31.0468502" lon="35.2441845">
<ele>451.000000</ele>
<time>2012-03-09T07:57:36.000Z</time>
</trkpt>
<trkpt lat="31.0468356" lon="35.2442037">
<ele>451.000000</ele>
<time>2012-03-09T07:57:46.000Z</time>
</trkpt>
<trkpt lat="31.0468340" lon="35.2442051">
<ele>450.519989</ele>
<time>2012-03-09T07:57:47.000Z</time>
</trkpt>
<trkpt lat="31.0468100" lon="35.2442317">
<ele>451.959991</ele>
<time>2012-03-09T07:57:57.000Z</time>
</trkpt>
<trkpt lat="31.0467837" lon="35.2442506">
<ele>452.440002</ele>
<time>2012-03-09T07:58:01.000Z</time>
</trkpt>
<trkpt lat="31.0467742" lon="35.2442741">
<ele>452.440002</ele>
<time>2012-03-09T07:58:04.000Z</time>
</trkpt>
<trkpt lat="31.0467593" lon="35.2443109">
<ele>452.920013</ele>
<time>2012-03-09T07:58:08.000Z</time>
</trkpt>
<trkpt lat="31.0467550" lon="35.2443809">
<ele>454.839996</ele>
<time>2012-03-09T07:58:19.000Z</time>
</trkpt>
<trkpt lat="31.0468587" lon="35.2444104">
<ele>457.239990</ele>
<time>2012-03-09T07:58:35.000Z</time>
</trkpt>
<trkpt lat="31.0468653" lon="35.2444138">
<ele>457.720001</ele>
<time>2012-03-09T07:58:37.000Z</time>
</trkpt>
<trkpt lat="31.0468675" lon="35.2444203">
<ele>457.239990</ele>
<time>2012-03-09T07:58:51.000Z</time>
</trkpt>
<trkpt lat="31.0468572" lon="35.2444340">
<ele>458.209991</ele>
<time>2012-03-09T07:58:53.000Z</time>
</trkpt>
<trkpt lat="31.0468253" lon="35.2444533">
<ele>458.690002</ele>
<time>2012-03-09T07:58:56.000Z</time>
</trkpt>
<trkpt lat="31.0467972" lon="35.2444919">
<ele>458.690002</ele>
<time>2012-03-09T07:59:10.000Z</time>
</trkpt>
<trkpt lat="31.0467796" lon="35.2444781">
<ele>459.649994</ele>
<time>2012-03-09T07:59:24.000Z</time>
</trkpt>
<trkpt lat="31.0467746" lon="35.2445290">
<ele>460.609985</ele>
<time>2012-03-09T07:59:32.000Z</time>
</trkpt>
<trkpt lat="31.0467576" lon="35.2445520">
<ele>461.570007</ele>
<time>2012-03-09T07:59:36.000Z</time>
</trkpt>
<trkpt lat="31.0467641" lon="35.2445988">
<ele>463.970001</ele>
<time>2012-03-09T07:59:48.000Z</time>
</trkpt>
<trkpt lat="31.0467667" lon="35.2446616">
<ele>463.489990</ele>
<time>2012-03-09T08:00:00.000Z</time>
</trkpt>
<trkpt lat="31.0467729" lon="35.2447486">
<ele>463.489990</ele>
<time>2012-03-09T08:00:13.000Z</time>
</trkpt>
<trkpt lat="31.0468059" lon="35.2448135">
<ele>464.929993</ele>
<time>2012-03-09T08:00:35.000Z</time>
</trkpt>
<trkpt lat="31.0467965" lon="35.2448277">
<ele>463.489990</ele>
<time>2012-03-09T08:00:53.000Z</time>
</trkpt>
<trkpt lat="31.0467786" lon="35.2448111">
<ele>464.450012</ele>
<time>2012-03-09T08:01:09.000Z</time>
</trkpt>
<trkpt lat="31.0467439" lon="35.2447981">
<ele>463.970001</ele>
<time>2012-03-09T08:01:27.000Z</time>
</trkpt>
<trkpt lat="31.0467014" lon="35.2447469">
<ele>464.450012</ele>
<time>2012-03-09T08:01:38.000Z</time>
</trkpt>
<trkpt lat="31.0467040" lon="35.2447302">
<ele>464.450012</ele>
<time>2012-03-09T08:01:55.000Z</time>
</trkpt>
<trkpt lat="31.0467062" lon="35.2447213">
<ele>464.450012</ele>
<time>2012-03-09T08:02:14.000Z</time>
</trkpt>
<trkpt lat="31.0467263" lon="35.2447247">
<ele>463.970001</ele>
<time>2012-03-09T08:02:25.000Z</time>
</trkpt>
<trkpt lat="31.0467383" lon="35.2447521">
<ele>464.450012</ele>
<time>2012-03-09T08:02:41.000Z</time>
</trkpt>
<trkpt lat="31.0467672" lon="35.2447707">
<ele>463.970001</ele>
<time>2012-03-09T08:03:06.000Z</time>
</trkpt>
<trkpt lat="31.0467835" lon="35.2448003">
<ele>464.450012</ele>
<time>2012-03-09T08:03:19.000Z</time>
</trkpt>
<trkpt lat="31.0467776" lon="35.2447977">
<ele>463.970001</ele>
<time>2012-03-09T08:03:47.000Z</time>
</trkpt>
<trkpt lat="31.0467558" lon="35.2447981">
<ele>464.450012</ele>
<time>2012-03-09T08:04:02.000Z</time>
</trkpt>
<trkpt lat="31.0467354" lon="35.2448086">
<ele>464.450012</ele>
<time>2012-03-09T08:04:32.000Z</time>
</trkpt>
<trkpt lat="31.0467340" lon="35.2448116">
<ele>464.450012</ele>
<time>2012-03-09T08:04:50.000Z</time>
</trkpt>
<trkpt lat="31.0467377" lon="35.2448133">
<ele>464.450012</ele>
<time>2012-03-09T08:05:05.000Z</time>
</trkpt>
<trkpt lat="31.0467429" lon="35.2448128">
<ele>463.970001</ele>
<time>2012-03-09T08:05:36.000Z</time>
</trkpt>
<trkpt lat="31.0467461" lon="35.2448133">
<ele>463.970001</ele>
<time>2012-03-09T08:05:59.000Z</time>
</trkpt>
<trkpt lat="31.0467498" lon="35.2448096">
<ele>464.450012</ele>
<time>2012-03-09T08:06:19.000Z</time>
</trkpt>
<trkpt lat="31.0467445" lon="35.2448093">
<ele>464.450012</ele>
<time>2012-03-09T08:06:46.000Z</time>
</trkpt>
<trkpt lat="31.0467436" lon="35.2448081">
<ele>464.929993</ele>
<time>2012-03-09T08:07:00.000Z</time>
</trkpt>
<trkpt lat="31.0467438" lon="35.2448084">
<ele>464.450012</ele>
<time>2012-03-09T08:07:23.000Z</time>
</trkpt>
<trkpt lat="31.0467456" lon="35.2448095">
<ele>464.450012</ele>
<time>2012-03-09T08:07:52.000Z</time>
</trkpt>
<trkpt lat="31.0467500" lon="35.2448118">
<ele>464.450012</ele>
<time>2012-03-09T08:08:04.000Z</time>
</trkpt>
<trkpt lat="31.0467506" lon="35.2448160">
<ele>464.929993</ele>
<time>2012-03-09T08:08:36.000Z</time>
</trkpt>
<trkpt lat="31.0467483" lon="35.2448160">
<ele>464.450012</ele>
<time>2012-03-09T08:09:05.000Z</time>
</trkpt>
<trkpt lat="31.0467470" lon="35.2448139">
<ele>464.929993</ele>
<time>2012-03-09T08:09:35.000Z</time>
</trkpt>
<trkpt lat="31.0467458" lon="35.2448117">
<ele>464.929993</ele>
<time>2012-03-09T08:10:01.000Z</time>
</trkpt>
<trkpt lat="31.0467447" lon="35.2448118">
<ele>464.929993</ele>
<time>2012-03-09T08:10:32.000Z</time>
</trkpt>
<trkpt lat="31.0467490" lon="35.2448151">
<ele>464.929993</ele>
<time>2012-03-09T08:10:52.000Z</time>
</trkpt>
<trkpt lat="31.0467480" lon="35.2448133">
<ele>464.929993</ele>
<time>2012-03-09T08:11:17.000Z</time>
</trkpt>
<trkpt lat="31.0467430" lon="35.2448212">
<ele>464.929993</ele>
<time>2012-03-09T08:11:39.000Z</time>
</trkpt>
<trkpt lat="31.0467392" lon="35.2448065">
<ele>464.929993</ele>
<time>2012-03-09T08:11:56.000Z</time>
</trkpt>
<trkpt lat="31.0467335" lon="35.2447859">
<ele>464.450012</ele>
<time>2012-03-09T08:12:10.000Z</time>
</trkpt>
<trkpt lat="31.0467521" lon="35.2447132">
<ele>464.929993</ele>
<time>2012-03-09T08:12:23.000Z</time>
</trkpt>
<trkpt lat="31.0467713" lon="35.2446449">
<ele>464.450012</ele>
<time>2012-03-09T08:12:38.000Z</time>
</trkpt>
<trkpt lat="31.0467685" lon="35.2445502">
<ele>464.450012</ele>
<time>2012-03-09T08:12:52.000Z</time>
</trkpt>
<trkpt lat="31.0467666" lon="35.2445222">
<ele>463.489990</ele>
<time>2012-03-09T08:13:08.000Z</time>
</trkpt>
<trkpt lat="31.0467629" lon="35.2445083">
<ele>463.009979</ele>
<time>2012-03-09T08:13:20.000Z</time>
</trkpt>
<trkpt lat="31.0467772" lon="35.2445223">
<ele>463.009979</ele>
<time>2012-03-09T08:13:46.000Z</time>
</trkpt>
<trkpt lat="31.0467699" lon="35.2444725">
<ele>461.089996</ele>
<time>2012-03-09T08:13:58.000Z</time>
</trkpt>
<trkpt lat="31.0468320" lon="35.2444202">
<ele>459.649994</ele>
<time>2012-03-09T08:14:14.000Z</time>
</trkpt>
<trkpt lat="31.0468046" lon="35.2443766">
<ele>458.690002</ele>
<time>2012-03-09T08:14:28.000Z</time>
</trkpt>
<trkpt lat="31.0467980" lon="35.2443679">
<ele>457.239990</ele>
<time>2012-03-09T08:14:38.000Z</time>
</trkpt>
<trkpt lat="31.0467996" lon="35.2443812">
<ele>457.720001</ele>
<time>2012-03-09T08:14:51.000Z</time>
</trkpt>
<trkpt lat="31.0467980" lon="35.2443731">
<ele>457.239990</ele>
<time>2012-03-09T08:15:08.000Z</time>
</trkpt>
<trkpt lat="31.0467752" lon="35.2443508">
<ele>457.720001</ele>
<time>2012-03-09T08:15:35.000Z</time>
</trkpt>
<trkpt lat="31.0467210" lon="35.2443039">
<ele>455.320007</ele>
<time>2012-03-09T08:15:46.000Z</time>
</trkpt>
<trkpt lat="31.0467821" lon="35.2442536">
<ele>454.359985</ele>
<time>2012-03-09T08:16:00.000Z</time>
</trkpt>
<trkpt lat="31.0468525" lon="35.2442043">
<ele>452.440002</ele>
<time>2012-03-09T08:16:11.000Z</time>
</trkpt>
<trkpt lat="31.0468910" lon="35.2441201">
<ele>450.519989</ele>
<time>2012-03-09T08:16:25.000Z</time>
</trkpt>
<trkpt lat="31.0469450" lon="35.2440400">
<ele>447.149994</ele>
<time>2012-03-09T08:16:38.000Z</time>
</trkpt>
<trkpt lat="31.0469937" lon="35.2439765">
<ele>446.670013</ele>
<time>2012-03-09T08:16:50.000Z</time>
</trkpt>
<trkpt lat="31.0470122" lon="35.2439508">
<ele>444.750000</ele>
<time>2012-03-09T08:17:01.000Z</time>
</trkpt>
<trkpt lat="31.0470067" lon="35.2439457">
<ele>446.190002</ele>
<time>2012-03-09T08:17:07.000Z</time>
</trkpt>
<trkpt lat="31.0470057" lon="35.2439342">
<ele>445.230011</ele>
<time>2012-03-09T08:17:23.000Z</time>
</trkpt>
<trkpt lat="31.0470100" lon="35.2439178">
<ele>444.750000</ele>
<time>2012-03-09T08:17:37.000Z</time>
</trkpt>
<trkpt lat="31.0470234" lon="35.2438887">
<ele>444.750000</ele>
<time>2012-03-09T08:17:49.000Z</time>
</trkpt>
<trkpt lat="31.0470244" lon="35.2438846">
<ele>444.269989</ele>
<time>2012-03-09T08:17:55.000Z</time>
</trkpt>
<trkpt lat="31.0470055" lon="35.2437765">
<ele>442.339996</ele>
<time>2012-03-09T08:18:02.000Z</time>
</trkpt>
<trkpt lat="31.0469983" lon="35.2435463">
<ele>438.980011</ele>
<time>2012-03-09T08:18:11.000Z</time>
</trkpt>
<trkpt lat="31.0470120" lon="35.2431936">
<ele>437.059998</ele>
<time>2012-03-09T08:18:24.000Z</time>
</trkpt>
<trkpt lat="31.0470262" lon="35.2431466">
<ele>437.059998</ele>
<time>2012-03-09T08:18:25.000Z</time>
</trkpt>
<trkpt lat="31.0470443" lon="35.2430991">
<ele>436.580017</ele>
<time>2012-03-09T08:18:26.000Z</time>
</trkpt>
<trkpt lat="31.0470857" lon="35.2430004">
<ele>436.580017</ele>
<time>2012-03-09T08:18:28.000Z</time>
</trkpt>
<trkpt lat="31.0471284" lon="35.2428943">
<ele>435.609985</ele>
<time>2012-03-09T08:18:30.000Z</time>
</trkpt>
<trkpt lat="31.0471425" lon="35.2428361">
<ele>435.130005</ele>
<time>2012-03-09T08:18:31.000Z</time>
</trkpt>
<trkpt lat="31.0471578" lon="35.2427824">
<ele>434.649994</ele>
<time>2012-03-09T08:18:32.000Z</time>
</trkpt>
<trkpt lat="31.0471680" lon="35.2427350">
<ele>434.649994</ele>
<time>2012-03-09T08:18:33.000Z</time>
</trkpt>
<trkpt lat="31.0471625" lon="35.2426942">
<ele>433.690002</ele>
<time>2012-03-09T08:18:34.000Z</time>
</trkpt>
<trkpt lat="31.0471454" lon="35.2426635">
<ele>433.209991</ele>
<time>2012-03-09T08:18:35.000Z</time>
</trkpt>
<trkpt lat="31.0471220" lon="35.2426320">
<ele>433.209991</ele>
<time>2012-03-09T08:18:36.000Z</time>
</trkpt>
<trkpt lat="31.0470533" lon="35.2423337">
<ele>430.809998</ele>
<time>2012-03-09T08:18:42.000Z</time>
</trkpt>
<trkpt lat="31.0470511" lon="35.2422912">
<ele>430.330017</ele>
<time>2012-03-09T08:18:43.000Z</time>
</trkpt>
<trkpt lat="31.0470416" lon="35.2422727">
<ele>429.850006</ele>
<time>2012-03-09T08:18:44.000Z</time>
</trkpt>
<trkpt lat="31.0470286" lon="35.2422674">
<ele>429.369995</ele>
<time>2012-03-09T08:18:52.000Z</time>
</trkpt>
<trkpt lat="31.0470259" lon="35.2422506">
<ele>429.850006</ele>
<time>2012-03-09T08:19:22.000Z</time>
</trkpt>
<trkpt lat="31.0470267" lon="35.2422470">
<ele>429.850006</ele>
<time>2012-03-09T08:19:54.000Z</time>
</trkpt>
<trkpt lat="31.0470164" lon="35.2422415">
<ele>429.850006</ele>
<time>2012-03-09T08:20:05.000Z</time>
</trkpt>
<trkpt lat="31.0470019" lon="35.2422280">
<ele>429.850006</ele>
<time>2012-03-09T08:20:06.000Z</time>
</trkpt>
<trkpt lat="31.0469910" lon="35.2422094">
<ele>429.369995</ele>
<time>2012-03-09T08:20:07.000Z</time>
</trkpt>
<trkpt lat="31.0469771" lon="35.2421889">
<ele>428.889984</ele>
<time>2012-03-09T08:20:08.000Z</time>
</trkpt>
<trkpt lat="31.0469578" lon="35.2421705">
<ele>429.369995</ele>
<time>2012-03-09T08:20:09.000Z</time>
</trkpt>
<trkpt lat="31.0469350" lon="35.2421535">
<ele>429.369995</ele>
<time>2012-03-09T08:20:10.000Z</time>
</trkpt>
<trkpt lat="31.0469113" lon="35.2421376">
<ele>429.369995</ele>
<time>2012-03-09T08:20:11.000Z</time>
</trkpt>
<trkpt lat="31.0466446" lon="35.2419845">
<ele>428.399994</ele>
<time>2012-03-09T08:20:21.000Z</time>
</trkpt>
<trkpt lat="31.0462502" lon="35.2421083">
<ele>427.920013</ele>
<time>2012-03-09T08:20:35.000Z</time>
</trkpt>
<trkpt lat="31.0462167" lon="35.2421228">
<ele>427.440002</ele>
<time>2012-03-09T08:20:36.000Z</time>
</trkpt>
<trkpt lat="31.0460992" lon="35.2421643">
<ele>427.440002</ele>
<time>2012-03-09T08:20:39.000Z</time>
</trkpt>
<trkpt lat="31.0459212" lon="35.2422915">
<ele>426.959991</ele>
<time>2012-03-09T08:20:44.000Z</time>
</trkpt>
<trkpt lat="31.0454874" lon="35.2428400">
<ele>426.000000</ele>
<time>2012-03-09T08:20:59.000Z</time>
</trkpt>
<trkpt lat="31.0453402" lon="35.2429911">
<ele>425.519989</ele>
<time>2012-03-09T08:21:03.000Z</time>
</trkpt>
<trkpt lat="31.0451976" lon="35.2431556">
<ele>426.000000</ele>
<time>2012-03-09T08:21:07.000Z</time>
</trkpt>
<trkpt lat="31.0451105" lon="35.2433050">
<ele>425.039978</ele>
<time>2012-03-09T08:21:10.000Z</time>
</trkpt>
<trkpt lat="31.0450100" lon="35.2441243">
<ele>421.680023</ele>
<time>2012-03-09T08:21:22.000Z</time>
</trkpt>
<trkpt lat="31.0450133" lon="35.2442021">
<ele>422.160004</ele>
<time>2012-03-09T08:21:23.000Z</time>
</trkpt>
<trkpt lat="31.0450121" lon="35.2444275">
<ele>419.269989</ele>
<time>2012-03-09T08:21:26.000Z</time>
</trkpt>
<trkpt lat="31.0449308" lon="35.2448961">
<ele>418.309998</ele>
<time>2012-03-09T08:21:34.000Z</time>
</trkpt>
<trkpt lat="31.0451028" lon="35.2452977">
<ele>413.980011</ele>
<time>2012-03-09T08:21:40.000Z</time>
</trkpt>
<trkpt lat="31.0451465" lon="35.2453495">
<ele>413.500000</ele>
<time>2012-03-09T08:21:41.000Z</time>
</trkpt>
<trkpt lat="31.0452786" lon="35.2456840">
<ele>416.389984</ele>
<time>2012-03-09T08:21:52.000Z</time>
</trkpt>
<trkpt lat="31.0452904" lon="35.2457309">
<ele>415.910004</ele>
<time>2012-03-09T08:21:53.000Z</time>
</trkpt>
<trkpt lat="31.0452985" lon="35.2459236">
<ele>413.019989</ele>
<time>2012-03-09T08:21:56.000Z</time>
</trkpt>
<trkpt lat="31.0452182" lon="35.2460592">
<ele>413.019989</ele>
<time>2012-03-09T08:21:59.000Z</time>
</trkpt>
<trkpt lat="31.0451493" lon="35.2461308">
<ele>412.539978</ele>
<time>2012-03-09T08:22:01.000Z</time>
</trkpt>
<trkpt lat="31.0449547" lon="35.2463950">
<ele>410.619995</ele>
<time>2012-03-09T08:22:12.000Z</time>
</trkpt>
<trkpt lat="31.0449575" lon="35.2463966">
<ele>410.619995</ele>
<time>2012-03-09T08:22:40.000Z</time>
</trkpt>
<trkpt lat="31.0449578" lon="35.2463964">
<ele>411.100006</ele>
<time>2012-03-09T08:22:48.000Z</time>
</trkpt>
<trkpt lat="31.0448673" lon="35.2467550">
<ele>408.220001</ele>
<time>2012-03-09T08:22:59.000Z</time>
</trkpt>
<trkpt lat="31.0448537" lon="35.2469766">
<ele>404.850006</ele>
<time>2012-03-09T08:23:04.000Z</time>
</trkpt>
<trkpt lat="31.0448464" lon="35.2471446">
<ele>401.970001</ele>
<time>2012-03-09T08:23:08.000Z</time>
</trkpt>
<trkpt lat="31.0448777" lon="35.2473465">
<ele>398.600006</ele>
<time>2012-03-09T08:23:11.000Z</time>
</trkpt>
<trkpt lat="31.0449746" lon="35.2476978">
<ele>393.320007</ele>
<time>2012-03-09T08:23:15.000Z</time>
</trkpt>
<trkpt lat="31.0449944" lon="35.2477984">
<ele>392.360016</ele>
<time>2012-03-09T08:23:16.000Z</time>
</trkpt>
<trkpt lat="31.0450189" lon="35.2481980">
<ele>389.950012</ele>
<time>2012-03-09T08:23:22.000Z</time>
</trkpt>
<trkpt lat="31.0450238" lon="35.2482366">
<ele>389.470001</ele>
<time>2012-03-09T08:23:35.000Z</time>
</trkpt>
<trkpt lat="31.0451344" lon="35.2485374">
<ele>386.589996</ele>
<time>2012-03-09T08:23:44.000Z</time>
</trkpt>
<trkpt lat="31.0452172" lon="35.2487154">
<ele>384.180023</ele>
<time>2012-03-09T08:23:50.000Z</time>
</trkpt>
<trkpt lat="31.0453617" lon="35.2488365">
<ele>380.820007</ele>
<time>2012-03-09T08:23:56.000Z</time>
</trkpt>
<trkpt lat="31.0454934" lon="35.2489324">
<ele>377.939972</ele>
<time>2012-03-09T08:24:00.000Z</time>
</trkpt>
<trkpt lat="31.0455810" lon="35.2489927">
<ele>376.010010</ele>
<time>2012-03-09T08:24:02.000Z</time>
</trkpt>
<trkpt lat="31.0458548" lon="35.2490322">
<ele>375.049988</ele>
<time>2012-03-09T08:24:10.000Z</time>
</trkpt>
<trkpt lat="31.0459914" lon="35.2491967">
<ele>370.239990</ele>
<time>2012-03-09T08:24:16.000Z</time>
</trkpt>
<trkpt lat="31.0460403" lon="35.2493039">
<ele>366.399994</ele>
<time>2012-03-09T08:24:19.000Z</time>
</trkpt>
<trkpt lat="31.0460578" lon="35.2494672">
<ele>363.040009</ele>
<time>2012-03-09T08:24:24.000Z</time>
</trkpt>
<trkpt lat="31.0460555" lon="35.2496292">
<ele>359.669983</ele>
<time>2012-03-09T08:24:29.000Z</time>
</trkpt>
<trkpt lat="31.0460565" lon="35.2498310">
<ele>355.339996</ele>
<time>2012-03-09T08:24:34.000Z</time>
</trkpt>
<trkpt lat="31.0460741" lon="35.2500450">
<ele>351.500000</ele>
<time>2012-03-09T08:24:38.000Z</time>
</trkpt>
<trkpt lat="31.0460897" lon="35.2502374">
<ele>348.130005</ele>
<time>2012-03-09T08:24:41.000Z</time>
</trkpt>
<trkpt lat="31.0461072" lon="35.2504198">
<ele>345.730011</ele>
<time>2012-03-09T08:24:44.000Z</time>
</trkpt>
<trkpt lat="31.0461020" lon="35.2505160">
<ele>344.769989</ele>
<time>2012-03-09T08:24:46.000Z</time>
</trkpt>
<trkpt lat="31.0460323" lon="35.2506517">
<ele>342.369995</ele>
<time>2012-03-09T08:24:49.000Z</time>
</trkpt>
<trkpt lat="31.0459945" lon="35.2506866">
<ele>342.369995</ele>
<time>2012-03-09T08:24:50.000Z</time>
</trkpt>
<trkpt lat="31.0455356" lon="35.2511094">
<ele>339.960022</ele>
<time>2012-03-09T08:25:02.000Z</time>
</trkpt>
<trkpt lat="31.0454526" lon="35.2511502">
<ele>339.960022</ele>
<time>2012-03-09T08:25:04.000Z</time>
</trkpt>
<trkpt lat="31.0452095" lon="35.2512538">
<ele>338.519989</ele>
<time>2012-03-09T08:25:09.000Z</time>
</trkpt>
<trkpt lat="31.0451037" lon="35.2512924">
<ele>337.559998</ele>
<time>2012-03-09T08:25:11.000Z</time>
</trkpt>
<trkpt lat="31.0448804" lon="35.2513440">
<ele>335.640015</ele>
<time>2012-03-09T08:25:15.000Z</time>
</trkpt>
<trkpt lat="31.0446587" lon="35.2513883">
<ele>334.199982</ele>
<time>2012-03-09T08:25:20.000Z</time>
</trkpt>
<trkpt lat="31.0446229" lon="35.2514083">
<ele>334.199982</ele>
<time>2012-03-09T08:25:21.000Z</time>
</trkpt>
<trkpt lat="31.0445913" lon="35.2514336">
<ele>333.710022</ele>
<time>2012-03-09T08:25:22.000Z</time>
</trkpt>
<trkpt lat="31.0445673" lon="35.2514684">
<ele>333.710022</ele>
<time>2012-03-09T08:25:23.000Z</time>
</trkpt>
<trkpt lat="31.0445467" lon="35.2515101">
<ele>332.750000</ele>
<time>2012-03-09T08:25:24.000Z</time>
</trkpt>
<trkpt lat="31.0445295" lon="35.2515534">
<ele>332.269989</ele>
<time>2012-03-09T08:25:25.000Z</time>
</trkpt>
<trkpt lat="31.0445123" lon="35.2515966">
<ele>331.790009</ele>
<time>2012-03-09T08:25:26.000Z</time>
</trkpt>
<trkpt lat="31.0444941" lon="35.2516372">
<ele>331.790009</ele>
<time>2012-03-09T08:25:27.000Z</time>
</trkpt>
<trkpt lat="31.0444251" lon="35.2517541">
<ele>330.350006</ele>
<time>2012-03-09T08:25:32.000Z</time>
</trkpt>
<trkpt lat="31.0444201" lon="35.2517631">
<ele>329.869995</ele>
<time>2012-03-09T08:25:33.000Z</time>
</trkpt>
<trkpt lat="31.0444235" lon="35.2517554">
<ele>330.350006</ele>
<time>2012-03-09T08:25:44.000Z</time>
</trkpt>
<trkpt lat="31.0444138" lon="35.2517651">
<ele>329.390015</ele>
<time>2012-03-09T08:26:10.000Z</time>
</trkpt>
<trkpt lat="31.0444014" lon="35.2517661">
<ele>329.869995</ele>
<time>2012-03-09T08:26:43.000Z</time>
</trkpt>
<trkpt lat="31.0444011" lon="35.2517672">
<ele>330.350006</ele>
<time>2012-03-09T08:26:45.000Z</time>
</trkpt>
<trkpt lat="31.0443926" lon="35.2517817">
<ele>330.350006</ele>
<time>2012-03-09T08:26:46.000Z</time>
</trkpt>
<trkpt lat="31.0443785" lon="35.2517962">
<ele>329.869995</ele>
<time>2012-03-09T08:26:47.000Z</time>
</trkpt>
<trkpt lat="31.0443558" lon="35.2518103">
<ele>329.869995</ele>
<time>2012-03-09T08:26:48.000Z</time>
</trkpt>
<trkpt lat="31.0443269" lon="35.2518252">
<ele>329.869995</ele>
<time>2012-03-09T08:26:49.000Z</time>
</trkpt>
<trkpt lat="31.0441603" lon="35.2519154">
<ele>329.390015</ele>
<time>2012-03-09T08:26:54.000Z</time>
</trkpt>
<trkpt lat="31.0441259" lon="35.2519454">
<ele>329.390015</ele>
<time>2012-03-09T08:26:55.000Z</time>
</trkpt>
<trkpt lat="31.0440924" lon="35.2519811">
<ele>329.390015</ele>
<time>2012-03-09T08:26:56.000Z</time>
</trkpt>
<trkpt lat="31.0440644" lon="35.2520234">
<ele>328.910004</ele>
<time>2012-03-09T08:26:57.000Z</time>
</trkpt>
<trkpt lat="31.0440412" lon="35.2520692">
<ele>328.910004</ele>
<time>2012-03-09T08:26:58.000Z</time>
</trkpt>
<trkpt lat="31.0440237" lon="35.2521160">
<ele>328.910004</ele>
<time>2012-03-09T08:26:59.000Z</time>
</trkpt>
<trkpt lat="31.0440161" lon="35.2521676">
<ele>328.910004</ele>
<time>2012-03-09T08:27:00.000Z</time>
</trkpt>
<trkpt lat="31.0440183" lon="35.2522202">
<ele>328.910004</ele>
<time>2012-03-09T08:27:01.000Z</time>
</trkpt>
<trkpt lat="31.0440246" lon="35.2522733">
<ele>328.429993</ele>
<time>2012-03-09T08:27:02.000Z</time>
</trkpt>
<trkpt lat="31.0440316" lon="35.2523236">
<ele>328.429993</ele>
<time>2012-03-09T08:27:03.000Z</time>
</trkpt>
<trkpt lat="31.0440433" lon="35.2523729">
<ele>328.429993</ele>
<time>2012-03-09T08:27:04.000Z</time>
</trkpt>
<trkpt lat="31.0441179" lon="35.2528735">
<ele>327.469971</ele>
<time>2012-03-09T08:27:14.000Z</time>
</trkpt>
<trkpt lat="31.0440042" lon="35.2533529">
<ele>326.500000</ele>
<time>2012-03-09T08:27:23.000Z</time>
</trkpt>
<trkpt lat="31.0439046" lon="35.2535880">
<ele>325.540009</ele>
<time>2012-03-09T08:27:28.000Z</time>
</trkpt>
<trkpt lat="31.0438800" lon="35.2536299">
<ele>326.019989</ele>
<time>2012-03-09T08:27:29.000Z</time>
</trkpt>
<trkpt lat="31.0438559" lon="35.2536695">
<ele>325.540009</ele>
<time>2012-03-09T08:27:30.000Z</time>
</trkpt>
<trkpt lat="31.0438380" lon="35.2537092">
<ele>325.540009</ele>
<time>2012-03-09T08:27:31.000Z</time>
</trkpt>
<trkpt lat="31.0438208" lon="35.2537505">
<ele>325.540009</ele>
<time>2012-03-09T08:27:32.000Z</time>
</trkpt>
<trkpt lat="31.0437382" lon="35.2540539">
<ele>325.059998</ele>
<time>2012-03-09T08:27:41.000Z</time>
</trkpt>
<trkpt lat="31.0436934" lon="35.2541083">
<ele>324.580017</ele>
<time>2012-03-09T08:27:45.000Z</time>
</trkpt>
<trkpt lat="31.0436828" lon="35.2541164">
<ele>325.059998</ele>
<time>2012-03-09T08:27:46.000Z</time>
</trkpt>
<trkpt lat="31.0436340" lon="35.2541636">
<ele>324.580017</ele>
<time>2012-03-09T08:27:58.000Z</time>
</trkpt>
<trkpt lat="31.0436335" lon="35.2541793">
<ele>324.580017</ele>
<time>2012-03-09T08:28:23.000Z</time>
</trkpt>
<trkpt lat="31.0436314" lon="35.2541928">
<ele>324.580017</ele>
<time>2012-03-09T08:28:24.000Z</time>
</trkpt>
<trkpt lat="31.0436277" lon="35.2542101">
<ele>325.059998</ele>
<time>2012-03-09T08:28:25.000Z</time>
</trkpt>
<trkpt lat="31.0436260" lon="35.2542305">
<ele>324.580017</ele>
<time>2012-03-09T08:28:26.000Z</time>
</trkpt>
<trkpt lat="31.0436291" lon="35.2542772">
<ele>324.580017</ele>
<time>2012-03-09T08:28:28.000Z</time>
</trkpt>
<trkpt lat="31.0436407" lon="35.2542927">
<ele>324.580017</ele>
<time>2012-03-09T08:28:29.000Z</time>
</trkpt>
<trkpt lat="31.0436873" lon="35.2543147">
<ele>324.580017</ele>
<time>2012-03-09T08:28:32.000Z</time>
</trkpt>
<trkpt lat="31.0437421" lon="35.2543459">
<ele>324.580017</ele>
<time>2012-03-09T08:28:35.000Z</time>
</trkpt>
<trkpt lat="31.0438006" lon="35.2545489">
<ele>324.580017</ele>
<time>2012-03-09T08:28:43.000Z</time>
</trkpt>
<trkpt lat="31.0440097" lon="35.2550845">
<ele>324.580017</ele>
<time>2012-03-09T08:29:00.000Z</time>
</trkpt>
<trkpt lat="31.0439657" lon="35.2555060">
<ele>325.059998</ele>
<time>2012-03-09T08:29:13.000Z</time>
</trkpt>
<trkpt lat="31.0437150" lon="35.2559324">
<ele>326.500000</ele>
<time>2012-03-09T08:29:29.000Z</time>
</trkpt>
<trkpt lat="31.0432748" lon="35.2559467">
<ele>325.059998</ele>
<time>2012-03-09T08:29:43.000Z</time>
</trkpt>
<trkpt lat="31.0431818" lon="35.2559864">
<ele>324.100006</ele>
<time>2012-03-09T08:29:45.000Z</time>
</trkpt>
<trkpt lat="31.0431342" lon="35.2560267">
<ele>323.619995</ele>
<time>2012-03-09T08:29:46.000Z</time>
</trkpt>
<trkpt lat="31.0430909" lon="35.2560791">
<ele>322.660004</ele>
<time>2012-03-09T08:29:47.000Z</time>
</trkpt>
<trkpt lat="31.0430530" lon="35.2561363">
<ele>322.660004</ele>
<time>2012-03-09T08:29:48.000Z</time>
</trkpt>
<trkpt lat="31.0430204" lon="35.2561958">
<ele>322.660004</ele>
<time>2012-03-09T08:29:49.000Z</time>
</trkpt>
<trkpt lat="31.0429913" lon="35.2562594">
<ele>322.660004</ele>
<time>2012-03-09T08:29:50.000Z</time>
</trkpt>
<trkpt lat="31.0428019" lon="35.2566997">
<ele>323.619995</ele>
<time>2012-03-09T08:29:58.000Z</time>
</trkpt>
<trkpt lat="31.0426607" lon="35.2571326">
<ele>326.500000</ele>
<time>2012-03-09T08:30:12.000Z</time>
</trkpt>
<trkpt lat="31.0423847" lon="35.2575782">
<ele>328.910004</ele>
<time>2012-03-09T08:30:29.000Z</time>
</trkpt>
<trkpt lat="31.0422659" lon="35.2577806">
<ele>331.309998</ele>
<time>2012-03-09T08:30:40.000Z</time>
</trkpt>
<trkpt lat="31.0422515" lon="35.2577947">
<ele>331.309998</ele>
<time>2012-03-09T08:30:41.000Z</time>
</trkpt>
<trkpt lat="31.0422420" lon="35.2578121">
<ele>331.309998</ele>
<time>2012-03-09T08:30:42.000Z</time>
</trkpt>
<trkpt lat="31.0422351" lon="35.2578281">
<ele>331.309998</ele>
<time>2012-03-09T08:30:43.000Z</time>
</trkpt>
<trkpt lat="31.0422247" lon="35.2578453">
<ele>331.309998</ele>
<time>2012-03-09T08:30:44.000Z</time>
</trkpt>
<trkpt lat="31.0422127" lon="35.2578635">
<ele>331.309998</ele>
<time>2012-03-09T08:30:45.000Z</time>
</trkpt>
<trkpt lat="31.0422012" lon="35.2578815">
<ele>331.309998</ele>
<time>2012-03-09T08:30:46.000Z</time>
</trkpt>
<trkpt lat="31.0421883" lon="35.2578994">
<ele>331.790009</ele>
<time>2012-03-09T08:30:47.000Z</time>
</trkpt>
<trkpt lat="31.0421764" lon="35.2579192">
<ele>331.790009</ele>
<time>2012-03-09T08:30:48.000Z</time>
</trkpt>
<trkpt lat="31.0421640" lon="35.2579363">
<ele>332.269989</ele>
<time>2012-03-09T08:30:49.000Z</time>
</trkpt>
<trkpt lat="31.0421492" lon="35.2579548">
<ele>332.269989</ele>
<time>2012-03-09T08:30:50.000Z</time>
</trkpt>
<trkpt lat="31.0421323" lon="35.2579701">
<ele>331.790009</ele>
<time>2012-03-09T08:30:51.000Z</time>
</trkpt>
<trkpt lat="31.0417671" lon="35.2582397">
<ele>330.350006</ele>
<time>2012-03-09T08:31:04.000Z</time>
</trkpt>
<trkpt lat="31.0413758" lon="35.2585140">
<ele>326.990021</ele>
<time>2012-03-09T08:31:13.000Z</time>
</trkpt>
<trkpt lat="31.0413276" lon="35.2585521">
<ele>326.990021</ele>
<time>2012-03-09T08:31:14.000Z</time>
</trkpt>
<trkpt lat="31.0412289" lon="35.2586381">
<ele>326.019989</ele>
<time>2012-03-09T08:31:16.000Z</time>
</trkpt>
<trkpt lat="31.0411331" lon="35.2587442">
<ele>325.059998</ele>
<time>2012-03-09T08:31:18.000Z</time>
</trkpt>
<trkpt lat="31.0409239" lon="35.2590746">
<ele>325.540009</ele>
<time>2012-03-09T08:31:24.000Z</time>
</trkpt>
<trkpt lat="31.0405722" lon="35.2593374">
<ele>326.990021</ele>
<time>2012-03-09T08:31:37.000Z</time>
</trkpt>
<trkpt lat="31.0403231" lon="35.2594624">
<ele>325.059998</ele>
<time>2012-03-09T08:31:42.000Z</time>
</trkpt>
<trkpt lat="31.0401068" lon="35.2596449">
<ele>324.100006</ele>
<time>2012-03-09T08:31:46.000Z</time>
</trkpt>
<trkpt lat="31.0400755" lon="35.2596914">
<ele>324.580017</ele>
<time>2012-03-09T08:31:47.000Z</time>
</trkpt>
<trkpt lat="31.0400554" lon="35.2597285">
<ele>325.059998</ele>
<time>2012-03-09T08:31:48.000Z</time>
</trkpt>
<trkpt lat="31.0400426" lon="35.2597548">
<ele>325.540009</ele>
<time>2012-03-09T08:31:49.000Z</time>
</trkpt>
<trkpt lat="31.0400346" lon="35.2597740">
<ele>326.019989</ele>
<time>2012-03-09T08:31:50.000Z</time>
</trkpt>
<trkpt lat="31.0400144" lon="35.2598178">
<ele>326.990021</ele>
<time>2012-03-09T08:31:53.000Z</time>
</trkpt>
<trkpt lat="31.0400133" lon="35.2598344">
<ele>326.990021</ele>
<time>2012-03-09T08:31:54.000Z</time>
</trkpt>
<trkpt lat="31.0400124" lon="35.2598867">
<ele>327.949982</ele>
<time>2012-03-09T08:31:58.000Z</time>
</trkpt>
<trkpt lat="31.0399985" lon="35.2601133">
<ele>329.869995</ele>
<time>2012-03-09T08:32:12.000Z</time>
</trkpt>
<trkpt lat="31.0399979" lon="35.2601304">
<ele>330.350006</ele>
<time>2012-03-09T08:32:13.000Z</time>
</trkpt>
<trkpt lat="31.0400049" lon="35.2601489">
<ele>329.869995</ele>
<time>2012-03-09T08:32:14.000Z</time>
</trkpt>
<trkpt lat="31.0400151" lon="35.2601641">
<ele>330.350006</ele>
<time>2012-03-09T08:32:15.000Z</time>
</trkpt>
<trkpt lat="31.0400252" lon="35.2601791">
<ele>330.350006</ele>
<time>2012-03-09T08:32:16.000Z</time>
</trkpt>
<trkpt lat="31.0400356" lon="35.2601941">
<ele>330.830017</ele>
<time>2012-03-09T08:32:17.000Z</time>
</trkpt>
<trkpt lat="31.0400472" lon="35.2602091">
<ele>330.350006</ele>
<time>2012-03-09T08:32:18.000Z</time>
</trkpt>
<trkpt lat="31.0400605" lon="35.2602234">
<ele>330.350006</ele>
<time>2012-03-09T08:32:19.000Z</time>
</trkpt>
<trkpt lat="31.0400755" lon="35.2602366">
<ele>329.869995</ele>
<time>2012-03-09T08:32:20.000Z</time>
</trkpt>
<trkpt lat="31.0400899" lon="35.2602480">
<ele>330.350006</ele>
<time>2012-03-09T08:32:21.000Z</time>
</trkpt>
<trkpt lat="31.0401055" lon="35.2602585">
<ele>330.350006</ele>
<time>2012-03-09T08:32:22.000Z</time>
</trkpt>
<trkpt lat="31.0401240" lon="35.2602641">
<ele>330.830017</ele>
<time>2012-03-09T08:32:23.000Z</time>
</trkpt>
<trkpt lat="31.0401394" lon="35.2602687">
<ele>330.830017</ele>
<time>2012-03-09T08:32:24.000Z</time>
</trkpt>
<trkpt lat="31.0401557" lon="35.2602705">
<ele>330.830017</ele>
<time>2012-03-09T08:32:25.000Z</time>
</trkpt>
<trkpt lat="31.0401719" lon="35.2602681">
<ele>331.309998</ele>
<time>2012-03-09T08:32:26.000Z</time>
</trkpt>
<trkpt lat="31.0403351" lon="35.2602857">
<ele>333.230011</ele>
<time>2012-03-09T08:32:40.000Z</time>
</trkpt>
<trkpt lat="31.0403886" lon="35.2603176">
<ele>334.199982</ele>
<time>2012-03-09T08:32:46.000Z</time>
</trkpt>
<trkpt lat="31.0403972" lon="35.2603234">
<ele>334.199982</ele>
<time>2012-03-09T08:32:47.000Z</time>
</trkpt>
<trkpt lat="31.0404635" lon="35.2603535">
<ele>335.640015</ele>
<time>2012-03-09T08:32:54.000Z</time>
</trkpt>
<trkpt lat="31.0405500" lon="35.2603993">
<ele>337.559998</ele>
<time>2012-03-09T08:33:05.000Z</time>
</trkpt>
<trkpt lat="31.0405583" lon="35.2604008">
<ele>338.040009</ele>
<time>2012-03-09T08:33:06.000Z</time>
</trkpt>
<trkpt lat="31.0405652" lon="35.2604067">
<ele>338.040009</ele>
<time>2012-03-09T08:33:07.000Z</time>
</trkpt>
<trkpt lat="31.0405744" lon="35.2604136">
<ele>338.519989</ele>
<time>2012-03-09T08:33:08.000Z</time>
</trkpt>
<trkpt lat="31.0405879" lon="35.2604170">
<ele>338.519989</ele>
<time>2012-03-09T08:33:09.000Z</time>
</trkpt>
<trkpt lat="31.0406003" lon="35.2604220">
<ele>339.000000</ele>
<time>2012-03-09T08:33:10.000Z</time>
</trkpt>
<trkpt lat="31.0406508" lon="35.2604474">
<ele>339.960022</ele>
<time>2012-03-09T08:33:16.000Z</time>
</trkpt>
<trkpt lat="31.0406586" lon="35.2604508">
<ele>340.439972</ele>
<time>2012-03-09T08:33:17.000Z</time>
</trkpt>
<trkpt lat="31.0407145" lon="35.2604817">
<ele>341.410004</ele>
<time>2012-03-09T08:33:24.000Z</time>
</trkpt>
<trkpt lat="31.0407585" lon="35.2605150">
<ele>342.369995</ele>
<time>2012-03-09T08:33:30.000Z</time>
</trkpt>
<trkpt lat="31.0408216" lon="35.2605453">
<ele>343.809998</ele>
<time>2012-03-09T08:33:37.000Z</time>
</trkpt>
<trkpt lat="31.0408419" lon="35.2605717">
<ele>344.290009</ele>
<time>2012-03-09T08:33:41.000Z</time>
</trkpt>
<trkpt lat="31.0408805" lon="35.2606164">
<ele>345.730011</ele>
<time>2012-03-09T08:33:47.000Z</time>
</trkpt>
<trkpt lat="31.0409141" lon="35.2607511">
<ele>346.689972</ele>
<time>2012-03-09T08:34:00.000Z</time>
</trkpt>
<trkpt lat="31.0409215" lon="35.2608095">
<ele>347.169983</ele>
<time>2012-03-09T08:34:04.000Z</time>
</trkpt>
<trkpt lat="31.0409194" lon="35.2608261">
<ele>347.169983</ele>
<time>2012-03-09T08:34:05.000Z</time>
</trkpt>
<trkpt lat="31.0409215" lon="35.2608396">
<ele>347.169983</ele>
<time>2012-03-09T08:34:06.000Z</time>
</trkpt>
<trkpt lat="31.0409238" lon="35.2608517">
<ele>347.649994</ele>
<time>2012-03-09T08:34:07.000Z</time>
</trkpt>
<trkpt lat="31.0409241" lon="35.2608642">
<ele>347.169983</ele>
<time>2012-03-09T08:34:08.000Z</time>
</trkpt>
<trkpt lat="31.0409221" lon="35.2608780">
<ele>347.169983</ele>
<time>2012-03-09T08:34:09.000Z</time>
</trkpt>
<trkpt lat="31.0408912" lon="35.2610333">
<ele>347.649994</ele>
<time>2012-03-09T08:34:20.000Z</time>
</trkpt>
<trkpt lat="31.0408909" lon="35.2610478">
<ele>348.130005</ele>
<time>2012-03-09T08:34:21.000Z</time>
</trkpt>
<trkpt lat="31.0408890" lon="35.2610779">
<ele>348.130005</ele>
<time>2012-03-09T08:34:23.000Z</time>
</trkpt>
<trkpt lat="31.0408900" lon="35.2610900">
<ele>348.130005</ele>
<time>2012-03-09T08:34:24.000Z</time>
</trkpt>
<trkpt lat="31.0408899" lon="35.2611989">
<ele>348.619995</ele>
<time>2012-03-09T08:34:32.000Z</time>
</trkpt>
<trkpt lat="31.0408886" lon="35.2612131">
<ele>349.100006</ele>
<time>2012-03-09T08:34:33.000Z</time>
</trkpt>
<trkpt lat="31.0408902" lon="35.2612266">
<ele>349.100006</ele>
<time>2012-03-09T08:34:34.000Z</time>
</trkpt>
<trkpt lat="31.0408901" lon="35.2612412">
<ele>349.579987</ele>
<time>2012-03-09T08:34:35.000Z</time>
</trkpt>
<trkpt lat="31.0408930" lon="35.2612555">
<ele>349.579987</ele>
<time>2012-03-09T08:34:36.000Z</time>
</trkpt>
<trkpt lat="31.0408953" lon="35.2612703">
<ele>349.100006</ele>
<time>2012-03-09T08:34:37.000Z</time>
</trkpt>
<trkpt lat="31.0408952" lon="35.2612870">
<ele>349.579987</ele>
<time>2012-03-09T08:34:38.000Z</time>
</trkpt>
<trkpt lat="31.0409087" lon="35.2615296">
<ele>351.019989</ele>
<time>2012-03-09T08:34:55.000Z</time>
</trkpt>
<trkpt lat="31.0409034" lon="35.2617430">
<ele>352.460022</ele>
<time>2012-03-09T08:35:10.000Z</time>
</trkpt>
<trkpt lat="31.0408103" lon="35.2619595">
<ele>354.380005</ele>
<time>2012-03-09T08:35:26.000Z</time>
</trkpt>
<trkpt lat="31.0406021" lon="35.2622190">
<ele>354.380005</ele>
<time>2012-03-09T08:35:40.000Z</time>
</trkpt>
<trkpt lat="31.0403004" lon="35.2625397">
<ele>356.790009</ele>
<time>2012-03-09T08:35:55.000Z</time>
</trkpt>
<trkpt lat="31.0402154" lon="35.2630511">
<ele>357.269989</ele>
<time>2012-03-09T08:36:10.000Z</time>
</trkpt>
<trkpt lat="31.0402591" lon="35.2632779">
<ele>355.829987</ele>
<time>2012-03-09T08:36:21.000Z</time>
</trkpt>
<trkpt lat="31.0402619" lon="35.2632763">
<ele>355.339996</ele>
<time>2012-03-09T08:36:43.000Z</time>
</trkpt>
<trkpt lat="31.0402605" lon="35.2632820">
<ele>355.339996</ele>
<time>2012-03-09T08:37:20.000Z</time>
</trkpt>
<trkpt lat="31.0402555" lon="35.2632869">
<ele>354.860016</ele>
<time>2012-03-09T08:37:54.000Z</time>
</trkpt>
<trkpt lat="31.0402563" lon="35.2632906">
<ele>354.860016</ele>
<time>2012-03-09T08:38:26.000Z</time>
</trkpt>
<trkpt lat="31.0402631" lon="35.2632958">
<ele>355.829987</ele>
<time>2012-03-09T08:38:57.000Z</time>
</trkpt>
<trkpt lat="31.0402797" lon="35.2633115">
<ele>355.829987</ele>
<time>2012-03-09T08:39:20.000Z</time>
</trkpt>
<trkpt lat="31.0402805" lon="35.2633123">
<ele>355.829987</ele>
<time>2012-03-09T08:39:27.000Z</time>
</trkpt>
<trkpt lat="31.0402899" lon="35.2633219">
<ele>355.829987</ele>
<time>2012-03-09T08:39:28.000Z</time>
</trkpt>
<trkpt lat="31.0402954" lon="35.2633346">
<ele>355.829987</ele>
<time>2012-03-09T08:39:29.000Z</time>
</trkpt>
<trkpt lat="31.0403014" lon="35.2633481">
<ele>355.829987</ele>
<time>2012-03-09T08:39:30.000Z</time>
</trkpt>
<trkpt lat="31.0403092" lon="35.2633614">
<ele>355.829987</ele>
<time>2012-03-09T08:39:31.000Z</time>
</trkpt>
<trkpt lat="31.0403197" lon="35.2633752">
<ele>356.309998</ele>
<time>2012-03-09T08:39:32.000Z</time>
</trkpt>
<trkpt lat="31.0403320" lon="35.2633901">
<ele>355.829987</ele>
<time>2012-03-09T08:39:33.000Z</time>
</trkpt>
<trkpt lat="31.0403451" lon="35.2634084">
<ele>355.829987</ele>
<time>2012-03-09T08:39:34.000Z</time>
</trkpt>
<trkpt lat="31.0403610" lon="35.2634300">
<ele>355.339996</ele>
<time>2012-03-09T08:39:35.000Z</time>
</trkpt>
<trkpt lat="31.0403782" lon="35.2634526">
<ele>355.339996</ele>
<time>2012-03-09T08:39:36.000Z</time>
</trkpt>
<trkpt lat="31.0405948" lon="35.2638000">
<ele>354.860016</ele>
<time>2012-03-09T08:39:47.000Z</time>
</trkpt>
<trkpt lat="31.0405533" lon="35.2640928">
<ele>356.309998</ele>
<time>2012-03-09T08:40:00.000Z</time>
</trkpt>
<trkpt lat="31.0405506" lon="35.2641030">
<ele>355.829987</ele>
<time>2012-03-09T08:40:01.000Z</time>
</trkpt>
<trkpt lat="31.0405461" lon="35.2641148">
<ele>356.309998</ele>
<time>2012-03-09T08:40:02.000Z</time>
</trkpt>
<trkpt lat="31.0405436" lon="35.2641292">
<ele>356.790009</ele>
<time>2012-03-09T08:40:03.000Z</time>
</trkpt>
<trkpt lat="31.0405433" lon="35.2641438">
<ele>356.309998</ele>
<time>2012-03-09T08:40:04.000Z</time>
</trkpt>
<trkpt lat="31.0405432" lon="35.2641593">
<ele>356.790009</ele>
<time>2012-03-09T08:40:05.000Z</time>
</trkpt>
<trkpt lat="31.0405404" lon="35.2641749">
<ele>356.790009</ele>
<time>2012-03-09T08:40:06.000Z</time>
</trkpt>
<trkpt lat="31.0405373" lon="35.2641907">
<ele>357.269989</ele>
<time>2012-03-09T08:40:07.000Z</time>
</trkpt>
<trkpt lat="31.0405370" lon="35.2642070">
<ele>356.790009</ele>
<time>2012-03-09T08:40:08.000Z</time>
</trkpt>
<trkpt lat="31.0405376" lon="35.2642213">
<ele>357.269989</ele>
<time>2012-03-09T08:40:09.000Z</time>
</trkpt>
<trkpt lat="31.0405383" lon="35.2642360">
<ele>357.750000</ele>
<time>2012-03-09T08:40:10.000Z</time>
</trkpt>
<trkpt lat="31.0405372" lon="35.2642486">
<ele>357.750000</ele>
<time>2012-03-09T08:40:11.000Z</time>
</trkpt>
<trkpt lat="31.0405355" lon="35.2642615">
<ele>357.750000</ele>
<time>2012-03-09T08:40:12.000Z</time>
</trkpt>
<trkpt lat="31.0405376" lon="35.2642741">
<ele>357.750000</ele>
<time>2012-03-09T08:40:13.000Z</time>
</trkpt>
<trkpt lat="31.0405387" lon="35.2642906">
<ele>357.750000</ele>
<time>2012-03-09T08:40:14.000Z</time>
</trkpt>
<trkpt lat="31.0405385" lon="35.2643108">
<ele>357.750000</ele>
<time>2012-03-09T08:40:15.000Z</time>
</trkpt>
<trkpt lat="31.0405384" lon="35.2643330">
<ele>357.750000</ele>
<time>2012-03-09T08:40:16.000Z</time>
</trkpt>
<trkpt lat="31.0405381" lon="35.2643553">
<ele>358.230011</ele>
<time>2012-03-09T08:40:17.000Z</time>
</trkpt>
<trkpt lat="31.0405394" lon="35.2643765">
<ele>358.230011</ele>
<time>2012-03-09T08:40:18.000Z</time>
</trkpt>
<trkpt lat="31.0405422" lon="35.2643983">
<ele>357.750000</ele>
<time>2012-03-09T08:40:19.000Z</time>
</trkpt>
<trkpt lat="31.0405485" lon="35.2644195">
<ele>357.750000</ele>
<time>2012-03-09T08:40:20.000Z</time>
</trkpt>
<trkpt lat="31.0405559" lon="35.2644425">
<ele>357.750000</ele>
<time>2012-03-09T08:40:21.000Z</time>
</trkpt>
<trkpt lat="31.0406480" lon="35.2647599">
<ele>356.790009</ele>
<time>2012-03-09T08:40:33.000Z</time>
</trkpt>
<trkpt lat="31.0409291" lon="35.2652561">
<ele>354.860016</ele>
<time>2012-03-09T08:40:47.000Z</time>
</trkpt>
<trkpt lat="31.0411287" lon="35.2656233">
<ele>353.419983</ele>
<time>2012-03-09T08:40:54.000Z</time>
</trkpt>
<trkpt lat="31.0411613" lon="35.2656705">
<ele>353.419983</ele>
<time>2012-03-09T08:40:55.000Z</time>
</trkpt>
<trkpt lat="31.0412554" lon="35.2658203">
<ele>352.939972</ele>
<time>2012-03-09T08:40:58.000Z</time>
</trkpt>
<trkpt lat="31.0412781" lon="35.2658824">
<ele>352.939972</ele>
<time>2012-03-09T08:40:59.000Z</time>
</trkpt>
<trkpt lat="31.0412894" lon="35.2659508">
<ele>352.460022</ele>
<time>2012-03-09T08:41:00.000Z</time>
</trkpt>
<trkpt lat="31.0412864" lon="35.2660233">
<ele>351.980011</ele>
<time>2012-03-09T08:41:01.000Z</time>
</trkpt>
<trkpt lat="31.0412715" lon="35.2660955">
<ele>351.019989</ele>
<time>2012-03-09T08:41:02.000Z</time>
</trkpt>
<trkpt lat="31.0412407" lon="35.2661609">
<ele>350.540009</ele>
<time>2012-03-09T08:41:03.000Z</time>
</trkpt>
<trkpt lat="31.0411981" lon="35.2662140">
<ele>350.540009</ele>
<time>2012-03-09T08:41:04.000Z</time>
</trkpt>
<trkpt lat="31.0411499" lon="35.2662559">
<ele>350.540009</ele>
<time>2012-03-09T08:41:05.000Z</time>
</trkpt>
<trkpt lat="31.0411031" lon="35.2662903">
<ele>350.540009</ele>
<time>2012-03-09T08:41:06.000Z</time>
</trkpt>
<trkpt lat="31.0409520" lon="35.2664023">
<ele>351.019989</ele>
<time>2012-03-09T08:41:10.000Z</time>
</trkpt>
<trkpt lat="31.0409224" lon="35.2664334">
<ele>351.019989</ele>
<time>2012-03-09T08:41:11.000Z</time>
</trkpt>
<trkpt lat="31.0406977" lon="35.2669397">
<ele>350.540009</ele>
<time>2012-03-09T08:41:25.000Z</time>
</trkpt>
<trkpt lat="31.0406780" lon="35.2670878">
<ele>350.540009</ele>
<time>2012-03-09T08:41:28.000Z</time>
</trkpt>
<trkpt lat="31.0406639" lon="35.2671381">
<ele>350.540009</ele>
<time>2012-03-09T08:41:29.000Z</time>
</trkpt>
<trkpt lat="31.0406437" lon="35.2671858">
<ele>350.059998</ele>
<time>2012-03-09T08:41:30.000Z</time>
</trkpt>
<trkpt lat="31.0406184" lon="35.2672299">
<ele>349.579987</ele>
<time>2012-03-09T08:41:31.000Z</time>
</trkpt>
<trkpt lat="31.0405875" lon="35.2672697">
<ele>349.579987</ele>
<time>2012-03-09T08:41:32.000Z</time>
</trkpt>
<trkpt lat="31.0405602" lon="35.2673100">
<ele>349.579987</ele>
<time>2012-03-09T08:41:33.000Z</time>
</trkpt>
<trkpt lat="31.0405366" lon="35.2673515">
<ele>349.100006</ele>
<time>2012-03-09T08:41:34.000Z</time>
</trkpt>
<trkpt lat="31.0405190" lon="35.2673948">
<ele>349.100006</ele>
<time>2012-03-09T08:41:35.000Z</time>
</trkpt>
<trkpt lat="31.0405076" lon="35.2674412">
<ele>349.100006</ele>
<time>2012-03-09T08:41:36.000Z</time>
</trkpt>
<trkpt lat="31.0404982" lon="35.2674909">
<ele>349.100006</ele>
<time>2012-03-09T08:41:37.000Z</time>
</trkpt>
<trkpt lat="31.0404945" lon="35.2675435">
<ele>348.130005</ele>
<time>2012-03-09T08:41:38.000Z</time>
</trkpt>
<trkpt lat="31.0404956" lon="35.2675976">
<ele>348.619995</ele>
<time>2012-03-09T08:41:39.000Z</time>
</trkpt>
<trkpt lat="31.0404962" lon="35.2679520">
<ele>346.689972</ele>
<time>2012-03-09T08:41:45.000Z</time>
</trkpt>
<trkpt lat="31.0404803" lon="35.2680744">
<ele>345.730011</ele>
<time>2012-03-09T08:41:47.000Z</time>
</trkpt>
<trkpt lat="31.0404586" lon="35.2681352">
<ele>345.250000</ele>
<time>2012-03-09T08:41:48.000Z</time>
</trkpt>
<trkpt lat="31.0404279" lon="35.2681898">
<ele>345.250000</ele>
<time>2012-03-09T08:41:49.000Z</time>
</trkpt>
<trkpt lat="31.0403915" lon="35.2682361">
<ele>345.250000</ele>
<time>2012-03-09T08:41:50.000Z</time>
</trkpt>
<trkpt lat="31.0403541" lon="35.2682746">
<ele>344.769989</ele>
<time>2012-03-09T08:41:51.000Z</time>
</trkpt>
<trkpt lat="31.0403239" lon="35.2683137">
<ele>345.250000</ele>
<time>2012-03-09T08:41:52.000Z</time>
</trkpt>
<trkpt lat="31.0403006" lon="35.2683558">
<ele>345.250000</ele>
<time>2012-03-09T08:41:53.000Z</time>
</trkpt>
<trkpt lat="31.0402825" lon="35.2684032">
<ele>345.250000</ele>
<time>2012-03-09T08:41:54.000Z</time>
</trkpt>
<trkpt lat="31.0402696" lon="35.2684554">
<ele>344.769989</ele>
<time>2012-03-09T08:41:55.000Z</time>
</trkpt>
<trkpt lat="31.0402577" lon="35.2685118">
<ele>344.290009</ele>
<time>2012-03-09T08:41:56.000Z</time>
</trkpt>
<trkpt lat="31.0402213" lon="35.2686259">
<ele>343.809998</ele>
<time>2012-03-09T08:41:58.000Z</time>
</trkpt>
<trkpt lat="31.0401933" lon="35.2686787">
<ele>343.809998</ele>
<time>2012-03-09T08:41:59.000Z</time>
</trkpt>
<trkpt lat="31.0401584" lon="35.2687234">
<ele>343.809998</ele>
<time>2012-03-09T08:42:00.000Z</time>
</trkpt>
<trkpt lat="31.0401181" lon="35.2687598">
<ele>343.329987</ele>
<time>2012-03-09T08:42:01.000Z</time>
</trkpt>
<trkpt lat="31.0400758" lon="35.2687895">
<ele>343.329987</ele>
<time>2012-03-09T08:42:02.000Z</time>
</trkpt>
<trkpt lat="31.0400343" lon="35.2688159">
<ele>342.850006</ele>
<time>2012-03-09T08:42:03.000Z</time>
</trkpt>
<trkpt lat="31.0398762" lon="35.2691642">
<ele>342.369995</ele>
<time>2012-03-09T08:42:12.000Z</time>
</trkpt>
<trkpt lat="31.0398637" lon="35.2692197">
<ele>341.890015</ele>
<time>2012-03-09T08:42:13.000Z</time>
</trkpt>
<trkpt lat="31.0398437" lon="35.2692770">
<ele>341.890015</ele>
<time>2012-03-09T08:42:14.000Z</time>
</trkpt>
<trkpt lat="31.0398180" lon="35.2693338">
<ele>341.890015</ele>
<time>2012-03-09T08:42:15.000Z</time>
</trkpt>
<trkpt lat="31.0397862" lon="35.2693904">
<ele>340.919983</ele>
<time>2012-03-09T08:42:16.000Z</time>
</trkpt>
<trkpt lat="31.0397502" lon="35.2694494">
<ele>340.919983</ele>
<time>2012-03-09T08:42:17.000Z</time>
</trkpt>
<trkpt lat="31.0397102" lon="35.2695064">
<ele>340.439972</ele>
<time>2012-03-09T08:42:18.000Z</time>
</trkpt>
<trkpt lat="31.0396625" lon="35.2695605">
<ele>339.960022</ele>
<time>2012-03-09T08:42:19.000Z</time>
</trkpt>
<trkpt lat="31.0395547" lon="35.2696622">
<ele>339.480011</ele>
<time>2012-03-09T08:42:21.000Z</time>
</trkpt>
<trkpt lat="31.0392473" lon="35.2699147">
<ele>340.919983</ele>
<time>2012-03-09T08:42:30.000Z</time>
</trkpt>
<trkpt lat="31.0390757" lon="35.2701960">
<ele>338.040009</ele>
<time>2012-03-09T08:42:40.000Z</time>
</trkpt>
<trkpt lat="31.0390654" lon="35.2702119">
<ele>337.559998</ele>
<time>2012-03-09T08:42:41.000Z</time>
</trkpt>
<trkpt lat="31.0390383" lon="35.2702737">
<ele>336.600006</ele>
<time>2012-03-09T08:42:53.000Z</time>
</trkpt>
<trkpt lat="31.0390326" lon="35.2702713">
<ele>336.600006</ele>
<time>2012-03-09T08:43:15.000Z</time>
</trkpt>
<trkpt lat="31.0390264" lon="35.2702880">
<ele>336.600006</ele>
<time>2012-03-09T08:43:47.000Z</time>
</trkpt>
<trkpt lat="31.0390250" lon="35.2702885">
<ele>336.119995</ele>
<time>2012-03-09T08:44:18.000Z</time>
</trkpt>
<trkpt lat="31.0390293" lon="35.2702891">
<ele>336.119995</ele>
<time>2012-03-09T08:44:48.000Z</time>
</trkpt>
<trkpt lat="31.0390315" lon="35.2702956">
<ele>336.119995</ele>
<time>2012-03-09T08:45:13.000Z</time>
</trkpt>
<trkpt lat="31.0390235" lon="35.2703040">
<ele>336.119995</ele>
<time>2012-03-09T08:45:23.000Z</time>
</trkpt>
<trkpt lat="31.0389394" lon="35.2704486">
<ele>334.199982</ele>
<time>2012-03-09T08:45:29.000Z</time>
</trkpt>
<trkpt lat="31.0388802" lon="35.2705713">
<ele>331.790009</ele>
<time>2012-03-09T08:45:32.000Z</time>
</trkpt>
<trkpt lat="31.0388651" lon="35.2706214">
<ele>332.269989</ele>
<time>2012-03-09T08:45:33.000Z</time>
</trkpt>
<trkpt lat="31.0388147" lon="35.2707799">
<ele>331.309998</ele>
<time>2012-03-09T08:45:36.000Z</time>
</trkpt>
<trkpt lat="31.0388028" lon="35.2708341">
<ele>330.830017</ele>
<time>2012-03-09T08:45:37.000Z</time>
</trkpt>
<trkpt lat="31.0387964" lon="35.2708872">
<ele>330.350006</ele>
<time>2012-03-09T08:45:38.000Z</time>
</trkpt>
<trkpt lat="31.0387920" lon="35.2709369">
<ele>329.390015</ele>
<time>2012-03-09T08:45:39.000Z</time>
</trkpt>
<trkpt lat="31.0387886" lon="35.2709800">
<ele>328.910004</ele>
<time>2012-03-09T08:45:40.000Z</time>
</trkpt>
<trkpt lat="31.0387861" lon="35.2710199">
<ele>328.429993</ele>
<time>2012-03-09T08:45:41.000Z</time>
</trkpt>
<trkpt lat="31.0387826" lon="35.2710550">
<ele>328.429993</ele>
<time>2012-03-09T08:45:42.000Z</time>
</trkpt>
<trkpt lat="31.0386958" lon="35.2713636">
<ele>326.019989</ele>
<time>2012-03-09T08:45:56.000Z</time>
</trkpt>
<trkpt lat="31.0384898" lon="35.2714266">
<ele>325.540009</ele>
<time>2012-03-09T08:46:08.000Z</time>
</trkpt>
<trkpt lat="31.0383638" lon="35.2713731">
<ele>326.019989</ele>
<time>2012-03-09T08:46:15.000Z</time>
</trkpt>
<trkpt lat="31.0383444" lon="35.2713686">
<ele>326.019989</ele>
<time>2012-03-09T08:46:16.000Z</time>
</trkpt>
<trkpt lat="31.0383248" lon="35.2713657">
<ele>326.019989</ele>
<time>2012-03-09T08:46:17.000Z</time>
</trkpt>
<trkpt lat="31.0380513" lon="35.2713460">
<ele>326.500000</ele>
<time>2012-03-09T08:46:30.000Z</time>
</trkpt>
<trkpt lat="31.0377713" lon="35.2713600">
<ele>326.019989</ele>
<time>2012-03-09T08:46:41.000Z</time>
</trkpt>
<trkpt lat="31.0377619" lon="35.2713894">
<ele>326.019989</ele>
<time>2012-03-09T08:46:42.000Z</time>
</trkpt>
<trkpt lat="31.0377549" lon="35.2714163">
<ele>325.540009</ele>
<time>2012-03-09T08:46:43.000Z</time>
</trkpt>
<trkpt lat="31.0377400" lon="35.2715782">
<ele>322.660004</ele>
<time>2012-03-09T08:46:49.000Z</time>
</trkpt>
<trkpt lat="31.0377427" lon="35.2716707">
<ele>322.179993</ele>
<time>2012-03-09T08:46:52.000Z</time>
</trkpt>
<trkpt lat="31.0377295" lon="35.2716945">
<ele>321.219971</ele>
<time>2012-03-09T08:46:53.000Z</time>
</trkpt>
<trkpt lat="31.0377093" lon="35.2717166">
<ele>320.740021</ele>
<time>2012-03-09T08:46:54.000Z</time>
</trkpt>
<trkpt lat="31.0375247" lon="35.2719351">
<ele>318.330017</ele>
<time>2012-03-09T08:47:02.000Z</time>
</trkpt>
<trkpt lat="31.0373466" lon="35.2718692">
<ele>317.850006</ele>
<time>2012-03-09T08:47:11.000Z</time>
</trkpt>
<trkpt lat="31.0370962" lon="35.2717874">
<ele>319.299988</ele>
<time>2012-03-09T08:47:23.000Z</time>
</trkpt>
<trkpt lat="31.0368670" lon="35.2717345">
<ele>319.779999</ele>
<time>2012-03-09T08:47:34.000Z</time>
</trkpt>
<trkpt lat="31.0366359" lon="35.2715805">
<ele>318.809998</ele>
<time>2012-03-09T08:47:45.000Z</time>
</trkpt>
<trkpt lat="31.0362210" lon="35.2715787">
<ele>315.929993</ele>
<time>2012-03-09T08:47:58.000Z</time>
</trkpt>
<trkpt lat="31.0361767" lon="35.2715532">
<ele>315.449982</ele>
<time>2012-03-09T08:48:05.000Z</time>
</trkpt>
<trkpt lat="31.0361818" lon="35.2715479">
<ele>314.490021</ele>
<time>2012-03-09T08:48:20.000Z</time>
</trkpt>
<trkpt lat="31.0361815" lon="35.2715452">
<ele>314.969971</ele>
<time>2012-03-09T08:48:46.000Z</time>
</trkpt>
<trkpt lat="31.0361844" lon="35.2715489">
<ele>314.490021</ele>
<time>2012-03-09T08:49:19.000Z</time>
</trkpt>
<trkpt lat="31.0361843" lon="35.2715505">
<ele>314.969971</ele>
<time>2012-03-09T08:49:47.000Z</time>
</trkpt>
<trkpt lat="31.0361850" lon="35.2715513">
<ele>314.490021</ele>
<time>2012-03-09T08:50:15.000Z</time>
</trkpt>
<trkpt lat="31.0361804" lon="35.2715567">
<ele>314.490021</ele>
<time>2012-03-09T08:50:45.000Z</time>
</trkpt>
<trkpt lat="31.0361829" lon="35.2715517">
<ele>314.490021</ele>
<time>2012-03-09T08:51:15.000Z</time>
</trkpt>
<trkpt lat="31.0361856" lon="35.2715509">
<ele>314.010010</ele>
<time>2012-03-09T08:51:43.000Z</time>
</trkpt>
<trkpt lat="31.0361850" lon="35.2715493">
<ele>314.490021</ele>
<time>2012-03-09T08:52:13.000Z</time>
</trkpt>
<trkpt lat="31.0361812" lon="35.2715482">
<ele>314.490021</ele>
<time>2012-03-09T08:52:43.000Z</time>
</trkpt>
<trkpt lat="31.0361827" lon="35.2715495">
<ele>314.490021</ele>
<time>2012-03-09T08:53:13.000Z</time>
</trkpt>
<trkpt lat="31.0361858" lon="35.2715527">
<ele>314.490021</ele>
<time>2012-03-09T08:53:42.000Z</time>
</trkpt>
<trkpt lat="31.0361815" lon="35.2715458">
<ele>313.529999</ele>
<time>2012-03-09T08:54:11.000Z</time>
</trkpt>
<trkpt lat="31.0361804" lon="35.2715397">
<ele>314.010010</ele>
<time>2012-03-09T08:54:44.000Z</time>
</trkpt>
<trkpt lat="31.0361834" lon="35.2715373">
<ele>314.010010</ele>
<time>2012-03-09T08:55:17.000Z</time>
</trkpt>
<trkpt lat="31.0361833" lon="35.2715315">
<ele>314.490021</ele>
<time>2012-03-09T08:55:48.000Z</time>
</trkpt>
<trkpt lat="31.0361816" lon="35.2715308">
<ele>314.010010</ele>
<time>2012-03-09T08:56:24.000Z</time>
</trkpt>
<trkpt lat="31.0361801" lon="35.2715266">
<ele>314.010010</ele>
<time>2012-03-09T08:56:56.000Z</time>
</trkpt>
<trkpt lat="31.0361791" lon="35.2715259">
<ele>314.010010</ele>
<time>2012-03-09T08:57:25.000Z</time>
</trkpt>
<trkpt lat="31.0361793" lon="35.2715250">
<ele>314.010010</ele>
<time>2012-03-09T08:57:56.000Z</time>
</trkpt>
<trkpt lat="31.0361781" lon="35.2715291">
<ele>314.010010</ele>
<time>2012-03-09T08:58:26.000Z</time>
</trkpt>
<trkpt lat="31.0361780" lon="35.2715259">
<ele>313.529999</ele>
<time>2012-03-09T08:58:51.000Z</time>
</trkpt>
<trkpt lat="31.0362089" lon="35.2715572">
<ele>314.490021</ele>
<time>2012-03-09T08:58:56.000Z</time>
</trkpt>
<trkpt lat="31.0362270" lon="35.2716247">
<ele>314.490021</ele>
<time>2012-03-09T08:59:07.000Z</time>
</trkpt>
<trkpt lat="31.0362230" lon="35.2716411">
<ele>314.490021</ele>
<time>2012-03-09T08:59:42.000Z</time>
</trkpt>
<trkpt lat="31.0362245" lon="35.2717012">
<ele>314.490021</ele>
<time>2012-03-09T09:00:01.000Z</time>
</trkpt>
<trkpt lat="31.0362626" lon="35.2719771">
<ele>314.010010</ele>
<time>2012-03-09T09:00:12.000Z</time>
</trkpt>
<trkpt lat="31.0363286" lon="35.2723229">
<ele>313.049988</ele>
<time>2012-03-09T09:00:23.000Z</time>
</trkpt>
<trkpt lat="31.0364112" lon="35.2726917">
<ele>312.089996</ele>
<time>2012-03-09T09:00:36.000Z</time>
</trkpt>
<trkpt lat="31.0366235" lon="35.2729652">
<ele>311.119995</ele>
<time>2012-03-09T09:00:47.000Z</time>
</trkpt>
<trkpt lat="31.0366507" lon="35.2730874">
<ele>312.089996</ele>
<time>2012-03-09T09:00:52.000Z</time>
</trkpt>
<trkpt lat="31.0367572" lon="35.2733510">
<ele>310.639984</ele>
<time>2012-03-09T09:01:02.000Z</time>
</trkpt>
<trkpt lat="31.0366502" lon="35.2736273">
<ele>311.119995</ele>
<time>2012-03-09T09:01:14.000Z</time>
</trkpt>
<trkpt lat="31.0364849" lon="35.2738722">
<ele>309.679993</ele>
<time>2012-03-09T09:01:25.000Z</time>
</trkpt>
<trkpt lat="31.0364590" lon="35.2740339">
<ele>306.800018</ele>
<time>2012-03-09T09:01:31.000Z</time>
</trkpt>
<trkpt lat="31.0364697" lon="35.2742659">
<ele>303.910004</ele>
<time>2012-03-09T09:01:41.000Z</time>
</trkpt>
<trkpt lat="31.0365019" lon="35.2743463">
<ele>302.949982</ele>
<time>2012-03-09T09:01:45.000Z</time>
</trkpt>
<trkpt lat="31.0365137" lon="35.2744330">
<ele>301.510010</ele>
<time>2012-03-09T09:01:53.000Z</time>
</trkpt>
<trkpt lat="31.0365345" lon="35.2744834">
<ele>301.029999</ele>
<time>2012-03-09T09:02:02.000Z</time>
</trkpt>
<trkpt lat="31.0365611" lon="35.2744982">
<ele>301.029999</ele>
<time>2012-03-09T09:02:15.000Z</time>
</trkpt>
<trkpt lat="31.0365613" lon="35.2744970">
<ele>300.550018</ele>
<time>2012-03-09T09:02:27.000Z</time>
</trkpt>
<trkpt lat="31.0365531" lon="35.2744686">
<ele>301.989990</ele>
<time>2012-03-09T09:02:47.000Z</time>
</trkpt>
<trkpt lat="31.0365336" lon="35.2743980">
<ele>302.470001</ele>
<time>2012-03-09T09:03:00.000Z</time>
</trkpt>
<trkpt lat="31.0365349" lon="35.2742977">
<ele>303.910004</ele>
<time>2012-03-09T09:03:13.000Z</time>
</trkpt>
<trkpt lat="31.0365305" lon="35.2742472">
<ele>303.910004</ele>
<time>2012-03-09T09:03:21.000Z</time>
</trkpt>
<trkpt lat="31.0365251" lon="35.2741126">
<ele>305.839996</ele>
<time>2012-03-09T09:03:35.000Z</time>
</trkpt>
<trkpt lat="31.0365134" lon="35.2739935">
<ele>306.800018</ele>
<time>2012-03-09T09:03:48.000Z</time>
</trkpt>
<trkpt lat="31.0365040" lon="35.2739143">
<ele>307.760010</ele>
<time>2012-03-09T09:04:00.000Z</time>
</trkpt>
<trkpt lat="31.0365191" lon="35.2738591">
<ele>308.720001</ele>
<time>2012-03-09T09:04:14.000Z</time>
</trkpt>
<trkpt lat="31.0365422" lon="35.2738202">
<ele>309.199982</ele>
<time>2012-03-09T09:04:19.000Z</time>
</trkpt>
<trkpt lat="31.0365898" lon="35.2737532">
<ele>310.160004</ele>
<time>2012-03-09T09:04:31.000Z</time>
</trkpt>
<trkpt lat="31.0366841" lon="35.2735306">
<ele>311.119995</ele>
<time>2012-03-09T09:04:42.000Z</time>
</trkpt>
<trkpt lat="31.0367309" lon="35.2731840">
<ele>310.639984</ele>
<time>2012-03-09T09:04:52.000Z</time>
</trkpt>
<trkpt lat="31.0367170" lon="35.2731544">
<ele>311.119995</ele>
<time>2012-03-09T09:04:53.000Z</time>
</trkpt>
<trkpt lat="31.0366458" lon="35.2730715">
<ele>311.119995</ele>
<time>2012-03-09T09:04:58.000Z</time>
</trkpt>
<trkpt lat="31.0366229" lon="35.2729600">
<ele>310.639984</ele>
<time>2012-03-09T09:05:02.000Z</time>
</trkpt>
<trkpt lat="31.0365008" lon="35.2728059">
<ele>311.119995</ele>
<time>2012-03-09T09:05:08.000Z</time>
</trkpt>
<trkpt lat="31.0363651" lon="35.2724974">
<ele>312.089996</ele>
<time>2012-03-09T09:05:21.000Z</time>
</trkpt>
<trkpt lat="31.0363032" lon="35.2721441">
<ele>312.089996</ele>
<time>2012-03-09T09:05:34.000Z</time>
</trkpt>
<trkpt lat="31.0362763" lon="35.2720625">
<ele>312.569977</ele>
<time>2012-03-09T09:05:38.000Z</time>
</trkpt>
<trkpt lat="31.0363081" lon="35.2719539">
<ele>313.529999</ele>
<time>2012-03-09T09:05:44.000Z</time>
</trkpt>
<trkpt lat="31.0364832" lon="35.2717126">
<ele>315.449982</ele>
<time>2012-03-09T09:06:00.000Z</time>
</trkpt>
<trkpt lat="31.0365096" lon="35.2716779">
<ele>315.449982</ele>
<time>2012-03-09T09:06:02.000Z</time>
</trkpt>
<trkpt lat="31.0365712" lon="35.2716343">
<ele>316.410004</ele>
<time>2012-03-09T09:06:06.000Z</time>
</trkpt>
<trkpt lat="31.0367217" lon="35.2716272">
<ele>316.890015</ele>
<time>2012-03-09T09:06:16.000Z</time>
</trkpt>
<trkpt lat="31.0369012" lon="35.2717593">
<ele>318.330017</ele>
<time>2012-03-09T09:06:28.000Z</time>
</trkpt>
<trkpt lat="31.0371509" lon="35.2718224">
<ele>316.890015</ele>
<time>2012-03-09T09:06:38.000Z</time>
</trkpt>
<trkpt lat="31.0373840" lon="35.2718908">
<ele>315.929993</ele>
<time>2012-03-09T09:06:50.000Z</time>
</trkpt>
<trkpt lat="31.0374322" lon="35.2719240">
<ele>315.449982</ele>
<time>2012-03-09T09:06:52.000Z</time>
</trkpt>
<trkpt lat="31.0376492" lon="35.2718142">
<ele>316.890015</ele>
<time>2012-03-09T09:07:03.000Z</time>
</trkpt>
<trkpt lat="31.0376546" lon="35.2717985">
<ele>317.369995</ele>
<time>2012-03-09T09:07:04.000Z</time>
</trkpt>
<trkpt lat="31.0377336" lon="35.2717140">
<ele>318.330017</ele>
<time>2012-03-09T09:07:11.000Z</time>
</trkpt>
<trkpt lat="31.0377532" lon="35.2716861">
<ele>319.299988</ele>
<time>2012-03-09T09:07:13.000Z</time>
</trkpt>
<trkpt lat="31.0378814" lon="35.2714698">
<ele>319.779999</ele>
<time>2012-03-09T09:07:26.000Z</time>
</trkpt>
<trkpt lat="31.0379448" lon="35.2714769">
<ele>319.779999</ele>
<time>2012-03-09T09:07:30.000Z</time>
</trkpt>
<trkpt lat="31.0380262" lon="35.2714581">
<ele>320.740021</ele>
<time>2012-03-09T09:07:37.000Z</time>
</trkpt>
<trkpt lat="31.0382107" lon="35.2715287">
<ele>320.740021</ele>
<time>2012-03-09T09:07:47.000Z</time>
</trkpt>
<trkpt lat="31.0384960" lon="35.2715939">
<ele>319.779999</ele>
<time>2012-03-09T09:07:59.000Z</time>
</trkpt>
<trkpt lat="31.0387611" lon="35.2716283">
<ele>320.260010</ele>
<time>2012-03-09T09:08:11.000Z</time>
</trkpt>
<trkpt lat="31.0388095" lon="35.2716583">
<ele>320.260010</ele>
<time>2012-03-09T09:08:14.000Z</time>
</trkpt>
<trkpt lat="31.0389062" lon="35.2717313">
<ele>320.260010</ele>
<time>2012-03-09T09:08:20.000Z</time>
</trkpt>
<trkpt lat="31.0389676" lon="35.2717810">
<ele>319.779999</ele>
<time>2012-03-09T09:08:24.000Z</time>
</trkpt>
<trkpt lat="31.0390081" lon="35.2718283">
<ele>320.260010</ele>
<time>2012-03-09T09:08:27.000Z</time>
</trkpt>
<trkpt lat="31.0390188" lon="35.2718841">
<ele>319.779999</ele>
<time>2012-03-09T09:08:38.000Z</time>
</trkpt>
<trkpt lat="31.0390179" lon="35.2718711">
<ele>319.299988</ele>
<time>2012-03-09T09:09:13.000Z</time>
</trkpt>
<trkpt lat="31.0390154" lon="35.2718711">
<ele>319.299988</ele>
<time>2012-03-09T09:09:44.000Z</time>
</trkpt>
<trkpt lat="31.0390115" lon="35.2718748">
<ele>319.779999</ele>
<time>2012-03-09T09:10:13.000Z</time>
</trkpt>
<trkpt lat="31.0390125" lon="35.2718836">
<ele>319.779999</ele>
<time>2012-03-09T09:10:38.000Z</time>
</trkpt>
<trkpt lat="31.0390161" lon="35.2718885">
<ele>319.779999</ele>
<time>2012-03-09T09:10:55.000Z</time>
</trkpt>
<trkpt lat="31.0390195" lon="35.2718887">
<ele>319.779999</ele>
<time>2012-03-09T09:11:00.000Z</time>
</trkpt>
<trkpt lat="31.0391602" lon="35.2721672">
<ele>319.299988</ele>
<time>2012-03-09T09:11:12.000Z</time>
</trkpt>
<trkpt lat="31.0393338" lon="35.2725109">
<ele>317.850006</ele>
<time>2012-03-09T09:11:24.000Z</time>
</trkpt>
<trkpt lat="31.0394158" lon="35.2728662">
<ele>314.969971</ele>
<time>2012-03-09T09:11:35.000Z</time>
</trkpt>
<trkpt lat="31.0394192" lon="35.2729114">
<ele>314.969971</ele>
<time>2012-03-09T09:11:36.000Z</time>
</trkpt>
<trkpt lat="31.0394458" lon="35.2730466">
<ele>314.490021</ele>
<time>2012-03-09T09:11:39.000Z</time>
</trkpt>
<trkpt lat="31.0394602" lon="35.2730884">
<ele>314.010010</ele>
<time>2012-03-09T09:11:40.000Z</time>
</trkpt>
<trkpt lat="31.0394704" lon="35.2731286">
<ele>313.529999</ele>
<time>2012-03-09T09:11:41.000Z</time>
</trkpt>
<trkpt lat="31.0394799" lon="35.2731661">
<ele>313.049988</ele>
<time>2012-03-09T09:11:42.000Z</time>
</trkpt>
<trkpt lat="31.0394909" lon="35.2732004">
<ele>313.049988</ele>
<time>2012-03-09T09:11:43.000Z</time>
</trkpt>
<trkpt lat="31.0395281" lon="35.2734355">
<ele>309.679993</ele>
<time>2012-03-09T09:11:52.000Z</time>
</trkpt>
<trkpt lat="31.0395513" lon="35.2735096">
<ele>308.720001</ele>
<time>2012-03-09T09:11:55.000Z</time>
</trkpt>
<trkpt lat="31.0395575" lon="35.2735277">
<ele>308.239990</ele>
<time>2012-03-09T09:11:56.000Z</time>
</trkpt>
<trkpt lat="31.0395607" lon="35.2735443">
<ele>308.239990</ele>
<time>2012-03-09T09:11:57.000Z</time>
</trkpt>
<trkpt lat="31.0395643" lon="35.2735635">
<ele>307.760010</ele>
<time>2012-03-09T09:11:58.000Z</time>
</trkpt>
<trkpt lat="31.0395973" lon="35.2736785">
<ele>305.839996</ele>
<time>2012-03-09T09:12:06.000Z</time>
</trkpt>
<trkpt lat="31.0395955" lon="35.2736987">
<ele>305.360016</ele>
<time>2012-03-09T09:12:07.000Z</time>
</trkpt>
<trkpt lat="31.0395702" lon="35.2738582">
<ele>301.510010</ele>
<time>2012-03-09T09:12:12.000Z</time>
</trkpt>
<trkpt lat="31.0395634" lon="35.2739202">
<ele>299.589996</ele>
<time>2012-03-09T09:12:13.000Z</time>
</trkpt>
<trkpt lat="31.0395676" lon="35.2740986">
<ele>295.260010</ele>
<time>2012-03-09T09:12:16.000Z</time>
</trkpt>
<trkpt lat="31.0396060" lon="35.2742716">
<ele>291.419983</ele>
<time>2012-03-09T09:12:20.000Z</time>
</trkpt>
<trkpt lat="31.0396073" lon="35.2744421">
<ele>288.050018</ele>
<time>2012-03-09T09:12:25.000Z</time>
</trkpt>
<trkpt lat="31.0396076" lon="35.2744698">
<ele>287.570007</ele>
<time>2012-03-09T09:12:26.000Z</time>
</trkpt>
<trkpt lat="31.0396252" lon="35.2746488">
<ele>284.690002</ele>
<time>2012-03-09T09:12:32.000Z</time>
</trkpt>
<trkpt lat="31.0396093" lon="35.2746579">
<ele>284.690002</ele>
<time>2012-03-09T09:12:33.000Z</time>
</trkpt>
<trkpt lat="31.0395922" lon="35.2746571">
<ele>284.690002</ele>
<time>2012-03-09T09:12:34.000Z</time>
</trkpt>
<trkpt lat="31.0395783" lon="35.2746582">
<ele>284.690002</ele>
<time>2012-03-09T09:12:35.000Z</time>
</trkpt>
<trkpt lat="31.0395844" lon="35.2746363">
<ele>284.690002</ele>
<time>2012-03-09T09:12:50.000Z</time>
</trkpt>
<trkpt lat="31.0395741" lon="35.2746386">
<ele>284.690002</ele>
<time>2012-03-09T09:13:20.000Z</time>
</trkpt>
<trkpt lat="31.0395750" lon="35.2746319">
<ele>285.170013</ele>
<time>2012-03-09T09:13:48.000Z</time>
</trkpt>
<trkpt lat="31.0395757" lon="35.2746348">
<ele>285.649994</ele>
<time>2012-03-09T09:14:18.000Z</time>
</trkpt>
<trkpt lat="31.0395739" lon="35.2746383">
<ele>285.649994</ele>
<time>2012-03-09T09:14:45.000Z</time>
</trkpt>
<trkpt lat="31.0395725" lon="35.2746352">
<ele>285.649994</ele>
<time>2012-03-09T09:15:10.000Z</time>
</trkpt>
<trkpt lat="31.0395816" lon="35.2746377">
<ele>286.130005</ele>
<time>2012-03-09T09:15:39.000Z</time>
</trkpt>
<trkpt lat="31.0395757" lon="35.2746544">
<ele>285.649994</ele>
<time>2012-03-09T09:16:10.000Z</time>
</trkpt>
<trkpt lat="31.0395653" lon="35.2746642">
<ele>286.130005</ele>
<time>2012-03-09T09:16:11.000Z</time>
</trkpt>
<trkpt lat="31.0393892" lon="35.2747970">
<ele>287.089996</ele>
<time>2012-03-09T09:16:23.000Z</time>
</trkpt>
<trkpt lat="31.0392440" lon="35.2749966">
<ele>288.529999</ele>
<time>2012-03-09T09:16:37.000Z</time>
</trkpt>
<trkpt lat="31.0391018" lon="35.2751738">
<ele>290.940002</ele>
<time>2012-03-09T09:16:50.000Z</time>
</trkpt>
<trkpt lat="31.0390426" lon="35.2752420">
<ele>291.899994</ele>
<time>2012-03-09T09:16:57.000Z</time>
</trkpt>
<trkpt lat="31.0390350" lon="35.2752518">
<ele>291.899994</ele>
<time>2012-03-09T09:16:58.000Z</time>
</trkpt>
<trkpt lat="31.0390283" lon="35.2752614">
<ele>291.899994</ele>
<time>2012-03-09T09:16:59.000Z</time>
</trkpt>
<trkpt lat="31.0390202" lon="35.2752710">
<ele>292.860016</ele>
<time>2012-03-09T09:17:00.000Z</time>
</trkpt>
<trkpt lat="31.0390110" lon="35.2752783">
<ele>292.860016</ele>
<time>2012-03-09T09:17:01.000Z</time>
</trkpt>
<trkpt lat="31.0390028" lon="35.2752885">
<ele>293.339996</ele>
<time>2012-03-09T09:17:02.000Z</time>
</trkpt>
<trkpt lat="31.0389888" lon="35.2753321">
<ele>293.820007</ele>
<time>2012-03-09T09:17:06.000Z</time>
</trkpt>
<trkpt lat="31.0389442" lon="35.2755200">
<ele>296.220001</ele>
<time>2012-03-09T09:17:20.000Z</time>
</trkpt>
<trkpt lat="31.0389347" lon="35.2755847">
<ele>297.179993</ele>
<time>2012-03-09T09:17:25.000Z</time>
</trkpt>
<trkpt lat="31.0389284" lon="35.2755976">
<ele>298.149994</ele>
<time>2012-03-09T09:17:26.000Z</time>
</trkpt>
<trkpt lat="31.0389240" lon="35.2756098">
<ele>298.149994</ele>
<time>2012-03-09T09:17:27.000Z</time>
</trkpt>
<trkpt lat="31.0388706" lon="35.2757069">
<ele>300.070007</ele>
<time>2012-03-09T09:17:36.000Z</time>
</trkpt>
<trkpt lat="31.0388309" lon="35.2757652">
<ele>301.029999</ele>
<time>2012-03-09T09:17:43.000Z</time>
</trkpt>
<trkpt lat="31.0388199" lon="35.2757839">
<ele>301.510010</ele>
<time>2012-03-09T09:17:45.000Z</time>
</trkpt>
<trkpt lat="31.0388158" lon="35.2757960">
<ele>301.510010</ele>
<time>2012-03-09T09:17:46.000Z</time>
</trkpt>
<trkpt lat="31.0388085" lon="35.2758090">
<ele>301.510010</ele>
<time>2012-03-09T09:17:47.000Z</time>
</trkpt>
<trkpt lat="31.0388012" lon="35.2758212">
<ele>301.510010</ele>
<time>2012-03-09T09:17:48.000Z</time>
</trkpt>
<trkpt lat="31.0387943" lon="35.2758329">
<ele>301.510010</ele>
<time>2012-03-09T09:17:49.000Z</time>
</trkpt>
<trkpt lat="31.0387896" lon="35.2758462">
<ele>301.989990</ele>
<time>2012-03-09T09:17:50.000Z</time>
</trkpt>
<trkpt lat="31.0387847" lon="35.2758594">
<ele>301.989990</ele>
<time>2012-03-09T09:17:51.000Z</time>
</trkpt>
<trkpt lat="31.0387799" lon="35.2758703">
<ele>301.989990</ele>
<time>2012-03-09T09:17:52.000Z</time>
</trkpt>
<trkpt lat="31.0387777" lon="35.2758824">
<ele>301.989990</ele>
<time>2012-03-09T09:17:53.000Z</time>
</trkpt>
<trkpt lat="31.0387762" lon="35.2758966">
<ele>301.989990</ele>
<time>2012-03-09T09:17:54.000Z</time>
</trkpt>
<trkpt lat="31.0387746" lon="35.2759112">
<ele>301.989990</ele>
<time>2012-03-09T09:17:55.000Z</time>
</trkpt>
<trkpt lat="31.0387655" lon="35.2759721">
<ele>302.470001</ele>
<time>2012-03-09T09:18:00.000Z</time>
</trkpt>
<trkpt lat="31.0387642" lon="35.2759893">
<ele>302.949982</ele>
<time>2012-03-09T09:18:01.000Z</time>
</trkpt>
<trkpt lat="31.0387682" lon="35.2760249">
<ele>302.949982</ele>
<time>2012-03-09T09:18:04.000Z</time>
</trkpt>
<trkpt lat="31.0387693" lon="35.2760361">
<ele>302.949982</ele>
<time>2012-03-09T09:18:05.000Z</time>
</trkpt>
<trkpt lat="31.0387691" lon="35.2760477">
<ele>302.949982</ele>
<time>2012-03-09T09:18:06.000Z</time>
</trkpt>
<trkpt lat="31.0388041" lon="35.2762227">
<ele>304.389984</ele>
<time>2012-03-09T09:18:20.000Z</time>
</trkpt>
<trkpt lat="31.0388058" lon="35.2762354">
<ele>304.389984</ele>
<time>2012-03-09T09:18:21.000Z</time>
</trkpt>
<trkpt lat="31.0388110" lon="35.2762469">
<ele>304.880005</ele>
<time>2012-03-09T09:18:22.000Z</time>
</trkpt>
<trkpt lat="31.0388168" lon="35.2762589">
<ele>304.389984</ele>
<time>2012-03-09T09:18:23.000Z</time>
</trkpt>
<trkpt lat="31.0388187" lon="35.2762720">
<ele>304.880005</ele>
<time>2012-03-09T09:18:24.000Z</time>
</trkpt>
<trkpt lat="31.0388331" lon="35.2763446">
<ele>305.360016</ele>
<time>2012-03-09T09:18:30.000Z</time>
</trkpt>
<trkpt lat="31.0388340" lon="35.2763578">
<ele>305.839996</ele>
<time>2012-03-09T09:18:31.000Z</time>
</trkpt>
<trkpt lat="31.0388371" lon="35.2763711">
<ele>306.320007</ele>
<time>2012-03-09T09:18:32.000Z</time>
</trkpt>
<trkpt lat="31.0388395" lon="35.2764161">
<ele>305.839996</ele>
<time>2012-03-09T09:18:36.000Z</time>
</trkpt>
<trkpt lat="31.0388391" lon="35.2764277">
<ele>306.320007</ele>
<time>2012-03-09T09:18:37.000Z</time>
</trkpt>
<trkpt lat="31.0388375" lon="35.2764416">
<ele>307.279999</ele>
<time>2012-03-09T09:18:38.000Z</time>
</trkpt>
<trkpt lat="31.0388329" lon="35.2764541">
<ele>307.279999</ele>
<time>2012-03-09T09:18:39.000Z</time>
</trkpt>
<trkpt lat="31.0388261" lon="35.2764868">
<ele>307.760010</ele>
<time>2012-03-09T09:18:42.000Z</time>
</trkpt>
<trkpt lat="31.0388200" lon="35.2765265">
<ele>308.239990</ele>
<time>2012-03-09T09:18:45.000Z</time>
</trkpt>
<trkpt lat="31.0388140" lon="35.2765371">
<ele>308.720001</ele>
<time>2012-03-09T09:18:46.000Z</time>
</trkpt>
<trkpt lat="31.0387439" lon="35.2766838">
<ele>310.639984</ele>
<time>2012-03-09T09:19:00.000Z</time>
</trkpt>
<trkpt lat="31.0387199" lon="35.2767785">
<ele>311.600006</ele>
<time>2012-03-09T09:19:07.000Z</time>
</trkpt>
<trkpt lat="31.0387189" lon="35.2767927">
<ele>311.600006</ele>
<time>2012-03-09T09:19:08.000Z</time>
</trkpt>
<trkpt lat="31.0387185" lon="35.2768064">
<ele>311.600006</ele>
<time>2012-03-09T09:19:09.000Z</time>
</trkpt>
<trkpt lat="31.0386994" lon="35.2769197">
<ele>312.569977</ele>
<time>2012-03-09T09:19:17.000Z</time>
</trkpt>
<trkpt lat="31.0386706" lon="35.2769939">
<ele>312.569977</ele>
<time>2012-03-09T09:19:22.000Z</time>
</trkpt>
<trkpt lat="31.0386370" lon="35.2772232">
<ele>312.569977</ele>
<time>2012-03-09T09:19:35.000Z</time>
</trkpt>
<trkpt lat="31.0385943" lon="35.2775579">
<ele>309.679993</ele>
<time>2012-03-09T09:19:41.000Z</time>
</trkpt>
<trkpt lat="31.0385675" lon="35.2776179">
<ele>309.199982</ele>
<time>2012-03-09T09:19:42.000Z</time>
</trkpt>
<trkpt lat="31.0385325" lon="35.2776726">
<ele>309.199982</ele>
<time>2012-03-09T09:19:43.000Z</time>
</trkpt>
<trkpt lat="31.0384226" lon="35.2778331">
<ele>308.239990</ele>
<time>2012-03-09T09:19:46.000Z</time>
</trkpt>
<trkpt lat="31.0383820" lon="35.2778802">
<ele>307.760010</ele>
<time>2012-03-09T09:19:47.000Z</time>
</trkpt>
<trkpt lat="31.0383095" lon="35.2779691">
<ele>306.800018</ele>
<time>2012-03-09T09:19:49.000Z</time>
</trkpt>
<trkpt lat="31.0382868" lon="35.2780133">
<ele>306.800018</ele>
<time>2012-03-09T09:19:50.000Z</time>
</trkpt>
<trkpt lat="31.0382734" lon="35.2780569">
<ele>306.320007</ele>
<time>2012-03-09T09:19:51.000Z</time>
</trkpt>
<trkpt lat="31.0382419" lon="35.2782588">
<ele>302.949982</ele>
<time>2012-03-09T09:19:55.000Z</time>
</trkpt>
<trkpt lat="31.0382431" lon="35.2783246">
<ele>301.989990</ele>
<time>2012-03-09T09:19:56.000Z</time>
</trkpt>
<trkpt lat="31.0382581" lon="35.2783892">
<ele>301.029999</ele>
<time>2012-03-09T09:19:57.000Z</time>
</trkpt>
<trkpt lat="31.0382843" lon="35.2784530">
<ele>300.550018</ele>
<time>2012-03-09T09:19:58.000Z</time>
</trkpt>
<trkpt lat="31.0384121" lon="35.2787006">
<ele>297.179993</ele>
<time>2012-03-09T09:20:02.000Z</time>
</trkpt>
<trkpt lat="31.0385305" lon="35.2789169">
<ele>293.820007</ele>
<time>2012-03-09T09:20:06.000Z</time>
</trkpt>
<trkpt lat="31.0385946" lon="35.2790315">
<ele>292.380005</ele>
<time>2012-03-09T09:20:08.000Z</time>
</trkpt>
<trkpt lat="31.0386251" lon="35.2791115">
<ele>291.899994</ele>
<time>2012-03-09T09:20:09.000Z</time>
</trkpt>
<trkpt lat="31.0386486" lon="35.2792050">
<ele>289.970001</ele>
<time>2012-03-09T09:20:10.000Z</time>
</trkpt>
<trkpt lat="31.0387052" lon="35.2795272">
<ele>286.610016</ele>
<time>2012-03-09T09:20:13.000Z</time>
</trkpt>
<trkpt lat="31.0387560" lon="35.2797611">
<ele>284.209991</ele>
<time>2012-03-09T09:20:15.000Z</time>
</trkpt>
<trkpt lat="31.0387997" lon="35.2798676">
<ele>283.250000</ele>
<time>2012-03-09T09:20:16.000Z</time>
</trkpt>
<trkpt lat="31.0388493" lon="35.2799682">
<ele>283.250000</ele>
<time>2012-03-09T09:20:17.000Z</time>
</trkpt>
<trkpt lat="31.0390539" lon="35.2803513">
<ele>282.279999</ele>
<time>2012-03-09T09:20:21.000Z</time>
</trkpt>
<trkpt lat="31.0390829" lon="35.2804525">
<ele>282.279999</ele>
<time>2012-03-09T09:20:22.000Z</time>
</trkpt>
<trkpt lat="31.0390939" lon="35.2805525">
<ele>281.800018</ele>
<time>2012-03-09T09:20:23.000Z</time>
</trkpt>
<trkpt lat="31.0390863" lon="35.2806472">
<ele>282.279999</ele>
<time>2012-03-09T09:20:24.000Z</time>
</trkpt>
<trkpt lat="31.0390670" lon="35.2807438">
<ele>281.320007</ele>
<time>2012-03-09T09:20:25.000Z</time>
</trkpt>
<trkpt lat="31.0390507" lon="35.2808400">
<ele>281.320007</ele>
<time>2012-03-09T09:20:26.000Z</time>
</trkpt>
<trkpt lat="31.0390423" lon="35.2810262">
<ele>279.880005</ele>
<time>2012-03-09T09:20:28.000Z</time>
</trkpt>
<trkpt lat="31.0390502" lon="35.2811073">
<ele>279.880005</ele>
<time>2012-03-09T09:20:29.000Z</time>
</trkpt>
<trkpt lat="31.0390921" lon="35.2812828">
<ele>281.320007</ele>
<time>2012-03-09T09:20:32.000Z</time>
</trkpt>
<trkpt lat="31.0391348" lon="35.2813765">
<ele>282.279999</ele>
<time>2012-03-09T09:20:34.000Z</time>
</trkpt>
<trkpt lat="31.0392625" lon="35.2816163">
<ele>284.209991</ele>
<time>2012-03-09T09:20:44.000Z</time>
</trkpt>
<trkpt lat="31.0392726" lon="35.2816274">
<ele>284.690002</ele>
<time>2012-03-09T09:20:45.000Z</time>
</trkpt>
<trkpt lat="31.0392783" lon="35.2816456">
<ele>284.690002</ele>
<time>2012-03-09T09:20:46.000Z</time>
</trkpt>
<trkpt lat="31.0392788" lon="35.2816661">
<ele>284.209991</ele>
<time>2012-03-09T09:20:47.000Z</time>
</trkpt>
<trkpt lat="31.0392759" lon="35.2816844">
<ele>284.690002</ele>
<time>2012-03-09T09:20:48.000Z</time>
</trkpt>
<trkpt lat="31.0392683" lon="35.2816986">
<ele>284.209991</ele>
<time>2012-03-09T09:20:49.000Z</time>
</trkpt>
<trkpt lat="31.0392634" lon="35.2817131">
<ele>284.209991</ele>
<time>2012-03-09T09:20:50.000Z</time>
</trkpt>
<trkpt lat="31.0392658" lon="35.2817289">
<ele>284.209991</ele>
<time>2012-03-09T09:20:51.000Z</time>
</trkpt>
<trkpt lat="31.0392696" lon="35.2817415">
<ele>284.209991</ele>
<time>2012-03-09T09:20:52.000Z</time>
</trkpt>
<trkpt lat="31.0392760" lon="35.2817508">
<ele>284.209991</ele>
<time>2012-03-09T09:20:53.000Z</time>
</trkpt>
<trkpt lat="31.0392849" lon="35.2817585">
<ele>284.209991</ele>
<time>2012-03-09T09:20:54.000Z</time>
</trkpt>
<trkpt lat="31.0392910" lon="35.2817726">
<ele>284.209991</ele>
<time>2012-03-09T09:20:55.000Z</time>
</trkpt>
<trkpt lat="31.0392923" lon="35.2817889">
<ele>284.209991</ele>
<time>2012-03-09T09:20:56.000Z</time>
</trkpt>
<trkpt lat="31.0392926" lon="35.2818061">
<ele>284.209991</ele>
<time>2012-03-09T09:20:57.000Z</time>
</trkpt>
<trkpt lat="31.0392935" lon="35.2818303">
<ele>284.209991</ele>
<time>2012-03-09T09:20:58.000Z</time>
</trkpt>
<trkpt lat="31.0392953" lon="35.2818547">
<ele>284.209991</ele>
<time>2012-03-09T09:20:59.000Z</time>
</trkpt>
<trkpt lat="31.0392971" lon="35.2818760">
<ele>283.729980</ele>
<time>2012-03-09T09:21:00.000Z</time>
</trkpt>
<trkpt lat="31.0393029" lon="35.2822200">
<ele>281.320007</ele>
<time>2012-03-09T09:21:14.000Z</time>
</trkpt>
<trkpt lat="31.0392715" lon="35.2825139">
<ele>279.399994</ele>
<time>2012-03-09T09:21:23.000Z</time>
</trkpt>
<trkpt lat="31.0392561" lon="35.2825375">
<ele>279.399994</ele>
<time>2012-03-09T09:21:24.000Z</time>
</trkpt>
<trkpt lat="31.0392384" lon="35.2825595">
<ele>279.399994</ele>
<time>2012-03-09T09:21:25.000Z</time>
</trkpt>
<trkpt lat="31.0392172" lon="35.2825805">
<ele>278.920013</ele>
<time>2012-03-09T09:21:26.000Z</time>
</trkpt>
<trkpt lat="31.0391928" lon="35.2825989">
<ele>278.920013</ele>
<time>2012-03-09T09:21:27.000Z</time>
</trkpt>
<trkpt lat="31.0391701" lon="35.2826126">
<ele>278.440002</ele>
<time>2012-03-09T09:21:28.000Z</time>
</trkpt>
<trkpt lat="31.0391481" lon="35.2826256">
<ele>278.440002</ele>
<time>2012-03-09T09:21:29.000Z</time>
</trkpt>
<trkpt lat="31.0391302" lon="35.2826381">
<ele>277.959991</ele>
<time>2012-03-09T09:21:30.000Z</time>
</trkpt>
<trkpt lat="31.0391217" lon="35.2826372">
<ele>277.000000</ele>
<time>2012-03-09T09:21:39.000Z</time>
</trkpt>
<trkpt lat="31.0391178" lon="35.2826228">
<ele>276.519989</ele>
<time>2012-03-09T09:22:12.000Z</time>
</trkpt>
<trkpt lat="31.0391091" lon="35.2826108">
<ele>277.000000</ele>
<time>2012-03-09T09:22:59.000Z</time>
</trkpt>
<trkpt lat="31.0391178" lon="35.2826149">
<ele>277.479980</ele>
<time>2012-03-09T09:23:24.000Z</time>
</trkpt>
<trkpt lat="31.0391688" lon="35.2826969">
<ele>277.479980</ele>
<time>2012-03-09T09:23:37.000Z</time>
</trkpt>
<trkpt lat="31.0392246" lon="35.2827499">
<ele>277.959991</ele>
<time>2012-03-09T09:23:51.000Z</time>
</trkpt>
<trkpt lat="31.0392210" lon="35.2827823">
<ele>276.519989</ele>
<time>2012-03-09T09:24:06.000Z</time>
</trkpt>
<trkpt lat="31.0392136" lon="35.2827831">
<ele>277.000000</ele>
<time>2012-03-09T09:24:31.000Z</time>
</trkpt>
<trkpt lat="31.0392125" lon="35.2827812">
<ele>277.479980</ele>
<time>2012-03-09T09:25:05.000Z</time>
</trkpt>
<trkpt lat="31.0392137" lon="35.2827828">
<ele>277.959991</ele>
<time>2012-03-09T09:25:31.000Z</time>
</trkpt>
<trkpt lat="31.0392084" lon="35.2828019">
<ele>277.479980</ele>
<time>2012-03-09T09:25:44.000Z</time>
</trkpt>
<trkpt lat="31.0392064" lon="35.2828176">
<ele>277.959991</ele>
<time>2012-03-09T09:25:45.000Z</time>
</trkpt>
<trkpt lat="31.0392003" lon="35.2828333">
<ele>277.479980</ele>
<time>2012-03-09T09:25:46.000Z</time>
</trkpt>
<trkpt lat="31.0391911" lon="35.2828526">
<ele>277.000000</ele>
<time>2012-03-09T09:25:47.000Z</time>
</trkpt>
<trkpt lat="31.0391812" lon="35.2828772">
<ele>277.000000</ele>
<time>2012-03-09T09:25:48.000Z</time>
</trkpt>
<trkpt lat="31.0390929" lon="35.2831590">
<ele>273.630005</ele>
<time>2012-03-09T09:25:56.000Z</time>
</trkpt>
<trkpt lat="31.0390882" lon="35.2832039">
<ele>273.630005</ele>
<time>2012-03-09T09:25:57.000Z</time>
</trkpt>
<trkpt lat="31.0390828" lon="35.2832488">
<ele>272.670013</ele>
<time>2012-03-09T09:25:58.000Z</time>
</trkpt>
<trkpt lat="31.0390483" lon="35.2834973">
<ele>269.309998</ele>
<time>2012-03-09T09:26:03.000Z</time>
</trkpt>
<trkpt lat="31.0390359" lon="35.2835442">
<ele>268.829987</ele>
<time>2012-03-09T09:26:04.000Z</time>
</trkpt>
<trkpt lat="31.0390204" lon="35.2835912">
<ele>268.350006</ele>
<time>2012-03-09T09:26:05.000Z</time>
</trkpt>
<trkpt lat="31.0388927" lon="35.2838600">
<ele>264.500000</ele>
<time>2012-03-09T09:26:11.000Z</time>
</trkpt>
<trkpt lat="31.0388594" lon="35.2839060">
<ele>263.540009</ele>
<time>2012-03-09T09:26:12.000Z</time>
</trkpt>
<trkpt lat="31.0387189" lon="35.2840750">
<ele>261.140015</ele>
<time>2012-03-09T09:26:16.000Z</time>
</trkpt>
<trkpt lat="31.0385871" lon="35.2842152">
<ele>257.769989</ele>
<time>2012-03-09T09:26:20.000Z</time>
</trkpt>
<trkpt lat="31.0384651" lon="35.2843647">
<ele>255.369995</ele>
<time>2012-03-09T09:26:24.000Z</time>
</trkpt>
<trkpt lat="31.0384375" lon="35.2844163">
<ele>254.889999</ele>
<time>2012-03-09T09:26:25.000Z</time>
</trkpt>
<trkpt lat="31.0384102" lon="35.2844776">
<ele>253.439987</ele>
<time>2012-03-09T09:26:26.000Z</time>
</trkpt>
<trkpt lat="31.0383844" lon="35.2845468">
<ele>252.479996</ele>
<time>2012-03-09T09:26:27.000Z</time>
</trkpt>
<trkpt lat="31.0383632" lon="35.2846199">
<ele>251.519989</ele>
<time>2012-03-09T09:26:28.000Z</time>
</trkpt>
<trkpt lat="31.0383206" lon="35.2848380">
<ele>248.639999</ele>
<time>2012-03-09T09:26:31.000Z</time>
</trkpt>
<trkpt lat="31.0383218" lon="35.2849058">
<ele>248.160004</ele>
<time>2012-03-09T09:26:32.000Z</time>
</trkpt>
<trkpt lat="31.0383327" lon="35.2849677">
<ele>246.719986</ele>
<time>2012-03-09T09:26:33.000Z</time>
</trkpt>
<trkpt lat="31.0383504" lon="35.2850177">
<ele>247.199997</ele>
<time>2012-03-09T09:26:34.000Z</time>
</trkpt>
<trkpt lat="31.0383762" lon="35.2850581">
<ele>246.229996</ele>
<time>2012-03-09T09:26:35.000Z</time>
</trkpt>
<trkpt lat="31.0384058" lon="35.2850864">
<ele>246.229996</ele>
<time>2012-03-09T09:26:36.000Z</time>
</trkpt>
<trkpt lat="31.0384399" lon="35.2851068">
<ele>246.229996</ele>
<time>2012-03-09T09:26:37.000Z</time>
</trkpt>
<trkpt lat="31.0384756" lon="35.2851262">
<ele>246.229996</ele>
<time>2012-03-09T09:26:38.000Z</time>
</trkpt>
<trkpt lat="31.0385138" lon="35.2851453">
<ele>245.750000</ele>
<time>2012-03-09T09:26:39.000Z</time>
</trkpt>
<trkpt lat="31.0387332" lon="35.2852702">
<ele>242.869995</ele>
<time>2012-03-09T09:26:44.000Z</time>
</trkpt>
<trkpt lat="31.0387673" lon="35.2853109">
<ele>242.389999</ele>
<time>2012-03-09T09:26:45.000Z</time>
</trkpt>
<trkpt lat="31.0387920" lon="35.2853544">
<ele>240.949997</ele>
<time>2012-03-09T09:26:46.000Z</time>
</trkpt>
<trkpt lat="31.0387984" lon="35.2853958">
<ele>240.469986</ele>
<time>2012-03-09T09:26:47.000Z</time>
</trkpt>
<trkpt lat="31.0387875" lon="35.2854324">
<ele>239.990005</ele>
<time>2012-03-09T09:26:48.000Z</time>
</trkpt>
<trkpt lat="31.0387629" lon="35.2854620">
<ele>239.509995</ele>
<time>2012-03-09T09:26:49.000Z</time>
</trkpt>
<trkpt lat="31.0387312" lon="35.2854912">
<ele>238.540009</ele>
<time>2012-03-09T09:26:50.000Z</time>
</trkpt>
<trkpt lat="31.0386912" lon="35.2855184">
<ele>238.059998</ele>
<time>2012-03-09T09:26:51.000Z</time>
</trkpt>
<trkpt lat="31.0386455" lon="35.2855447">
<ele>237.100006</ele>
<time>2012-03-09T09:26:52.000Z</time>
</trkpt>
<trkpt lat="31.0385037" lon="35.2856337">
<ele>233.259995</ele>
<time>2012-03-09T09:26:55.000Z</time>
</trkpt>
<trkpt lat="31.0384164" lon="35.2857062">
<ele>231.329987</ele>
<time>2012-03-09T09:26:57.000Z</time>
</trkpt>
<trkpt lat="31.0382143" lon="35.2858458">
<ele>227.490005</ele>
<time>2012-03-09T09:27:01.000Z</time>
</trkpt>
<trkpt lat="31.0380505" lon="35.2859419">
<ele>224.119995</ele>
<time>2012-03-09T09:27:04.000Z</time>
</trkpt>
<trkpt lat="31.0378806" lon="35.2860771">
<ele>220.279999</ele>
<time>2012-03-09T09:27:08.000Z</time>
</trkpt>
<trkpt lat="31.0378465" lon="35.2861165">
<ele>219.320007</ele>
<time>2012-03-09T09:27:09.000Z</time>
</trkpt>
<trkpt lat="31.0378162" lon="35.2861600">
<ele>217.880005</ele>
<time>2012-03-09T09:27:10.000Z</time>
</trkpt>
<trkpt lat="31.0377903" lon="35.2862085">
<ele>216.430008</ele>
<time>2012-03-09T09:27:11.000Z</time>
</trkpt>
<trkpt lat="31.0377676" lon="35.2862599">
<ele>215.949997</ele>
<time>2012-03-09T09:27:12.000Z</time>
</trkpt>
<trkpt lat="31.0377459" lon="35.2863132">
<ele>215.469986</ele>
<time>2012-03-09T09:27:13.000Z</time>
</trkpt>
<trkpt lat="31.0376993" lon="35.2864233">
<ele>213.550003</ele>
<time>2012-03-09T09:27:15.000Z</time>
</trkpt>
<trkpt lat="31.0376719" lon="35.2864715">
<ele>212.109985</ele>
<time>2012-03-09T09:27:16.000Z</time>
</trkpt>
<trkpt lat="31.0375763" lon="35.2866235">
<ele>208.259995</ele>
<time>2012-03-09T09:27:19.000Z</time>
</trkpt>
<trkpt lat="31.0374797" lon="35.2867758">
<ele>204.420013</ele>
<time>2012-03-09T09:27:22.000Z</time>
</trkpt>
<trkpt lat="31.0373804" lon="35.2869370">
<ele>201.050003</ele>
<time>2012-03-09T09:27:25.000Z</time>
</trkpt>
<trkpt lat="31.0372732" lon="35.2871178">
<ele>196.250000</ele>
<time>2012-03-09T09:27:28.000Z</time>
</trkpt>
<trkpt lat="31.0372016" lon="35.2872437">
<ele>193.359985</ele>
<time>2012-03-09T09:27:30.000Z</time>
</trkpt>
<trkpt lat="31.0371114" lon="35.2874423">
<ele>189.039993</ele>
<time>2012-03-09T09:27:33.000Z</time>
</trkpt>
<trkpt lat="31.0370414" lon="35.2876382">
<ele>185.670013</ele>
<time>2012-03-09T09:27:36.000Z</time>
</trkpt>
<trkpt lat="31.0370266" lon="35.2876977">
<ele>183.750000</ele>
<time>2012-03-09T09:27:37.000Z</time>
</trkpt>
<trkpt lat="31.0370208" lon="35.2877565">
<ele>183.270004</ele>
<time>2012-03-09T09:27:38.000Z</time>
</trkpt>
<trkpt lat="31.0370210" lon="35.2878165">
<ele>182.310013</ele>
<time>2012-03-09T09:27:39.000Z</time>
</trkpt>
<trkpt lat="31.0370267" lon="35.2878772">
<ele>181.349991</ele>
<time>2012-03-09T09:27:40.000Z</time>
</trkpt>
<trkpt lat="31.0370386" lon="35.2879406">
<ele>180.380005</ele>
<time>2012-03-09T09:27:41.000Z</time>
</trkpt>
<trkpt lat="31.0370592" lon="35.2880064">
<ele>179.420013</ele>
<time>2012-03-09T09:27:42.000Z</time>
</trkpt>
<trkpt lat="31.0370871" lon="35.2880714">
<ele>179.420013</ele>
<time>2012-03-09T09:27:43.000Z</time>
</trkpt>
<trkpt lat="31.0371179" lon="35.2881310">
<ele>178.940002</ele>
<time>2012-03-09T09:27:44.000Z</time>
</trkpt>
<trkpt lat="31.0371478" lon="35.2881864">
<ele>177.979996</ele>
<time>2012-03-09T09:27:45.000Z</time>
</trkpt>
<trkpt lat="31.0373082" lon="35.2885116">
<ele>174.619995</ele>
<time>2012-03-09T09:27:52.000Z</time>
</trkpt>
<trkpt lat="31.0373395" lon="35.2886137">
<ele>173.170013</ele>
<time>2012-03-09T09:27:54.000Z</time>
</trkpt>
<trkpt lat="31.0373489" lon="35.2886747">
<ele>172.690002</ele>
<time>2012-03-09T09:27:55.000Z</time>
</trkpt>
<trkpt lat="31.0373551" lon="35.2889284">
<ele>168.849991</ele>
<time>2012-03-09T09:27:59.000Z</time>
</trkpt>
<trkpt lat="31.0373367" lon="35.2892332">
<ele>165.000000</ele>
<time>2012-03-09T09:28:03.000Z</time>
</trkpt>
<trkpt lat="31.0373218" lon="35.2894505">
<ele>161.639999</ele>
<time>2012-03-09T09:28:06.000Z</time>
</trkpt>
<trkpt lat="31.0372897" lon="35.2896787">
<ele>157.789993</ele>
<time>2012-03-09T09:28:10.000Z</time>
</trkpt>
<trkpt lat="31.0372512" lon="35.2897478">
<ele>157.310013</ele>
<time>2012-03-09T09:28:12.000Z</time>
</trkpt>
<trkpt lat="31.0372257" lon="35.2897590">
<ele>158.270004</ele>
<time>2012-03-09T09:28:13.000Z</time>
</trkpt>
<trkpt lat="31.0372050" lon="35.2897631">
<ele>157.310013</ele>
<time>2012-03-09T09:28:14.000Z</time>
</trkpt>
<trkpt lat="31.0371879" lon="35.2897660">
<ele>156.830002</ele>
<time>2012-03-09T09:28:15.000Z</time>
</trkpt>
<trkpt lat="31.0371751" lon="35.2897696">
<ele>157.310013</ele>
<time>2012-03-09T09:28:16.000Z</time>
</trkpt>
<trkpt lat="31.0370971" lon="35.2896771">
<ele>159.720001</ele>
<time>2012-03-09T09:28:24.000Z</time>
</trkpt>
<trkpt lat="31.0370981" lon="35.2896350">
<ele>160.200012</ele>
<time>2012-03-09T09:28:27.000Z</time>
</trkpt>
<trkpt lat="31.0370771" lon="35.2895249">
<ele>161.639999</ele>
<time>2012-03-09T09:28:36.000Z</time>
</trkpt>
<trkpt lat="31.0370040" lon="35.2893619">
<ele>165.000000</ele>
<time>2012-03-09T09:28:49.000Z</time>
</trkpt>
<trkpt lat="31.0369659" lon="35.2893286">
<ele>166.450012</ele>
<time>2012-03-09T09:28:53.000Z</time>
</trkpt>
<trkpt lat="31.0368837" lon="35.2892590">
<ele>169.330002</ele>
<time>2012-03-09T09:29:04.000Z</time>
</trkpt>
<trkpt lat="31.0368628" lon="35.2892449">
<ele>169.330002</ele>
<time>2012-03-09T09:29:06.000Z</time>
</trkpt>
<trkpt lat="31.0368148" lon="35.2892069">
<ele>170.770004</ele>
<time>2012-03-09T09:29:13.000Z</time>
</trkpt>
<trkpt lat="31.0367622" lon="35.2891884">
<ele>171.729996</ele>
<time>2012-03-09T09:29:20.000Z</time>
</trkpt>
<trkpt lat="31.0367187" lon="35.2892119">
<ele>172.690002</ele>
<time>2012-03-09T09:29:26.000Z</time>
</trkpt>
<trkpt lat="31.0366188" lon="35.2893994">
<ele>172.690002</ele>
<time>2012-03-09T09:29:39.000Z</time>
</trkpt>
<trkpt lat="31.0366489" lon="35.2899136">
<ele>169.810013</ele>
<time>2012-03-09T09:29:52.000Z</time>
</trkpt>
<trkpt lat="31.0365797" lon="35.2901330">
<ele>168.849991</ele>
<time>2012-03-09T09:29:58.000Z</time>
</trkpt>
<trkpt lat="31.0365418" lon="35.2901585">
<ele>168.369995</ele>
<time>2012-03-09T09:29:59.000Z</time>
</trkpt>
<trkpt lat="31.0365003" lon="35.2901796">
<ele>167.889999</ele>
<time>2012-03-09T09:30:00.000Z</time>
</trkpt>
<trkpt lat="31.0362542" lon="35.2904014">
<ele>166.929993</ele>
<time>2012-03-09T09:30:10.000Z</time>
</trkpt>
<trkpt lat="31.0361731" lon="35.2908111">
<ele>164.039993</ele>
<time>2012-03-09T09:30:21.000Z</time>
</trkpt>
<trkpt lat="31.0359462" lon="35.2911214">
<ele>161.160004</ele>
<time>2012-03-09T09:30:31.000Z</time>
</trkpt>
<trkpt lat="31.0358106" lon="35.2912315">
<ele>160.679993</ele>
<time>2012-03-09T09:30:36.000Z</time>
</trkpt>
<trkpt lat="31.0357788" lon="35.2912710">
<ele>159.720001</ele>
<time>2012-03-09T09:30:37.000Z</time>
</trkpt>
<trkpt lat="31.0357415" lon="35.2913209">
<ele>158.750000</ele>
<time>2012-03-09T09:30:38.000Z</time>
</trkpt>
<trkpt lat="31.0356756" lon="35.2914089">
<ele>156.830002</ele>
<time>2012-03-09T09:30:40.000Z</time>
</trkpt>
<trkpt lat="31.0356407" lon="35.2914376">
<ele>155.869995</ele>
<time>2012-03-09T09:30:41.000Z</time>
</trkpt>
<trkpt lat="31.0355578" lon="35.2914844">
<ele>155.389999</ele>
<time>2012-03-09T09:30:43.000Z</time>
</trkpt>
<trkpt lat="31.0355097" lon="35.2914980">
<ele>155.389999</ele>
<time>2012-03-09T09:30:44.000Z</time>
</trkpt>
<trkpt lat="31.0354613" lon="35.2915027">
<ele>155.389999</ele>
<time>2012-03-09T09:30:45.000Z</time>
</trkpt>
<trkpt lat="31.0354150" lon="35.2915009">
<ele>154.909988</ele>
<time>2012-03-09T09:30:46.000Z</time>
</trkpt>
<trkpt lat="31.0353732" lon="35.2914939">
<ele>155.389999</ele>
<time>2012-03-09T09:30:47.000Z</time>
</trkpt>
<trkpt lat="31.0353316" lon="35.2914849">
<ele>155.389999</ele>
<time>2012-03-09T09:30:48.000Z</time>
</trkpt>
<trkpt lat="31.0352477" lon="35.2914775">
<ele>155.389999</ele>
<time>2012-03-09T09:30:50.000Z</time>
</trkpt>
<trkpt lat="31.0350571" lon="35.2914752">
<ele>152.990005</ele>
<time>2012-03-09T09:30:54.000Z</time>
</trkpt>
<trkpt lat="31.0350042" lon="35.2914623">
<ele>152.510010</ele>
<time>2012-03-09T09:30:55.000Z</time>
</trkpt>
<trkpt lat="31.0349535" lon="35.2914410">
<ele>151.539993</ele>
<time>2012-03-09T09:30:56.000Z</time>
</trkpt>
<trkpt lat="31.0349086" lon="35.2914120">
<ele>151.059998</ele>
<time>2012-03-09T09:30:57.000Z</time>
</trkpt>
<trkpt lat="31.0348627" lon="35.2913791">
<ele>150.100006</ele>
<time>2012-03-09T09:30:58.000Z</time>
</trkpt>
<trkpt lat="31.0348128" lon="35.2913459">
<ele>148.659988</ele>
<time>2012-03-09T09:30:59.000Z</time>
</trkpt>
<trkpt lat="31.0344499" lon="35.2912200">
<ele>148.179993</ele>
<time>2012-03-09T09:31:09.000Z</time>
</trkpt>
<trkpt lat="31.0344303" lon="35.2912286">
<ele>148.179993</ele>
<time>2012-03-09T09:31:10.000Z</time>
</trkpt>
<trkpt lat="31.0344073" lon="35.2912447">
<ele>147.220001</ele>
<time>2012-03-09T09:31:11.000Z</time>
</trkpt>
<trkpt lat="31.0343882" lon="35.2912643">
<ele>146.740005</ele>
<time>2012-03-09T09:31:12.000Z</time>
</trkpt>
<trkpt lat="31.0343770" lon="35.2912896">
<ele>145.779999</ele>
<time>2012-03-09T09:31:13.000Z</time>
</trkpt>
<trkpt lat="31.0343722" lon="35.2913169">
<ele>145.779999</ele>
<time>2012-03-09T09:31:14.000Z</time>
</trkpt>
<trkpt lat="31.0343768" lon="35.2913473">
<ele>145.300003</ele>
<time>2012-03-09T09:31:15.000Z</time>
</trkpt>
<trkpt lat="31.0343895" lon="35.2913768">
<ele>145.300003</ele>
<time>2012-03-09T09:31:16.000Z</time>
</trkpt>
<trkpt lat="31.0344048" lon="35.2914013">
<ele>145.300003</ele>
<time>2012-03-09T09:31:17.000Z</time>
</trkpt>
<trkpt lat="31.0344235" lon="35.2914189">
<ele>144.819992</ele>
<time>2012-03-09T09:31:18.000Z</time>
</trkpt>
<trkpt lat="31.0344487" lon="35.2914366">
<ele>144.819992</ele>
<time>2012-03-09T09:31:19.000Z</time>
</trkpt>
<trkpt lat="31.0344768" lon="35.2914433">
<ele>144.819992</ele>
<time>2012-03-09T09:31:20.000Z</time>
</trkpt>
<trkpt lat="31.0345775" lon="35.2915021">
<ele>143.850006</ele>
<time>2012-03-09T09:31:23.000Z</time>
</trkpt>
<trkpt lat="31.0346033" lon="35.2915437">
<ele>142.889999</ele>
<time>2012-03-09T09:31:24.000Z</time>
</trkpt>
<trkpt lat="31.0346221" lon="35.2915889">
<ele>141.929993</ele>
<time>2012-03-09T09:31:25.000Z</time>
</trkpt>
<trkpt lat="31.0346515" lon="35.2916767">
<ele>140.490005</ele>
<time>2012-03-09T09:31:27.000Z</time>
</trkpt>
<trkpt lat="31.0346627" lon="35.2917278">
<ele>139.529999</ele>
<time>2012-03-09T09:31:28.000Z</time>
</trkpt>
<trkpt lat="31.0346851" lon="35.2918389">
<ele>137.610001</ele>
<time>2012-03-09T09:31:30.000Z</time>
</trkpt>
<trkpt lat="31.0347020" lon="35.2918872">
<ele>136.639999</ele>
<time>2012-03-09T09:31:31.000Z</time>
</trkpt>
<trkpt lat="31.0347223" lon="35.2919347">
<ele>136.159988</ele>
<time>2012-03-09T09:31:32.000Z</time>
</trkpt>
<trkpt lat="31.0347509" lon="35.2919818">
<ele>135.199997</ele>
<time>2012-03-09T09:31:33.000Z</time>
</trkpt>
<trkpt lat="31.0347871" lon="35.2920176">
<ele>134.720001</ele>
<time>2012-03-09T09:31:34.000Z</time>
</trkpt>
<trkpt lat="31.0348212" lon="35.2920445">
<ele>135.199997</ele>
<time>2012-03-09T09:31:35.000Z</time>
</trkpt>
<trkpt lat="31.0348587" lon="35.2920915">
<ele>135.199997</ele>
<time>2012-03-09T09:31:37.000Z</time>
</trkpt>
<trkpt lat="31.0347632" lon="35.2922704">
<ele>134.720001</ele>
<time>2012-03-09T09:31:46.000Z</time>
</trkpt>
<trkpt lat="31.0347835" lon="35.2922158">
<ele>135.199997</ele>
<time>2012-03-09T09:32:14.000Z</time>
</trkpt>
<trkpt lat="31.0347843" lon="35.2922201">
<ele>135.199997</ele>
<time>2012-03-09T09:32:38.000Z</time>
</trkpt>
<trkpt lat="31.0345899" lon="35.2923978">
<ele>134.240005</ele>
<time>2012-03-09T09:32:48.000Z</time>
</trkpt>
<trkpt lat="31.0345473" lon="35.2924198">
<ele>133.760010</ele>
<time>2012-03-09T09:32:49.000Z</time>
</trkpt>
<trkpt lat="31.0344997" lon="35.2924522">
<ele>133.279999</ele>
<time>2012-03-09T09:32:50.000Z</time>
</trkpt>
<trkpt lat="31.0344501" lon="35.2924949">
<ele>133.279999</ele>
<time>2012-03-09T09:32:51.000Z</time>
</trkpt>
<trkpt lat="31.0344044" lon="35.2925481">
<ele>132.319992</ele>
<time>2012-03-09T09:32:52.000Z</time>
</trkpt>
<trkpt lat="31.0343660" lon="35.2926022">
<ele>131.839996</ele>
<time>2012-03-09T09:32:53.000Z</time>
</trkpt>
<trkpt lat="31.0342617" lon="35.2927744">
<ele>129.919998</ele>
<time>2012-03-09T09:32:56.000Z</time>
</trkpt>
<trkpt lat="31.0342353" lon="35.2928398">
<ele>128.949997</ele>
<time>2012-03-09T09:32:57.000Z</time>
</trkpt>
<trkpt lat="31.0341753" lon="35.2930090">
<ele>127.030006</ele>
<time>2012-03-09T09:32:59.000Z</time>
</trkpt>
<trkpt lat="31.0341494" lon="35.2931057">
<ele>125.589996</ele>
<time>2012-03-09T09:33:00.000Z</time>
</trkpt>
<trkpt lat="31.0341297" lon="35.2931884">
<ele>124.630005</ele>
<time>2012-03-09T09:33:01.000Z</time>
</trkpt>
<trkpt lat="31.0341115" lon="35.2932598">
<ele>125.589996</ele>
<time>2012-03-09T09:33:02.000Z</time>
</trkpt>
<trkpt lat="31.0340867" lon="35.2933221">
<ele>126.070000</ele>
<time>2012-03-09T09:33:03.000Z</time>
</trkpt>
<trkpt lat="31.0340611" lon="35.2933698">
<ele>126.070000</ele>
<time>2012-03-09T09:33:04.000Z</time>
</trkpt>
<trkpt lat="31.0339667" lon="35.2935274">
<ele>125.589996</ele>
<time>2012-03-09T09:33:08.000Z</time>
</trkpt>
<trkpt lat="31.0338428" lon="35.2936608">
<ele>125.589996</ele>
<time>2012-03-09T09:33:12.000Z</time>
</trkpt>
<trkpt lat="31.0337254" lon="35.2937674">
<ele>124.150002</ele>
<time>2012-03-09T09:33:15.000Z</time>
</trkpt>
<trkpt lat="31.0336840" lon="35.2937972">
<ele>123.669998</ele>
<time>2012-03-09T09:33:16.000Z</time>
</trkpt>
<trkpt lat="31.0336472" lon="35.2938265">
<ele>123.189995</ele>
<time>2012-03-09T09:33:17.000Z</time>
</trkpt>
<trkpt lat="31.0335564" lon="35.2939051">
<ele>121.740005</ele>
<time>2012-03-09T09:33:20.000Z</time>
</trkpt>
<trkpt lat="31.0334620" lon="35.2939766">
<ele>119.820000</ele>
<time>2012-03-09T09:33:23.000Z</time>
</trkpt>
<trkpt lat="31.0332775" lon="35.2941653">
<ele>116.459999</ele>
<time>2012-03-09T09:33:30.000Z</time>
</trkpt>
<trkpt lat="31.0331891" lon="35.2942404">
<ele>114.530006</ele>
<time>2012-03-09T09:33:33.000Z</time>
</trkpt>
<trkpt lat="31.0331625" lon="35.2942811">
<ele>114.049995</ele>
<time>2012-03-09T09:33:34.000Z</time>
</trkpt>
<trkpt lat="31.0331341" lon="35.2943230">
<ele>113.570000</ele>
<time>2012-03-09T09:33:35.000Z</time>
</trkpt>
<trkpt lat="31.0331083" lon="35.2943693">
<ele>112.610001</ele>
<time>2012-03-09T09:33:36.000Z</time>
</trkpt>
<trkpt lat="31.0330848" lon="35.2944159">
<ele>112.610001</ele>
<time>2012-03-09T09:33:37.000Z</time>
</trkpt>
<trkpt lat="31.0330618" lon="35.2944642">
<ele>112.130005</ele>
<time>2012-03-09T09:33:38.000Z</time>
</trkpt>
<trkpt lat="31.0330208" lon="35.2945543">
<ele>110.689995</ele>
<time>2012-03-09T09:33:40.000Z</time>
</trkpt>
<trkpt lat="31.0329976" lon="35.2945987">
<ele>110.209999</ele>
<time>2012-03-09T09:33:41.000Z</time>
</trkpt>
<trkpt lat="31.0329788" lon="35.2946456">
<ele>109.730003</ele>
<time>2012-03-09T09:33:42.000Z</time>
</trkpt>
<trkpt lat="31.0329652" lon="35.2946942">
<ele>108.770004</ele>
<time>2012-03-09T09:33:43.000Z</time>
</trkpt>
<trkpt lat="31.0329520" lon="35.2947415">
<ele>108.770004</ele>
<time>2012-03-09T09:33:44.000Z</time>
</trkpt>
<trkpt lat="31.0329415" lon="35.2947891">
<ele>108.290001</ele>
<time>2012-03-09T09:33:45.000Z</time>
</trkpt>
<trkpt lat="31.0328908" lon="35.2949791">
<ele>105.880005</ele>
<time>2012-03-09T09:33:49.000Z</time>
</trkpt>
<trkpt lat="31.0328253" lon="35.2952434">
<ele>103.000000</ele>
<time>2012-03-09T09:33:55.000Z</time>
</trkpt>
<trkpt lat="31.0328176" lon="35.2952966">
<ele>102.040001</ele>
<time>2012-03-09T09:33:56.000Z</time>
</trkpt>
<trkpt lat="31.0328051" lon="35.2953499">
<ele>102.040001</ele>
<time>2012-03-09T09:33:57.000Z</time>
</trkpt>
<trkpt lat="31.0327241" lon="35.2956187">
<ele>99.150002</ele>
<time>2012-03-09T09:34:02.000Z</time>
</trkpt>
<trkpt lat="31.0326722" lon="35.2958162">
<ele>95.790001</ele>
<time>2012-03-09T09:34:06.000Z</time>
</trkpt>
<trkpt lat="31.0326793" lon="35.2958232">
<ele>94.829994</ele>
<time>2012-03-09T09:34:08.000Z</time>
</trkpt>
<trkpt lat="31.0326755" lon="35.2958228">
<ele>94.829994</ele>
<time>2012-03-09T09:34:19.000Z</time>
</trkpt>
<trkpt lat="31.0326705" lon="35.2958417">
<ele>94.829994</ele>
<time>2012-03-09T09:34:20.000Z</time>
</trkpt>
<trkpt lat="31.0326620" lon="35.2958665">
<ele>94.829994</ele>
<time>2012-03-09T09:34:21.000Z</time>
</trkpt>
<trkpt lat="31.0326383" lon="35.2959783">
<ele>94.349998</ele>
<time>2012-03-09T09:34:25.000Z</time>
</trkpt>
<trkpt lat="31.0326250" lon="35.2960109">
<ele>94.349998</ele>
<time>2012-03-09T09:34:26.000Z</time>
</trkpt>
<trkpt lat="31.0326126" lon="35.2960396">
<ele>94.829994</ele>
<time>2012-03-09T09:34:27.000Z</time>
</trkpt>
<trkpt lat="31.0325998" lon="35.2960669">
<ele>94.349998</ele>
<time>2012-03-09T09:34:28.000Z</time>
</trkpt>
<trkpt lat="31.0325820" lon="35.2960936">
<ele>94.349998</ele>
<time>2012-03-09T09:34:29.000Z</time>
</trkpt>
<trkpt lat="31.0325601" lon="35.2961165">
<ele>94.349998</ele>
<time>2012-03-09T09:34:30.000Z</time>
</trkpt>
<trkpt lat="31.0323821" lon="35.2962692">
<ele>91.939995</ele>
<time>2012-03-09T09:34:37.000Z</time>
</trkpt>
<trkpt lat="31.0323639" lon="35.2962724">
<ele>90.980003</ele>
<time>2012-03-09T09:34:43.000Z</time>
</trkpt>
<trkpt lat="31.0323528" lon="35.2962833">
<ele>91.459999</ele>
<time>2012-03-09T09:34:44.000Z</time>
</trkpt>
<trkpt lat="31.0323351" lon="35.2962923">
<ele>91.459999</ele>
<time>2012-03-09T09:34:45.000Z</time>
</trkpt>
<trkpt lat="31.0321466" lon="35.2963878">
<ele>89.059998</ele>
<time>2012-03-09T09:34:55.000Z</time>
</trkpt>
<trkpt lat="31.0321392" lon="35.2963916">
<ele>89.059998</ele>
<time>2012-03-09T09:35:14.000Z</time>
</trkpt>
<trkpt lat="31.0321245" lon="35.2964061">
<ele>88.579994</ele>
<time>2012-03-09T09:35:15.000Z</time>
</trkpt>
<trkpt lat="31.0321037" lon="35.2964269">
<ele>88.579994</ele>
<time>2012-03-09T09:35:16.000Z</time>
</trkpt>
<trkpt lat="31.0320804" lon="35.2964565">
<ele>88.579994</ele>
<time>2012-03-09T09:35:17.000Z</time>
</trkpt>
<trkpt lat="31.0320575" lon="35.2964910">
<ele>88.099998</ele>
<time>2012-03-09T09:35:18.000Z</time>
</trkpt>
<trkpt lat="31.0320387" lon="35.2965254">
<ele>88.099998</ele>
<time>2012-03-09T09:35:19.000Z</time>
</trkpt>
<trkpt lat="31.0320205" lon="35.2965587">
<ele>88.099998</ele>
<time>2012-03-09T09:35:20.000Z</time>
</trkpt>
<trkpt lat="31.0318152" lon="35.2968798">
<ele>88.579994</ele>
<time>2012-03-09T09:35:32.000Z</time>
</trkpt>
<trkpt lat="31.0316767" lon="35.2969754">
<ele>88.099998</ele>
<time>2012-03-09T09:35:41.000Z</time>
</trkpt>
<trkpt lat="31.0316682" lon="35.2969809">
<ele>87.620003</ele>
<time>2012-03-09T09:36:03.000Z</time>
</trkpt>
<trkpt lat="31.0316519" lon="35.2969909">
<ele>87.620003</ele>
<time>2012-03-09T09:36:04.000Z</time>
</trkpt>
<trkpt lat="31.0316325" lon="35.2970054">
<ele>87.620003</ele>
<time>2012-03-09T09:36:05.000Z</time>
</trkpt>
<trkpt lat="31.0316086" lon="35.2970243">
<ele>87.139999</ele>
<time>2012-03-09T09:36:06.000Z</time>
</trkpt>
<trkpt lat="31.0315792" lon="35.2970433">
<ele>87.620003</ele>
<time>2012-03-09T09:36:07.000Z</time>
</trkpt>
<trkpt lat="31.0315459" lon="35.2970583">
<ele>87.620003</ele>
<time>2012-03-09T09:36:08.000Z</time>
</trkpt>
<trkpt lat="31.0312906" lon="35.2972215">
<ele>86.660004</ele>
<time>2012-03-09T09:36:16.000Z</time>
</trkpt>
<trkpt lat="31.0310818" lon="35.2973245">
<ele>88.579994</ele>
<time>2012-03-09T09:36:29.000Z</time>
</trkpt>
<trkpt lat="31.0308564" lon="35.2974242">
<ele>90.020004</ele>
<time>2012-03-09T09:36:42.000Z</time>
</trkpt>
<trkpt lat="31.0305793" lon="35.2975473">
<ele>90.500000</ele>
<time>2012-03-09T09:36:53.000Z</time>
</trkpt>
<trkpt lat="31.0302237" lon="35.2977288">
<ele>90.500000</ele>
<time>2012-03-09T09:37:07.000Z</time>
</trkpt>
<trkpt lat="31.0299868" lon="35.2978212">
<ele>89.540001</ele>
<time>2012-03-09T09:37:17.000Z</time>
</trkpt>
<trkpt lat="31.0299671" lon="35.2978431">
<ele>90.020004</ele>
<time>2012-03-09T09:37:18.000Z</time>
</trkpt>
<trkpt lat="31.0299504" lon="35.2978685">
<ele>90.020004</ele>
<time>2012-03-09T09:37:19.000Z</time>
</trkpt>
<trkpt lat="31.0299390" lon="35.2978955">
<ele>90.500000</ele>
<time>2012-03-09T09:37:20.000Z</time>
</trkpt>
<trkpt lat="31.0299311" lon="35.2979192">
<ele>90.980003</ele>
<time>2012-03-09T09:37:21.000Z</time>
</trkpt>
<trkpt lat="31.0297296" lon="35.2981503">
<ele>91.459999</ele>
<time>2012-03-09T09:37:34.000Z</time>
</trkpt>
<trkpt lat="31.0294107" lon="35.2983656">
<ele>90.020004</ele>
<time>2012-03-09T09:37:46.000Z</time>
</trkpt>
<trkpt lat="31.0293591" lon="35.2983889">
<ele>89.540001</ele>
<time>2012-03-09T09:37:47.000Z</time>
</trkpt>
<trkpt lat="31.0293169" lon="35.2984072">
<ele>89.540001</ele>
<time>2012-03-09T09:37:48.000Z</time>
</trkpt>
<trkpt lat="31.0291663" lon="35.2984851">
<ele>91.459999</ele>
<time>2012-03-09T09:37:54.000Z</time>
</trkpt>
<trkpt lat="31.0288583" lon="35.2988045">
<ele>91.939995</ele>
<time>2012-03-09T09:38:09.000Z</time>
</trkpt>
<trkpt lat="31.0287032" lon="35.2990122">
<ele>93.389999</ele>
<time>2012-03-09T09:38:19.000Z</time>
</trkpt>
<trkpt lat="31.0287031" lon="35.2991045">
<ele>93.870003</ele>
<time>2012-03-09T09:38:23.000Z</time>
</trkpt>
<trkpt lat="31.0285375" lon="35.2993114">
<ele>95.309998</ele>
<time>2012-03-09T09:38:38.000Z</time>
</trkpt>
<trkpt lat="31.0282493" lon="35.2993362">
<ele>94.349998</ele>
<time>2012-03-09T09:38:50.000Z</time>
</trkpt>
<trkpt lat="31.0282036" lon="35.2993345">
<ele>93.870003</ele>
<time>2012-03-09T09:38:51.000Z</time>
</trkpt>
<trkpt lat="31.0281617" lon="35.2993463">
<ele>94.349998</ele>
<time>2012-03-09T09:38:52.000Z</time>
</trkpt>
<trkpt lat="31.0281249" lon="35.2993684">
<ele>93.870003</ele>
<time>2012-03-09T09:38:53.000Z</time>
</trkpt>
<trkpt lat="31.0280945" lon="35.2993935">
<ele>93.870003</ele>
<time>2012-03-09T09:38:54.000Z</time>
</trkpt>
<trkpt lat="31.0277992" lon="35.2995281">
<ele>94.829994</ele>
<time>2012-03-09T09:39:06.000Z</time>
</trkpt>
<trkpt lat="31.0273615" lon="35.2996183">
<ele>94.829994</ele>
<time>2012-03-09T09:39:22.000Z</time>
</trkpt>
<trkpt lat="31.0270969" lon="35.2994890">
<ele>93.389999</ele>
<time>2012-03-09T09:39:31.000Z</time>
</trkpt>
<trkpt lat="31.0270593" lon="35.2994986">
<ele>93.870003</ele>
<time>2012-03-09T09:39:32.000Z</time>
</trkpt>
<trkpt lat="31.0270273" lon="35.2995194">
<ele>93.389999</ele>
<time>2012-03-09T09:39:33.000Z</time>
</trkpt>
<trkpt lat="31.0269978" lon="35.2995460">
<ele>94.349998</ele>
<time>2012-03-09T09:39:34.000Z</time>
</trkpt>
<trkpt lat="31.0269720" lon="35.2995777">
<ele>94.349998</ele>
<time>2012-03-09T09:39:35.000Z</time>
</trkpt>
<trkpt lat="31.0269477" lon="35.2996109">
<ele>93.870003</ele>
<time>2012-03-09T09:39:36.000Z</time>
</trkpt>
<trkpt lat="31.0269233" lon="35.2996421">
<ele>93.389999</ele>
<time>2012-03-09T09:39:37.000Z</time>
</trkpt>
<trkpt lat="31.0266903" lon="35.2999577">
<ele>91.939995</ele>
<time>2012-03-09T09:39:49.000Z</time>
</trkpt>
<trkpt lat="31.0265199" lon="35.3002373">
<ele>91.459999</ele>
<time>2012-03-09T09:39:56.000Z</time>
</trkpt>
<trkpt lat="31.0264914" lon="35.3002710">
<ele>91.939995</ele>
<time>2012-03-09T09:39:57.000Z</time>
</trkpt>
<trkpt lat="31.0264629" lon="35.3003042">
<ele>91.939995</ele>
<time>2012-03-09T09:39:58.000Z</time>
</trkpt>
<trkpt lat="31.0261565" lon="35.3005706">
<ele>91.459999</ele>
<time>2012-03-09T09:40:08.000Z</time>
</trkpt>
<trkpt lat="31.0257811" lon="35.3008685">
<ele>90.980003</ele>
<time>2012-03-09T09:40:21.000Z</time>
</trkpt>
<trkpt lat="31.0257866" lon="35.3009659">
<ele>90.500000</ele>
<time>2012-03-09T09:40:31.000Z</time>
</trkpt>
<trkpt lat="31.0257606" lon="35.3009553">
<ele>90.500000</ele>
<time>2012-03-09T09:40:56.000Z</time>
</trkpt>
<trkpt lat="31.0257640" lon="35.3009495">
<ele>90.500000</ele>
<time>2012-03-09T09:41:17.000Z</time>
</trkpt>
<trkpt lat="31.0257505" lon="35.3009533">
<ele>90.980003</ele>
<time>2012-03-09T09:41:30.000Z</time>
</trkpt>
<trkpt lat="31.0257422" lon="35.3009672">
<ele>90.980003</ele>
<time>2012-03-09T09:41:31.000Z</time>
</trkpt>
<trkpt lat="31.0257344" lon="35.3009840">
<ele>90.980003</ele>
<time>2012-03-09T09:41:32.000Z</time>
</trkpt>
<trkpt lat="31.0257015" lon="35.3010349">
<ele>90.980003</ele>
<time>2012-03-09T09:41:35.000Z</time>
</trkpt>
<trkpt lat="31.0256812" lon="35.3010395">
<ele>91.459999</ele>
<time>2012-03-09T09:41:36.000Z</time>
</trkpt>
<trkpt lat="31.0256568" lon="35.3010442">
<ele>90.980003</ele>
<time>2012-03-09T09:41:37.000Z</time>
</trkpt>
<trkpt lat="31.0256315" lon="35.3010514">
<ele>90.980003</ele>
<time>2012-03-09T09:41:38.000Z</time>
</trkpt>
<trkpt lat="31.0256043" lon="35.3010635">
<ele>90.500000</ele>
<time>2012-03-09T09:41:39.000Z</time>
</trkpt>
<trkpt lat="31.0255783" lon="35.3010822">
<ele>90.500000</ele>
<time>2012-03-09T09:41:40.000Z</time>
</trkpt>
<trkpt lat="31.0255559" lon="35.3011041">
<ele>90.980003</ele>
<time>2012-03-09T09:41:41.000Z</time>
</trkpt>
<trkpt lat="31.0255321" lon="35.3011246">
<ele>90.980003</ele>
<time>2012-03-09T09:41:42.000Z</time>
</trkpt>
<trkpt lat="31.0255069" lon="35.3011437">
<ele>91.459999</ele>
<time>2012-03-09T09:41:43.000Z</time>
</trkpt>
<trkpt lat="31.0252918" lon="35.3012423">
<ele>89.059998</ele>
<time>2012-03-09T09:41:49.000Z</time>
</trkpt>
<trkpt lat="31.0252351" lon="35.3012483">
<ele>88.579994</ele>
<time>2012-03-09T09:41:50.000Z</time>
</trkpt>
<trkpt lat="31.0250666" lon="35.3012740">
<ele>87.139999</ele>
<time>2012-03-09T09:41:53.000Z</time>
</trkpt>
<trkpt lat="31.0249574" lon="35.3013196">
<ele>87.139999</ele>
<time>2012-03-09T09:41:55.000Z</time>
</trkpt>
<trkpt lat="31.0247913" lon="35.3013531">
<ele>86.660004</ele>
<time>2012-03-09T09:41:58.000Z</time>
</trkpt>
<trkpt lat="31.0247344" lon="35.3013526">
<ele>86.660004</ele>
<time>2012-03-09T09:41:59.000Z</time>
</trkpt>
<trkpt lat="31.0245305" lon="35.3013628">
<ele>85.209999</ele>
<time>2012-03-09T09:42:03.000Z</time>
</trkpt>
<trkpt lat="31.0244943" lon="35.3013797">
<ele>85.209999</ele>
<time>2012-03-09T09:42:04.000Z</time>
</trkpt>
<trkpt lat="31.0244665" lon="35.3014022">
<ele>84.730003</ele>
<time>2012-03-09T09:42:05.000Z</time>
</trkpt>
<trkpt lat="31.0244442" lon="35.3014324">
<ele>84.250000</ele>
<time>2012-03-09T09:42:06.000Z</time>
</trkpt>
<trkpt lat="31.0244214" lon="35.3014695">
<ele>83.770004</ele>
<time>2012-03-09T09:42:07.000Z</time>
</trkpt>
<trkpt lat="31.0243559" lon="35.3015976">
<ele>81.849998</ele>
<time>2012-03-09T09:42:10.000Z</time>
</trkpt>
<trkpt lat="31.0243312" lon="35.3016378">
<ele>81.849998</ele>
<time>2012-03-09T09:42:11.000Z</time>
</trkpt>
<trkpt lat="31.0243037" lon="35.3016754">
<ele>81.370003</ele>
<time>2012-03-09T09:42:12.000Z</time>
</trkpt>
<trkpt lat="31.0242745" lon="35.3017109">
<ele>80.889999</ele>
<time>2012-03-09T09:42:13.000Z</time>
</trkpt>
<trkpt lat="31.0242524" lon="35.3017439">
<ele>81.370003</ele>
<time>2012-03-09T09:42:14.000Z</time>
</trkpt>
<trkpt lat="31.0242411" lon="35.3017831">
<ele>80.410004</ele>
<time>2012-03-09T09:42:15.000Z</time>
</trkpt>
<trkpt lat="31.0242303" lon="35.3018197">
<ele>79.929993</ele>
<time>2012-03-09T09:42:16.000Z</time>
</trkpt>
<trkpt lat="31.0242124" lon="35.3018533">
<ele>80.410004</ele>
<time>2012-03-09T09:42:17.000Z</time>
</trkpt>
<trkpt lat="31.0241856" lon="35.3018884">
<ele>78.970001</ele>
<time>2012-03-09T09:42:18.000Z</time>
</trkpt>
<trkpt lat="31.0241538" lon="35.3019232">
<ele>77.519997</ele>
<time>2012-03-09T09:42:19.000Z</time>
</trkpt>
<trkpt lat="31.0241178" lon="35.3019580">
<ele>77.040001</ele>
<time>2012-03-09T09:42:20.000Z</time>
</trkpt>
<trkpt lat="31.0240765" lon="35.3019846">
<ele>76.080002</ele>
<time>2012-03-09T09:42:21.000Z</time>
</trkpt>
<trkpt lat="31.0239928" lon="35.3020284">
<ele>74.159996</ele>
<time>2012-03-09T09:42:23.000Z</time>
</trkpt>
<trkpt lat="31.0239638" lon="35.3020606">
<ele>74.159996</ele>
<time>2012-03-09T09:42:24.000Z</time>
</trkpt>
<trkpt lat="31.0239416" lon="35.3021013">
<ele>73.200005</ele>
<time>2012-03-09T09:42:25.000Z</time>
</trkpt>
<trkpt lat="31.0239244" lon="35.3021494">
<ele>72.720001</ele>
<time>2012-03-09T09:42:26.000Z</time>
</trkpt>
<trkpt lat="31.0239126" lon="35.3021977">
<ele>72.239998</ele>
<time>2012-03-09T09:42:27.000Z</time>
</trkpt>
<trkpt lat="31.0239058" lon="35.3022527">
<ele>71.269997</ele>
<time>2012-03-09T09:42:28.000Z</time>
</trkpt>
<trkpt lat="31.0239032" lon="35.3024039">
<ele>69.830002</ele>
<time>2012-03-09T09:42:30.000Z</time>
</trkpt>
<trkpt lat="31.0239207" lon="35.3027307">
<ele>67.909996</ele>
<time>2012-03-09T09:42:34.000Z</time>
</trkpt>
<trkpt lat="31.0239134" lon="35.3032013">
<ele>68.870003</ele>
<time>2012-03-09T09:42:42.000Z</time>
</trkpt>
<trkpt lat="31.0238714" lon="35.3034818">
<ele>69.830002</ele>
<time>2012-03-09T09:42:48.000Z</time>
</trkpt>
<trkpt lat="31.0236792" lon="35.3040007">
<ele>69.830002</ele>
<time>2012-03-09T09:43:01.000Z</time>
</trkpt>
<trkpt lat="31.0236477" lon="35.3043524">
<ele>70.790001</ele>
<time>2012-03-09T09:43:13.000Z</time>
</trkpt>
<trkpt lat="31.0236558" lon="35.3043764">
<ele>71.269997</ele>
<time>2012-03-09T09:43:14.000Z</time>
</trkpt>
<trkpt lat="31.0236610" lon="35.3044018">
<ele>71.269997</ele>
<time>2012-03-09T09:43:15.000Z</time>
</trkpt>
<trkpt lat="31.0236686" lon="35.3045156">
<ele>72.720001</ele>
<time>2012-03-09T09:43:20.000Z</time>
</trkpt>
<trkpt lat="31.0236677" lon="35.3045360">
<ele>72.239998</ele>
<time>2012-03-09T09:43:21.000Z</time>
</trkpt>
<trkpt lat="31.0236788" lon="35.3045980">
<ele>73.200005</ele>
<time>2012-03-09T09:43:24.000Z</time>
</trkpt>
<trkpt lat="31.0236421" lon="35.3048155">
<ele>74.159996</ele>
<time>2012-03-09T09:43:37.000Z</time>
</trkpt>
<trkpt lat="31.0234477" lon="35.3051278">
<ele>74.639999</ele>
<time>2012-03-09T09:43:52.000Z</time>
</trkpt>
<trkpt lat="31.0234158" lon="35.3053896">
<ele>76.080002</ele>
<time>2012-03-09T09:44:02.000Z</time>
</trkpt>
<trkpt lat="31.0234602" lon="35.3054832">
<ele>77.519997</ele>
<time>2012-03-09T09:44:08.000Z</time>
</trkpt>
<trkpt lat="31.0234700" lon="35.3054953">
<ele>77.519997</ele>
<time>2012-03-09T09:44:09.000Z</time>
</trkpt>
<trkpt lat="31.0234826" lon="35.3055068">
<ele>77.519997</ele>
<time>2012-03-09T09:44:10.000Z</time>
</trkpt>
<trkpt lat="31.0234961" lon="35.3055187">
<ele>77.519997</ele>
<time>2012-03-09T09:44:11.000Z</time>
</trkpt>
<trkpt lat="31.0235106" lon="35.3055303">
<ele>78.000000</ele>
<time>2012-03-09T09:44:12.000Z</time>
</trkpt>
<trkpt lat="31.0235277" lon="35.3055412">
<ele>78.000000</ele>
<time>2012-03-09T09:44:13.000Z</time>
</trkpt>
<trkpt lat="31.0235403" lon="35.3055559">
<ele>78.970001</ele>
<time>2012-03-09T09:44:14.000Z</time>
</trkpt>
<trkpt lat="31.0235468" lon="35.3055712">
<ele>79.449997</ele>
<time>2012-03-09T09:44:15.000Z</time>
</trkpt>
<trkpt lat="31.0235537" lon="35.3055824">
<ele>79.929993</ele>
<time>2012-03-09T09:44:16.000Z</time>
</trkpt>
<trkpt lat="31.0235525" lon="35.3055990">
<ele>80.410004</ele>
<time>2012-03-09T09:44:17.000Z</time>
</trkpt>
<trkpt lat="31.0235473" lon="35.3056153">
<ele>80.410004</ele>
<time>2012-03-09T09:44:18.000Z</time>
</trkpt>
<trkpt lat="31.0235438" lon="35.3056262">
<ele>80.410004</ele>
<time>2012-03-09T09:44:19.000Z</time>
</trkpt>
<trkpt lat="31.0235390" lon="35.3056384">
<ele>81.370003</ele>
<time>2012-03-09T09:44:20.000Z</time>
</trkpt>
<trkpt lat="31.0235298" lon="35.3056528">
<ele>81.370003</ele>
<time>2012-03-09T09:44:21.000Z</time>
</trkpt>
<trkpt lat="31.0235245" lon="35.3056661">
<ele>81.849998</ele>
<time>2012-03-09T09:44:22.000Z</time>
</trkpt>
<trkpt lat="31.0235166" lon="35.3056837">
<ele>81.370003</ele>
<time>2012-03-09T09:44:23.000Z</time>
</trkpt>
<trkpt lat="31.0235051" lon="35.3057091">
<ele>81.370003</ele>
<time>2012-03-09T09:44:24.000Z</time>
</trkpt>
<trkpt lat="31.0234314" lon="35.3060271">
<ele>80.889999</ele>
<time>2012-03-09T09:44:36.000Z</time>
</trkpt>
<trkpt lat="31.0233233" lon="35.3062499">
<ele>80.410004</ele>
<time>2012-03-09T09:44:45.000Z</time>
</trkpt>
<trkpt lat="31.0233271" lon="35.3062825">
<ele>80.410004</ele>
<time>2012-03-09T09:44:46.000Z</time>
</trkpt>
<trkpt lat="31.0233384" lon="35.3063093">
<ele>80.889999</ele>
<time>2012-03-09T09:44:47.000Z</time>
</trkpt>
<trkpt lat="31.0233457" lon="35.3063305">
<ele>80.410004</ele>
<time>2012-03-09T09:44:48.000Z</time>
</trkpt>
<trkpt lat="31.0233514" lon="35.3063465">
<ele>80.889999</ele>
<time>2012-03-09T09:44:49.000Z</time>
</trkpt>
<trkpt lat="31.0233553" lon="35.3063626">
<ele>80.889999</ele>
<time>2012-03-09T09:44:50.000Z</time>
</trkpt>
<trkpt lat="31.0233610" lon="35.3063789">
<ele>80.889999</ele>
<time>2012-03-09T09:44:51.000Z</time>
</trkpt>
<trkpt lat="31.0233758" lon="35.3064280">
<ele>82.329994</ele>
<time>2012-03-09T09:44:55.000Z</time>
</trkpt>
<trkpt lat="31.0233761" lon="35.3064421">
<ele>82.809998</ele>
<time>2012-03-09T09:44:56.000Z</time>
</trkpt>
<trkpt lat="31.0233747" lon="35.3064572">
<ele>82.329994</ele>
<time>2012-03-09T09:44:57.000Z</time>
</trkpt>
<trkpt lat="31.0233721" lon="35.3064706">
<ele>83.290001</ele>
<time>2012-03-09T09:45:06.000Z</time>
</trkpt>
<trkpt lat="31.0233616" lon="35.3064944">
<ele>82.809998</ele>
<time>2012-03-09T09:45:19.000Z</time>
</trkpt>
<trkpt lat="31.0233636" lon="35.3065607">
<ele>85.209999</ele>
<time>2012-03-09T09:45:31.000Z</time>
</trkpt>
<trkpt lat="31.0233558" lon="35.3066990">
<ele>86.660004</ele>
<time>2012-03-09T09:45:46.000Z</time>
</trkpt>
<trkpt lat="31.0233970" lon="35.3068021">
<ele>86.660004</ele>
<time>2012-03-09T09:46:00.000Z</time>
</trkpt>
<trkpt lat="31.0233760" lon="35.3071034">
<ele>87.620003</ele>
<time>2012-03-09T09:46:13.000Z</time>
</trkpt>
<trkpt lat="31.0233475" lon="35.3072367">
<ele>87.139999</ele>
<time>2012-03-09T09:46:24.000Z</time>
</trkpt>
<trkpt lat="31.0233769" lon="35.3073436">
<ele>86.179993</ele>
<time>2012-03-09T09:46:37.000Z</time>
</trkpt>
<trkpt lat="31.0233780" lon="35.3073958">
<ele>85.209999</ele>
<time>2012-03-09T09:46:48.000Z</time>
</trkpt>
<trkpt lat="31.0233761" lon="35.3074146">
<ele>83.770004</ele>
<time>2012-03-09T09:46:50.000Z</time>
</trkpt>
<trkpt lat="31.0233772" lon="35.3074261">
<ele>83.770004</ele>
<time>2012-03-09T09:46:51.000Z</time>
</trkpt>
<trkpt lat="31.0233788" lon="35.3074378">
<ele>83.770004</ele>
<time>2012-03-09T09:46:52.000Z</time>
</trkpt>
<trkpt lat="31.0233863" lon="35.3074496">
<ele>82.809998</ele>
<time>2012-03-09T09:46:58.000Z</time>
</trkpt>
<trkpt lat="31.0233910" lon="35.3074677">
<ele>82.809998</ele>
<time>2012-03-09T09:46:59.000Z</time>
</trkpt>
<trkpt lat="31.0233900" lon="35.3074931">
<ele>81.849998</ele>
<time>2012-03-09T09:47:00.000Z</time>
</trkpt>
<trkpt lat="31.0233859" lon="35.3075197">
<ele>81.849998</ele>
<time>2012-03-09T09:47:01.000Z</time>
</trkpt>
<trkpt lat="31.0233832" lon="35.3075496">
<ele>80.410004</ele>
<time>2012-03-09T09:47:02.000Z</time>
</trkpt>
<trkpt lat="31.0233810" lon="35.3075720">
<ele>79.929993</ele>
<time>2012-03-09T09:47:03.000Z</time>
</trkpt>
<trkpt lat="31.0233737" lon="35.3075925">
<ele>79.449997</ele>
<time>2012-03-09T09:47:04.000Z</time>
</trkpt>
<trkpt lat="31.0233591" lon="35.3076117">
<ele>78.480003</ele>
<time>2012-03-09T09:47:05.000Z</time>
</trkpt>
<trkpt lat="31.0233393" lon="35.3076281">
<ele>77.519997</ele>
<time>2012-03-09T09:47:06.000Z</time>
</trkpt>
<trkpt lat="31.0231076" lon="35.3077726">
<ele>74.159996</ele>
<time>2012-03-09T09:47:13.000Z</time>
</trkpt>
<trkpt lat="31.0230316" lon="35.3077744">
<ele>73.200005</ele>
<time>2012-03-09T09:47:15.000Z</time>
</trkpt>
<trkpt lat="31.0229891" lon="35.3077664">
<ele>73.200005</ele>
<time>2012-03-09T09:47:16.000Z</time>
</trkpt>
<trkpt lat="31.0229465" lon="35.3077528">
<ele>72.720001</ele>
<time>2012-03-09T09:47:17.000Z</time>
</trkpt>
<trkpt lat="31.0228667" lon="35.3077107">
<ele>71.760002</ele>
<time>2012-03-09T09:47:19.000Z</time>
</trkpt>
<trkpt lat="31.0226042" lon="35.3074163">
<ele>68.389999</ele>
<time>2012-03-09T09:47:27.000Z</time>
</trkpt>
<trkpt lat="31.0223672" lon="35.3070927">
<ele>66.470001</ele>
<time>2012-03-09T09:47:32.000Z</time>
</trkpt>
<trkpt lat="31.0221967" lon="35.3069256">
<ele>64.550003</ele>
<time>2012-03-09T09:47:35.000Z</time>
</trkpt>
<trkpt lat="31.0221390" lon="35.3069010">
<ele>64.550003</ele>
<time>2012-03-09T09:47:36.000Z</time>
</trkpt>
<trkpt lat="31.0220752" lon="35.3068884">
<ele>63.579998</ele>
<time>2012-03-09T09:47:37.000Z</time>
</trkpt>
<trkpt lat="31.0219445" lon="35.3068733">
<ele>62.620003</ele>
<time>2012-03-09T09:47:39.000Z</time>
</trkpt>
<trkpt lat="31.0218775" lon="35.3068572">
<ele>62.620003</ele>
<time>2012-03-09T09:47:40.000Z</time>
</trkpt>
<trkpt lat="31.0218094" lon="35.3068344">
<ele>62.620003</ele>
<time>2012-03-09T09:47:41.000Z</time>
</trkpt>
<trkpt lat="31.0211718" lon="35.3066045">
<ele>61.180000</ele>
<time>2012-03-09T09:47:51.000Z</time>
</trkpt>
<trkpt lat="31.0209403" lon="35.3064651">
<ele>63.579998</ele>
<time>2012-03-09T09:48:00.000Z</time>
</trkpt>
<trkpt lat="31.0208012" lon="35.3064751">
<ele>62.620003</ele>
<time>2012-03-09T09:48:08.000Z</time>
</trkpt>
<trkpt lat="31.0208447" lon="35.3065355">
<ele>63.579998</ele>
<time>2012-03-09T09:48:16.000Z</time>
</trkpt>
<trkpt lat="31.0208496" lon="35.3065369">
<ele>63.579998</ele>
<time>2012-03-09T09:48:45.000Z</time>
</trkpt>
<trkpt lat="31.0208505" lon="35.3065371">
<ele>63.099998</ele>
<time>2012-03-09T09:49:21.000Z</time>
</trkpt>
<trkpt lat="31.0208392" lon="35.3065483">
<ele>63.099998</ele>
<time>2012-03-09T09:49:45.000Z</time>
</trkpt>
<trkpt lat="31.0208352" lon="35.3065513">
<ele>63.099998</ele>
<time>2012-03-09T09:50:12.000Z</time>
</trkpt>
<trkpt lat="31.0208366" lon="35.3065480">
<ele>63.579998</ele>
<time>2012-03-09T09:50:40.000Z</time>
</trkpt>
<trkpt lat="31.0208360" lon="35.3065499">
<ele>62.620003</ele>
<time>2012-03-09T09:51:02.000Z</time>
</trkpt>
<trkpt lat="31.0207522" lon="35.3064989">
<ele>61.660000</ele>
<time>2012-03-09T09:51:08.000Z</time>
</trkpt>
<trkpt lat="31.0206422" lon="35.3065130">
<ele>61.180000</ele>
<time>2012-03-09T09:51:11.000Z</time>
</trkpt>
<trkpt lat="31.0205999" lon="35.3065134">
<ele>60.700001</ele>
<time>2012-03-09T09:51:12.000Z</time>
</trkpt>
<trkpt lat="31.0205560" lon="35.3065101">
<ele>60.700001</ele>
<time>2012-03-09T09:51:13.000Z</time>
</trkpt>
<trkpt lat="31.0205141" lon="35.3064976">
<ele>61.180000</ele>
<time>2012-03-09T09:51:14.000Z</time>
</trkpt>
<trkpt lat="31.0204744" lon="35.3064691">
<ele>61.180000</ele>
<time>2012-03-09T09:51:15.000Z</time>
</trkpt>
<trkpt lat="31.0204337" lon="35.3064284">
<ele>60.700001</ele>
<time>2012-03-09T09:51:16.000Z</time>
</trkpt>
<trkpt lat="31.0203929" lon="35.3063841">
<ele>60.700001</ele>
<time>2012-03-09T09:51:17.000Z</time>
</trkpt>
<trkpt lat="31.0200814" lon="35.3061238">
<ele>60.219997</ele>
<time>2012-03-09T09:51:24.000Z</time>
</trkpt>
<trkpt lat="31.0198731" lon="35.3058782">
<ele>62.139999</ele>
<time>2012-03-09T09:51:31.000Z</time>
</trkpt>
<trkpt lat="31.0198377" lon="35.3058514">
<ele>62.139999</ele>
<time>2012-03-09T09:51:32.000Z</time>
</trkpt>
<trkpt lat="31.0198002" lon="35.3058311">
<ele>62.139999</ele>
<time>2012-03-09T09:51:33.000Z</time>
</trkpt>
<trkpt lat="31.0197611" lon="35.3058178">
<ele>62.139999</ele>
<time>2012-03-09T09:51:34.000Z</time>
</trkpt>
<trkpt lat="31.0197197" lon="35.3058128">
<ele>62.620003</ele>
<time>2012-03-09T09:51:35.000Z</time>
</trkpt>
<trkpt lat="31.0196801" lon="35.3058075">
<ele>62.620003</ele>
<time>2012-03-09T09:51:36.000Z</time>
</trkpt>
<trkpt lat="31.0196423" lon="35.3057965">
<ele>63.099998</ele>
<time>2012-03-09T09:51:37.000Z</time>
</trkpt>
<trkpt lat="31.0196041" lon="35.3057823">
<ele>63.579998</ele>
<time>2012-03-09T09:51:38.000Z</time>
</trkpt>
<trkpt lat="31.0195648" lon="35.3057626">
<ele>63.579998</ele>
<time>2012-03-09T09:51:39.000Z</time>
</trkpt>
<trkpt lat="31.0195264" lon="35.3057403">
<ele>64.070000</ele>
<time>2012-03-09T09:51:40.000Z</time>
</trkpt>
<trkpt lat="31.0194925" lon="35.3057164">
<ele>64.070000</ele>
<time>2012-03-09T09:51:41.000Z</time>
</trkpt>
<trkpt lat="31.0194591" lon="35.3056918">
<ele>64.070000</ele>
<time>2012-03-09T09:51:42.000Z</time>
</trkpt>
<trkpt lat="31.0193811" lon="35.3056515">
<ele>64.070000</ele>
<time>2012-03-09T09:51:44.000Z</time>
</trkpt>
<trkpt lat="31.0193368" lon="35.3056463">
<ele>64.070000</ele>
<time>2012-03-09T09:51:45.000Z</time>
</trkpt>
<trkpt lat="31.0191764" lon="35.3056417">
<ele>65.510002</ele>
<time>2012-03-09T09:51:49.000Z</time>
</trkpt>
<trkpt lat="31.0190162" lon="35.3055857">
<ele>65.029999</ele>
<time>2012-03-09T09:51:53.000Z</time>
</trkpt>
<trkpt lat="31.0189747" lon="35.3055682">
<ele>65.029999</ele>
<time>2012-03-09T09:51:54.000Z</time>
</trkpt>
<trkpt lat="31.0183973" lon="35.3053282">
<ele>61.660000</ele>
<time>2012-03-09T09:52:04.000Z</time>
</trkpt>
<trkpt lat="31.0181450" lon="35.3052150">
<ele>58.299999</ele>
<time>2012-03-09T09:52:07.000Z</time>
</trkpt>
<trkpt lat="31.0180586" lon="35.3051889">
<ele>57.339996</ele>
<time>2012-03-09T09:52:08.000Z</time>
</trkpt>
<trkpt lat="31.0179752" lon="35.3051662">
<ele>57.339996</ele>
<time>2012-03-09T09:52:09.000Z</time>
</trkpt>
<trkpt lat="31.0174767" lon="35.3050010">
<ele>54.930000</ele>
<time>2012-03-09T09:52:15.000Z</time>
</trkpt>
<trkpt lat="31.0174045" lon="35.3049657">
<ele>54.930000</ele>
<time>2012-03-09T09:52:16.000Z</time>
</trkpt>
<trkpt lat="31.0173391" lon="35.3049260">
<ele>54.930000</ele>
<time>2012-03-09T09:52:17.000Z</time>
</trkpt>
<trkpt lat="31.0172723" lon="35.3048779">
<ele>54.450001</ele>
<time>2012-03-09T09:52:18.000Z</time>
</trkpt>
<trkpt lat="31.0172092" lon="35.3048238">
<ele>53.490002</ele>
<time>2012-03-09T09:52:19.000Z</time>
</trkpt>
<trkpt lat="31.0171504" lon="35.3047708">
<ele>53.010002</ele>
<time>2012-03-09T09:52:20.000Z</time>
</trkpt>
<trkpt lat="31.0167539" lon="35.3044553">
<ele>52.049999</ele>
<time>2012-03-09T09:52:27.000Z</time>
</trkpt>
<trkpt lat="31.0161065" lon="35.3040987">
<ele>51.089996</ele>
<time>2012-03-09T09:52:38.000Z</time>
</trkpt>
<trkpt lat="31.0159908" lon="35.3040405">
<ele>51.570000</ele>
<time>2012-03-09T09:52:40.000Z</time>
</trkpt>
<trkpt lat="31.0159358" lon="35.3040294">
<ele>51.570000</ele>
<time>2012-03-09T09:52:41.000Z</time>
</trkpt>
<trkpt lat="31.0158902" lon="35.3040347">
<ele>52.049999</ele>
<time>2012-03-09T09:52:42.000Z</time>
</trkpt>
<trkpt lat="31.0158393" lon="35.3040636">
<ele>53.010002</ele>
<time>2012-03-09T09:52:44.000Z</time>
</trkpt>
<trkpt lat="31.0156676" lon="35.3041956">
<ele>56.370003</ele>
<time>2012-03-09T09:52:55.000Z</time>
</trkpt>
<trkpt lat="31.0154355" lon="35.3042522">
<ele>57.820000</ele>
<time>2012-03-09T09:53:07.000Z</time>
</trkpt>
<trkpt lat="31.0151037" lon="35.3041505">
<ele>56.370003</ele>
<time>2012-03-09T09:53:18.000Z</time>
</trkpt>
<trkpt lat="31.0150505" lon="35.3041447">
<ele>55.410000</ele>
<time>2012-03-09T09:53:22.000Z</time>
</trkpt>
<trkpt lat="31.0150381" lon="35.3041494">
<ele>54.930000</ele>
<time>2012-03-09T09:53:23.000Z</time>
</trkpt>
<trkpt lat="31.0148763" lon="35.3041791">
<ele>51.089996</ele>
<time>2012-03-09T09:53:30.000Z</time>
</trkpt>
<trkpt lat="31.0148535" lon="35.3041649">
<ele>51.089996</ele>
<time>2012-03-09T09:53:31.000Z</time>
</trkpt>
<trkpt lat="31.0147995" lon="35.3041112">
<ele>49.650002</ele>
<time>2012-03-09T09:53:34.000Z</time>
</trkpt>
<trkpt lat="31.0147782" lon="35.3040993">
<ele>49.160000</ele>
<time>2012-03-09T09:53:35.000Z</time>
</trkpt>
<trkpt lat="31.0147599" lon="35.3040881">
<ele>49.160000</ele>
<time>2012-03-09T09:53:36.000Z</time>
</trkpt>
<trkpt lat="31.0147438" lon="35.3040799">
<ele>49.160000</ele>
<time>2012-03-09T09:53:37.000Z</time>
</trkpt>
<trkpt lat="31.0147292" lon="35.3040722">
<ele>49.160000</ele>
<time>2012-03-09T09:53:38.000Z</time>
</trkpt>
<trkpt lat="31.0147010" lon="35.3040538">
<ele>48.680000</ele>
<time>2012-03-09T09:53:40.000Z</time>
</trkpt>
<trkpt lat="31.0146858" lon="35.3040509">
<ele>49.160000</ele>
<time>2012-03-09T09:53:41.000Z</time>
</trkpt>
<trkpt lat="31.0146689" lon="35.3040446">
<ele>48.680000</ele>
<time>2012-03-09T09:53:42.000Z</time>
</trkpt>
<trkpt lat="31.0146498" lon="35.3040354">
<ele>48.200001</ele>
<time>2012-03-09T09:53:43.000Z</time>
</trkpt>
<trkpt lat="31.0146279" lon="35.3040294">
<ele>47.719997</ele>
<time>2012-03-09T09:53:44.000Z</time>
</trkpt>
<trkpt lat="31.0146050" lon="35.3040239">
<ele>47.719997</ele>
<time>2012-03-09T09:53:45.000Z</time>
</trkpt>
<trkpt lat="31.0145817" lon="35.3040181">
<ele>47.240002</ele>
<time>2012-03-09T09:53:46.000Z</time>
</trkpt>
<trkpt lat="31.0143771" lon="35.3039100">
<ele>45.320000</ele>
<time>2012-03-09T09:53:53.000Z</time>
</trkpt>
<trkpt lat="31.0143394" lon="35.3038808">
<ele>44.839996</ele>
<time>2012-03-09T09:53:54.000Z</time>
</trkpt>
<trkpt lat="31.0141279" lon="35.3037055">
<ele>43.400002</ele>
<time>2012-03-09T09:53:59.000Z</time>
</trkpt>
<trkpt lat="31.0139171" lon="35.3035793">
<ele>42.919998</ele>
<time>2012-03-09T09:54:03.000Z</time>
</trkpt>
<trkpt lat="31.0137306" lon="35.3035214">
<ele>41.469997</ele>
<time>2012-03-09T09:54:06.000Z</time>
</trkpt>
<trkpt lat="31.0135328" lon="35.3035070">
<ele>40.510002</ele>
<time>2012-03-09T09:54:09.000Z</time>
</trkpt>
<trkpt lat="31.0134702" lon="35.3034960">
<ele>40.990002</ele>
<time>2012-03-09T09:54:10.000Z</time>
</trkpt>
<trkpt lat="31.0131430" lon="35.3034147">
<ele>39.070000</ele>
<time>2012-03-09T09:54:15.000Z</time>
</trkpt>
<trkpt lat="31.0126225" lon="35.3032677">
<ele>38.110001</ele>
<time>2012-03-09T09:54:23.000Z</time>
</trkpt>
<trkpt lat="31.0125629" lon="35.3032542">
<ele>38.110001</ele>
<time>2012-03-09T09:54:24.000Z</time>
</trkpt>
<trkpt lat="31.0125055" lon="35.3032354">
<ele>38.110001</ele>
<time>2012-03-09T09:54:25.000Z</time>
</trkpt>
<trkpt lat="31.0123939" lon="35.3031755">
<ele>37.150002</ele>
<time>2012-03-09T09:54:27.000Z</time>
</trkpt>
<trkpt lat="31.0119575" lon="35.3028304">
<ele>33.299999</ele>
<time>2012-03-09T09:54:34.000Z</time>
</trkpt>
<trkpt lat="31.0118791" lon="35.3027738">
<ele>33.299999</ele>
<time>2012-03-09T09:54:35.000Z</time>
</trkpt>
<trkpt lat="31.0116630" lon="35.3026526">
<ele>31.859999</ele>
<time>2012-03-09T09:54:38.000Z</time>
</trkpt>
<trkpt lat="31.0109484" lon="35.3024797">
<ele>29.940001</ele>
<time>2012-03-09T09:54:50.000Z</time>
</trkpt>
<trkpt lat="31.0101238" lon="35.3022707">
<ele>27.049999</ele>
<time>2012-03-09T09:55:03.000Z</time>
</trkpt>
<trkpt lat="31.0100719" lon="35.3022534">
<ele>27.530001</ele>
<time>2012-03-09T09:55:04.000Z</time>
</trkpt>
<trkpt lat="31.0099267" lon="35.3021886">
<ele>27.049999</ele>
<time>2012-03-09T09:55:07.000Z</time>
</trkpt>
<trkpt lat="31.0094925" lon="35.3018959">
<ele>27.530001</ele>
<time>2012-03-09T09:55:17.000Z</time>
</trkpt>
<trkpt lat="31.0094624" lon="35.3018601">
<ele>27.530001</ele>
<time>2012-03-09T09:55:18.000Z</time>
</trkpt>
<trkpt lat="31.0094370" lon="35.3018189">
<ele>27.530001</ele>
<time>2012-03-09T09:55:19.000Z</time>
</trkpt>
<trkpt lat="31.0094144" lon="35.3017773">
<ele>27.530001</ele>
<time>2012-03-09T09:55:20.000Z</time>
</trkpt>
<trkpt lat="31.0093961" lon="35.3017356">
<ele>28.019999</ele>
<time>2012-03-09T09:55:21.000Z</time>
</trkpt>
<trkpt lat="31.0093836" lon="35.3016902">
<ele>27.530001</ele>
<time>2012-03-09T09:55:22.000Z</time>
</trkpt>
<trkpt lat="31.0093726" lon="35.3016420">
<ele>28.019999</ele>
<time>2012-03-09T09:55:23.000Z</time>
</trkpt>
<trkpt lat="31.0093308" lon="35.3010269">
<ele>29.459999</ele>
<time>2012-03-09T09:55:37.000Z</time>
</trkpt>
<trkpt lat="31.0093965" lon="35.3006796">
<ele>28.980001</ele>
<time>2012-03-09T09:55:47.000Z</time>
</trkpt>
<trkpt lat="31.0094059" lon="35.3006324">
<ele>28.980001</ele>
<time>2012-03-09T09:55:48.000Z</time>
</trkpt>
<trkpt lat="31.0094145" lon="35.3005880">
<ele>28.980001</ele>
<time>2012-03-09T09:55:49.000Z</time>
</trkpt>
<trkpt lat="31.0094298" lon="35.3005526">
<ele>28.980001</ele>
<time>2012-03-09T09:55:50.000Z</time>
</trkpt>
<trkpt lat="31.0094475" lon="35.3005219">
<ele>29.459999</ele>
<time>2012-03-09T09:55:51.000Z</time>
</trkpt>
<trkpt lat="31.0096254" lon="35.3003065">
<ele>31.380001</ele>
<time>2012-03-09T09:56:01.000Z</time>
</trkpt>
<trkpt lat="31.0098251" lon="35.3001104">
<ele>31.859999</ele>
<time>2012-03-09T09:56:12.000Z</time>
</trkpt>
<trkpt lat="31.0099971" lon="35.2998407">
<ele>32.340000</ele>
<time>2012-03-09T09:56:24.000Z</time>
</trkpt>
<trkpt lat="31.0100503" lon="35.2994969">
<ele>33.299999</ele>
<time>2012-03-09T09:56:38.000Z</time>
</trkpt>
<trkpt lat="31.0099853" lon="35.2992263">
<ele>34.740002</ele>
<time>2012-03-09T09:56:51.000Z</time>
</trkpt>
<trkpt lat="31.0098213" lon="35.2989854">
<ele>35.709999</ele>
<time>2012-03-09T09:57:03.000Z</time>
</trkpt>
<trkpt lat="31.0097148" lon="35.2985770">
<ele>37.630001</ele>
<time>2012-03-09T09:57:21.000Z</time>
</trkpt>
<trkpt lat="31.0097277" lon="35.2985115">
<ele>38.590000</ele>
<time>2012-03-09T09:57:25.000Z</time>
</trkpt>
<trkpt lat="31.0097699" lon="35.2984336">
<ele>39.070000</ele>
<time>2012-03-09T09:57:30.000Z</time>
</trkpt>
<trkpt lat="31.0098117" lon="35.2983414">
<ele>39.549999</ele>
<time>2012-03-09T09:57:37.000Z</time>
</trkpt>
<trkpt lat="31.0098217" lon="35.2983303">
<ele>40.029999</ele>
<time>2012-03-09T09:57:38.000Z</time>
</trkpt>
<trkpt lat="31.0098305" lon="35.2983172">
<ele>39.549999</ele>
<time>2012-03-09T09:57:39.000Z</time>
</trkpt>
<trkpt lat="31.0099275" lon="35.2980950">
<ele>40.510002</ele>
<time>2012-03-09T09:57:56.000Z</time>
</trkpt>
<trkpt lat="31.0099320" lon="35.2978498">
<ele>40.990002</ele>
<time>2012-03-09T09:58:10.000Z</time>
</trkpt>
<trkpt lat="31.0099336" lon="35.2978581">
<ele>40.510002</ele>
<time>2012-03-09T09:58:35.000Z</time>
</trkpt>
<trkpt lat="31.0099312" lon="35.2978504">
<ele>40.990002</ele>
<time>2012-03-09T09:58:55.000Z</time>
</trkpt>
<trkpt lat="31.0099298" lon="35.2978331">
<ele>40.510002</ele>
<time>2012-03-09T09:59:09.000Z</time>
</trkpt>
<trkpt lat="31.0099286" lon="35.2978110">
<ele>40.029999</ele>
<time>2012-03-09T09:59:10.000Z</time>
</trkpt>
<trkpt lat="31.0099282" lon="35.2977875">
<ele>40.029999</ele>
<time>2012-03-09T09:59:11.000Z</time>
</trkpt>
<trkpt lat="31.0099260" lon="35.2977692">
<ele>40.029999</ele>
<time>2012-03-09T09:59:22.000Z</time>
</trkpt>
<trkpt lat="31.0099327" lon="35.2977594">
<ele>39.549999</ele>
<time>2012-03-09T09:59:47.000Z</time>
</trkpt>
<trkpt lat="31.0099285" lon="35.2977452">
<ele>39.070000</ele>
<time>2012-03-09T10:00:11.000Z</time>
</trkpt>
<trkpt lat="31.0099296" lon="35.2977442">
<ele>39.070000</ele>
<time>2012-03-09T10:00:42.000Z</time>
</trkpt>
<trkpt lat="31.0099126" lon="35.2976839">
<ele>38.110001</ele>
<time>2012-03-09T10:00:56.000Z</time>
</trkpt>
<trkpt lat="31.0098959" lon="35.2974384">
<ele>35.230000</ele>
<time>2012-03-09T10:01:04.000Z</time>
</trkpt>
<trkpt lat="31.0098186" lon="35.2971979">
<ele>31.859999</ele>
<time>2012-03-09T10:01:12.000Z</time>
</trkpt>
<trkpt lat="31.0097481" lon="35.2971210">
<ele>31.380001</ele>
<time>2012-03-09T10:01:14.000Z</time>
</trkpt>
<trkpt lat="31.0095890" lon="35.2970331">
<ele>33.780003</ele>
<time>2012-03-09T10:01:22.000Z</time>
</trkpt>
<trkpt lat="31.0093723" lon="35.2969556">
<ele>35.230000</ele>
<time>2012-03-09T10:01:34.000Z</time>
</trkpt>
<trkpt lat="31.0090787" lon="35.2969409">
<ele>36.189999</ele>
<time>2012-03-09T10:01:45.000Z</time>
</trkpt>
<trkpt lat="31.0089944" lon="35.2968782">
<ele>36.189999</ele>
<time>2012-03-09T10:01:49.000Z</time>
</trkpt>
<trkpt lat="31.0089796" lon="35.2968573">
<ele>36.669998</ele>
<time>2012-03-09T10:01:50.000Z</time>
</trkpt>
<trkpt lat="31.0089633" lon="35.2968370">
<ele>36.189999</ele>
<time>2012-03-09T10:01:51.000Z</time>
</trkpt>
<trkpt lat="31.0089499" lon="35.2968143">
<ele>36.669998</ele>
<time>2012-03-09T10:01:52.000Z</time>
</trkpt>
<trkpt lat="31.0089390" lon="35.2967923">
<ele>37.150002</ele>
<time>2012-03-09T10:01:53.000Z</time>
</trkpt>
<trkpt lat="31.0088796" lon="35.2964551">
<ele>37.150002</ele>
<time>2012-03-09T10:02:07.000Z</time>
</trkpt>
<trkpt lat="31.0088831" lon="35.2964310">
<ele>37.150002</ele>
<time>2012-03-09T10:02:08.000Z</time>
</trkpt>
<trkpt lat="31.0088834" lon="35.2964105">
<ele>36.669998</ele>
<time>2012-03-09T10:02:09.000Z</time>
</trkpt>
<trkpt lat="31.0088867" lon="35.2963875">
<ele>37.150002</ele>
<time>2012-03-09T10:02:10.000Z</time>
</trkpt>
<trkpt lat="31.0088924" lon="35.2963694">
<ele>37.150002</ele>
<time>2012-03-09T10:02:11.000Z</time>
</trkpt>
<trkpt lat="31.0088994" lon="35.2963510">
<ele>37.150002</ele>
<time>2012-03-09T10:02:12.000Z</time>
</trkpt>
<trkpt lat="31.0089464" lon="35.2961914">
<ele>36.189999</ele>
<time>2012-03-09T10:02:20.000Z</time>
</trkpt>
<trkpt lat="31.0089473" lon="35.2961687">
<ele>36.189999</ele>
<time>2012-03-09T10:02:21.000Z</time>
</trkpt>
<trkpt lat="31.0089576" lon="35.2959364">
<ele>35.709999</ele>
<time>2012-03-09T10:02:31.000Z</time>
</trkpt>
<trkpt lat="31.0088874" lon="35.2956350">
<ele>33.780003</ele>
<time>2012-03-09T10:02:38.000Z</time>
</trkpt>
<trkpt lat="31.0086955" lon="35.2951013">
<ele>31.380001</ele>
<time>2012-03-09T10:02:47.000Z</time>
</trkpt>
<trkpt lat="31.0086808" lon="35.2950487">
<ele>31.380001</ele>
<time>2012-03-09T10:02:48.000Z</time>
</trkpt>
<trkpt lat="31.0086695" lon="35.2949986">
<ele>30.900000</ele>
<time>2012-03-09T10:02:49.000Z</time>
</trkpt>
<trkpt lat="31.0085945" lon="35.2947454">
<ele>29.940001</ele>
<time>2012-03-09T10:02:55.000Z</time>
</trkpt>
<trkpt lat="31.0085322" lon="35.2944396">
<ele>27.049999</ele>
<time>2012-03-09T10:03:02.000Z</time>
</trkpt>
<trkpt lat="31.0085288" lon="35.2943859">
<ele>26.570000</ele>
<time>2012-03-09T10:03:03.000Z</time>
</trkpt>
<trkpt lat="31.0085287" lon="35.2943316">
<ele>25.609999</ele>
<time>2012-03-09T10:03:04.000Z</time>
</trkpt>
<trkpt lat="31.0085355" lon="35.2942757">
<ele>25.130001</ele>
<time>2012-03-09T10:03:05.000Z</time>
</trkpt>
<trkpt lat="31.0085497" lon="35.2942181">
<ele>24.650000</ele>
<time>2012-03-09T10:03:06.000Z</time>
</trkpt>
<trkpt lat="31.0085656" lon="35.2941602">
<ele>24.169998</ele>
<time>2012-03-09T10:03:07.000Z</time>
</trkpt>
<trkpt lat="31.0086088" lon="35.2939954">
<ele>22.730001</ele>
<time>2012-03-09T10:03:10.000Z</time>
</trkpt>
<trkpt lat="31.0086162" lon="35.2939362">
<ele>22.250000</ele>
<time>2012-03-09T10:03:11.000Z</time>
</trkpt>
<trkpt lat="31.0086167" lon="35.2938178">
<ele>21.769999</ele>
<time>2012-03-09T10:03:13.000Z</time>
</trkpt>
<trkpt lat="31.0086080" lon="35.2937604">
<ele>21.290001</ele>
<time>2012-03-09T10:03:14.000Z</time>
</trkpt>
<trkpt lat="31.0085760" lon="35.2936429">
<ele>20.320000</ele>
<time>2012-03-09T10:03:16.000Z</time>
</trkpt>
<trkpt lat="31.0085484" lon="35.2935842">
<ele>19.840000</ele>
<time>2012-03-09T10:03:17.000Z</time>
</trkpt>
<trkpt lat="31.0085091" lon="35.2935277">
<ele>19.360001</ele>
<time>2012-03-09T10:03:18.000Z</time>
</trkpt>
<trkpt lat="31.0084612" lon="35.2934782">
<ele>18.879999</ele>
<time>2012-03-09T10:03:19.000Z</time>
</trkpt>
<trkpt lat="31.0084174" lon="35.2934282">
<ele>18.400000</ele>
<time>2012-03-09T10:03:20.000Z</time>
</trkpt>
<trkpt lat="31.0083769" lon="35.2933754">
<ele>18.400000</ele>
<time>2012-03-09T10:03:21.000Z</time>
</trkpt>
<trkpt lat="31.0083402" lon="35.2933180">
<ele>17.920000</ele>
<time>2012-03-09T10:03:22.000Z</time>
</trkpt>
<trkpt lat="31.0083087" lon="35.2932561">
<ele>18.400000</ele>
<time>2012-03-09T10:03:23.000Z</time>
</trkpt>
<trkpt lat="31.0082831" lon="35.2931890">
<ele>17.920000</ele>
<time>2012-03-09T10:03:24.000Z</time>
</trkpt>
<trkpt lat="31.0082664" lon="35.2931183">
<ele>17.920000</ele>
<time>2012-03-09T10:03:25.000Z</time>
</trkpt>
<trkpt lat="31.0082574" lon="35.2930476">
<ele>17.439999</ele>
<time>2012-03-09T10:03:26.000Z</time>
</trkpt>
<trkpt lat="31.0082577" lon="35.2929742">
<ele>17.920000</ele>
<time>2012-03-09T10:03:27.000Z</time>
</trkpt>
<trkpt lat="31.0082683" lon="35.2929043">
<ele>17.920000</ele>
<time>2012-03-09T10:03:28.000Z</time>
</trkpt>
<trkpt lat="31.0082845" lon="35.2928415">
<ele>17.439999</ele>
<time>2012-03-09T10:03:29.000Z</time>
</trkpt>
<trkpt lat="31.0083029" lon="35.2927872">
<ele>16.959999</ele>
<time>2012-03-09T10:03:30.000Z</time>
</trkpt>
<trkpt lat="31.0084004" lon="35.2924746">
<ele>14.080000</ele>
<time>2012-03-09T10:03:41.000Z</time>
</trkpt>
<trkpt lat="31.0084373" lon="35.2923350">
<ele>10.710000</ele>
<time>2012-03-09T10:03:46.000Z</time>
</trkpt>
<trkpt lat="31.0084538" lon="35.2922711">
<ele>9.270000</ele>
<time>2012-03-09T10:03:49.000Z</time>
</trkpt>
<trkpt lat="31.0084731" lon="35.2922147">
<ele>7.830000</ele>
<time>2012-03-09T10:03:53.000Z</time>
</trkpt>
<trkpt lat="31.0084807" lon="35.2922016">
<ele>7.830000</ele>
<time>2012-03-09T10:03:54.000Z</time>
</trkpt>
<trkpt lat="31.0085389" lon="35.2919818">
<ele>3.980000</ele>
<time>2012-03-09T10:04:00.000Z</time>
</trkpt>
<trkpt lat="31.0085536" lon="35.2919304">
<ele>3.500000</ele>
<time>2012-03-09T10:04:01.000Z</time>
</trkpt>
<trkpt lat="31.0085684" lon="35.2918808">
<ele>3.020000</ele>
<time>2012-03-09T10:04:02.000Z</time>
</trkpt>
<trkpt lat="31.0085855" lon="35.2918350">
<ele>3.020000</ele>
<time>2012-03-09T10:04:03.000Z</time>
</trkpt>
<trkpt lat="31.0085992" lon="35.2917938">
<ele>2.060000</ele>
<time>2012-03-09T10:04:04.000Z</time>
</trkpt>
<trkpt lat="31.0086154" lon="35.2917513">
<ele>1.580000</ele>
<time>2012-03-09T10:04:05.000Z</time>
</trkpt>
<trkpt lat="31.0086369" lon="35.2917024">
<ele>1.100000</ele>
<time>2012-03-09T10:04:06.000Z</time>
</trkpt>
<trkpt lat="31.0086546" lon="35.2916462">
<ele>0.620000</ele>
<time>2012-03-09T10:04:07.000Z</time>
</trkpt>
<trkpt lat="31.0086696" lon="35.2915879">
<ele>0.620000</ele>
<time>2012-03-09T10:04:08.000Z</time>
</trkpt>
<trkpt lat="31.0086864" lon="35.2915482">
<ele>0.620000</ele>
<time>2012-03-09T10:04:09.000Z</time>
</trkpt>
<trkpt lat="31.0087093" lon="35.2915329">
<ele>0.620000</ele>
<time>2012-03-09T10:04:10.000Z</time>
</trkpt>
<trkpt lat="31.0088714" lon="35.2914507">
<ele>0.620000</ele>
<time>2012-03-09T10:04:18.000Z</time>
</trkpt>
<trkpt lat="31.0090097" lon="35.2913334">
<ele>2.060000</ele>
<time>2012-03-09T10:04:26.000Z</time>
</trkpt>
<trkpt lat="31.0091343" lon="35.2911605">
<ele>1.580000</ele>
<time>2012-03-09T10:04:37.000Z</time>
</trkpt>
<trkpt lat="31.0092812" lon="35.2906939">
<ele>-0.340000</ele>
<time>2012-03-09T10:04:50.000Z</time>
</trkpt>
<trkpt lat="31.0094118" lon="35.2904418">
<ele>-0.340000</ele>
<time>2012-03-09T10:04:59.000Z</time>
</trkpt>
<trkpt lat="31.0094273" lon="35.2900599">
<ele>-0.340000</ele>
<time>2012-03-09T10:05:11.000Z</time>
</trkpt>
<trkpt lat="31.0094703" lon="35.2897262">
<ele>-1.300000</ele>
<time>2012-03-09T10:05:19.000Z</time>
</trkpt>
<trkpt lat="31.0094997" lon="35.2894126">
<ele>-1.300000</ele>
<time>2012-03-09T10:05:29.000Z</time>
</trkpt>
<trkpt lat="31.0095064" lon="35.2893793">
<ele>-2.270000</ele>
<time>2012-03-09T10:05:30.000Z</time>
</trkpt>
<trkpt lat="31.0096716" lon="35.2890621">
<ele>-4.670000</ele>
<time>2012-03-09T10:05:42.000Z</time>
</trkpt>
<trkpt lat="31.0096869" lon="35.2890369">
<ele>-5.150000</ele>
<time>2012-03-09T10:05:43.000Z</time>
</trkpt>
<trkpt lat="31.0096917" lon="35.2890134">
<ele>-5.150000</ele>
<time>2012-03-09T10:05:44.000Z</time>
</trkpt>
<trkpt lat="31.0096865" lon="35.2889897">
<ele>-5.630000</ele>
<time>2012-03-09T10:05:45.000Z</time>
</trkpt>
<trkpt lat="31.0096761" lon="35.2889681">
<ele>-6.110000</ele>
<time>2012-03-09T10:05:46.000Z</time>
</trkpt>
<trkpt lat="31.0095015" lon="35.2888820">
<ele>-7.070000</ele>
<time>2012-03-09T10:05:56.000Z</time>
</trkpt>
<trkpt lat="31.0094444" lon="35.2888533">
<ele>-7.550000</ele>
<time>2012-03-09T10:05:59.000Z</time>
</trkpt>
<trkpt lat="31.0094132" lon="35.2888347">
<ele>-7.550000</ele>
<time>2012-03-09T10:06:01.000Z</time>
</trkpt>
<trkpt lat="31.0093565" lon="35.2888132">
<ele>-8.030000</ele>
<time>2012-03-09T10:06:05.000Z</time>
</trkpt>
<trkpt lat="31.0092600" lon="35.2887633">
<ele>-9.480000</ele>
<time>2012-03-09T10:06:14.000Z</time>
</trkpt>
<trkpt lat="31.0092514" lon="35.2887683">
<ele>-10.440000</ele>
<time>2012-03-09T10:06:31.000Z</time>
</trkpt>
<trkpt lat="31.0092547" lon="35.2887632">
<ele>-9.960000</ele>
<time>2012-03-09T10:07:11.000Z</time>
</trkpt>
<trkpt lat="31.0092488" lon="35.2887774">
<ele>-9.960000</ele>
<time>2012-03-09T10:07:15.000Z</time>
</trkpt>
<trkpt lat="31.0092434" lon="35.2888095">
<ele>-9.480000</ele>
<time>2012-03-09T10:07:19.000Z</time>
</trkpt>
<trkpt lat="31.0092790" lon="35.2888683">
<ele>-8.509999</ele>
<time>2012-03-09T10:07:31.000Z</time>
</trkpt>
<trkpt lat="31.0092700" lon="35.2888932">
<ele>-9.000000</ele>
<time>2012-03-09T10:07:36.000Z</time>
</trkpt>
<trkpt lat="31.0091867" lon="35.2888851">
<ele>-9.960000</ele>
<time>2012-03-09T10:07:49.000Z</time>
</trkpt>
<trkpt lat="31.0091675" lon="35.2888883">
<ele>-10.440000</ele>
<time>2012-03-09T10:07:52.000Z</time>
</trkpt>
<trkpt lat="31.0091354" lon="35.2889025">
<ele>-11.400000</ele>
<time>2012-03-09T10:07:56.000Z</time>
</trkpt>
<trkpt lat="31.0090065" lon="35.2888796">
<ele>-13.320000</ele>
<time>2012-03-09T10:08:10.000Z</time>
</trkpt>
<trkpt lat="31.0089631" lon="35.2888308">
<ele>-14.280001</ele>
<time>2012-03-09T10:08:23.000Z</time>
</trkpt>
<trkpt lat="31.0089814" lon="35.2887759">
<ele>-15.719999</ele>
<time>2012-03-09T10:08:31.000Z</time>
</trkpt>
<trkpt lat="31.0090459" lon="35.2887432">
<ele>-17.170000</ele>
<time>2012-03-09T10:08:41.000Z</time>
</trkpt>
<trkpt lat="31.0091695" lon="35.2886926">
<ele>-17.650000</ele>
<time>2012-03-09T10:08:52.000Z</time>
</trkpt>
<trkpt lat="31.0092763" lon="35.2886854">
<ele>-18.130001</ele>
<time>2012-03-09T10:09:06.000Z</time>
</trkpt>
<trkpt lat="31.0092590" lon="35.2886528">
<ele>-18.610001</ele>
<time>2012-03-09T10:09:11.000Z</time>
</trkpt>
<trkpt lat="31.0092520" lon="35.2886203">
<ele>-18.610001</ele>
<time>2012-03-09T10:09:16.000Z</time>
</trkpt>
<trkpt lat="31.0092006" lon="35.2885743">
<ele>-17.650000</ele>
<time>2012-03-09T10:09:24.000Z</time>
</trkpt>
<trkpt lat="31.0090039" lon="35.2885076">
<ele>-18.610001</ele>
<time>2012-03-09T10:09:38.000Z</time>
</trkpt>
<trkpt lat="31.0089628" lon="35.2884795">
<ele>-18.610001</ele>
<time>2012-03-09T10:09:52.000Z</time>
</trkpt>
<trkpt lat="31.0089441" lon="35.2884904">
<ele>-19.090000</ele>
<time>2012-03-09T10:10:06.000Z</time>
</trkpt>
<trkpt lat="31.0089503" lon="35.2885436">
<ele>-19.570002</ele>
<time>2012-03-09T10:10:35.000Z</time>
</trkpt>
<trkpt lat="31.0089513" lon="35.2885690">
<ele>-19.090000</ele>
<time>2012-03-09T10:11:02.000Z</time>
</trkpt>
<trkpt lat="31.0089553" lon="35.2885696">
<ele>-18.610001</ele>
<time>2012-03-09T10:11:28.000Z</time>
</trkpt>
<trkpt lat="31.0089570" lon="35.2885815">
<ele>-19.090000</ele>
<time>2012-03-09T10:11:52.000Z</time>
</trkpt>
<trkpt lat="31.0089533" lon="35.2885870">
<ele>-19.090000</ele>
<time>2012-03-09T10:12:15.000Z</time>
</trkpt>
<trkpt lat="31.0089558" lon="35.2885949">
<ele>-19.090000</ele>
<time>2012-03-09T10:12:42.000Z</time>
</trkpt>
<trkpt lat="31.0089612" lon="35.2886000">
<ele>-18.610001</ele>
<time>2012-03-09T10:13:13.000Z</time>
</trkpt>
<trkpt lat="31.0089603" lon="35.2886020">
<ele>-19.090000</ele>
<time>2012-03-09T10:13:41.000Z</time>
</trkpt>
<trkpt lat="31.0089556" lon="35.2886075">
<ele>-19.090000</ele>
<time>2012-03-09T10:14:12.000Z</time>
</trkpt>
<trkpt lat="31.0089516" lon="35.2886148">
<ele>-18.610001</ele>
<time>2012-03-09T10:14:45.000Z</time>
</trkpt>
<trkpt lat="31.0089499" lon="35.2886190">
<ele>-18.610001</ele>
<time>2012-03-09T10:15:18.000Z</time>
</trkpt>
<trkpt lat="31.0089487" lon="35.2886182">
<ele>-18.610001</ele>
<time>2012-03-09T10:15:47.000Z</time>
</trkpt>
<trkpt lat="31.0089476" lon="35.2886226">
<ele>-18.610001</ele>
<time>2012-03-09T10:16:16.000Z</time>
</trkpt>
<trkpt lat="31.0089485" lon="35.2886221">
<ele>-18.610001</ele>
<time>2012-03-09T10:16:44.000Z</time>
</trkpt>
<trkpt lat="31.0089501" lon="35.2886272">
<ele>-18.130001</ele>
<time>2012-03-09T10:17:13.000Z</time>
</trkpt>
<trkpt lat="31.0089529" lon="35.2886356">
<ele>-17.650000</ele>
<time>2012-03-09T10:17:36.000Z</time>
</trkpt>
<trkpt lat="31.0089593" lon="35.2886338">
<ele>-18.130001</ele>
<time>2012-03-09T10:18:06.000Z</time>
</trkpt>
<trkpt lat="31.0089610" lon="35.2886377">
<ele>-17.650000</ele>
<time>2012-03-09T10:18:39.000Z</time>
</trkpt>
<trkpt lat="31.0089627" lon="35.2886380">
<ele>-17.650000</ele>
<time>2012-03-09T10:19:08.000Z</time>
</trkpt>
<trkpt lat="31.0089670" lon="35.2886407">
<ele>-17.650000</ele>
<time>2012-03-09T10:19:40.000Z</time>
</trkpt>
<trkpt lat="31.0089707" lon="35.2886415">
<ele>-17.170000</ele>
<time>2012-03-09T10:20:11.000Z</time>
</trkpt>
<trkpt lat="31.0089755" lon="35.2886430">
<ele>-17.170000</ele>
<time>2012-03-09T10:20:41.000Z</time>
</trkpt>
<trkpt lat="31.0089798" lon="35.2886408">
<ele>-17.170000</ele>
<time>2012-03-09T10:21:10.000Z</time>
</trkpt>
<trkpt lat="31.0089801" lon="35.2886377">
<ele>-16.690001</ele>
<time>2012-03-09T10:21:40.000Z</time>
</trkpt>
<trkpt lat="31.0089789" lon="35.2886367">
<ele>-16.690001</ele>
<time>2012-03-09T10:22:10.000Z</time>
</trkpt>
<trkpt lat="31.0089769" lon="35.2886357">
<ele>-16.690001</ele>
<time>2012-03-09T10:22:38.000Z</time>
</trkpt>
<trkpt lat="31.0089766" lon="35.2886360">
<ele>-16.210001</ele>
<time>2012-03-09T10:23:06.000Z</time>
</trkpt>
<trkpt lat="31.0089765" lon="35.2886379">
<ele>-16.210001</ele>
<time>2012-03-09T10:23:33.000Z</time>
</trkpt>
<trkpt lat="31.0089763" lon="35.2886370">
<ele>-15.719999</ele>
<time>2012-03-09T10:23:58.000Z</time>
</trkpt>
<trkpt lat="31.0089724" lon="35.2886351">
<ele>-15.719999</ele>
<time>2012-03-09T10:24:28.000Z</time>
</trkpt>
<trkpt lat="31.0089680" lon="35.2886313">
<ele>-16.690001</ele>
<time>2012-03-09T10:25:01.000Z</time>
</trkpt>
<trkpt lat="31.0089625" lon="35.2886307">
<ele>-15.719999</ele>
<time>2012-03-09T10:25:30.000Z</time>
</trkpt>
<trkpt lat="31.0089573" lon="35.2886305">
<ele>-15.240000</ele>
<time>2012-03-09T10:25:59.000Z</time>
</trkpt>
<trkpt lat="31.0089577" lon="35.2886291">
<ele>-15.719999</ele>
<time>2012-03-09T10:26:26.000Z</time>
</trkpt>
<trkpt lat="31.0089536" lon="35.2886294">
<ele>-15.719999</ele>
<time>2012-03-09T10:27:00.000Z</time>
</trkpt>
<trkpt lat="31.0089519" lon="35.2886287">
<ele>-15.240000</ele>
<time>2012-03-09T10:27:27.000Z</time>
</trkpt>
<trkpt lat="31.0089520" lon="35.2886258">
<ele>-14.760000</ele>
<time>2012-03-09T10:27:53.000Z</time>
</trkpt>
<trkpt lat="31.0089535" lon="35.2886315">
<ele>-14.760000</ele>
<time>2012-03-09T10:28:19.000Z</time>
</trkpt>
<trkpt lat="31.0089536" lon="35.2886300">
<ele>-14.280001</ele>
<time>2012-03-09T10:28:47.000Z</time>
</trkpt>
<trkpt lat="31.0089568" lon="35.2886267">
<ele>-14.280001</ele>
<time>2012-03-09T10:29:19.000Z</time>
</trkpt>
<trkpt lat="31.0089611" lon="35.2886189">
<ele>-14.280001</ele>
<time>2012-03-09T10:29:50.000Z</time>
</trkpt>
<trkpt lat="31.0089684" lon="35.2886134">
<ele>-14.280001</ele>
<time>2012-03-09T10:30:21.000Z</time>
</trkpt>
<trkpt lat="31.0089728" lon="35.2886135">
<ele>-14.280001</ele>
<time>2012-03-09T10:30:52.000Z</time>
</trkpt>
<trkpt lat="31.0089762" lon="35.2886129">
<ele>-14.760000</ele>
<time>2012-03-09T10:31:19.000Z</time>
</trkpt>
<trkpt lat="31.0089779" lon="35.2886150">
<ele>-14.280001</ele>
<time>2012-03-09T10:31:48.000Z</time>
</trkpt>
<trkpt lat="31.0089799" lon="35.2886123">
<ele>-14.280001</ele>
<time>2012-03-09T10:32:17.000Z</time>
</trkpt>
<trkpt lat="31.0089825" lon="35.2886153">
<ele>-14.760000</ele>
<time>2012-03-09T10:32:49.000Z</time>
</trkpt>
<trkpt lat="31.0089815" lon="35.2886186">
<ele>-14.280001</ele>
<time>2012-03-09T10:33:18.000Z</time>
</trkpt>
<trkpt lat="31.0089858" lon="35.2886215">
<ele>-14.280001</ele>
<time>2012-03-09T10:33:49.000Z</time>
</trkpt>
<trkpt lat="31.0089873" lon="35.2886191">
<ele>-14.280001</ele>
<time>2012-03-09T10:34:20.000Z</time>
</trkpt>
<trkpt lat="31.0089901" lon="35.2886205">
<ele>-13.799999</ele>
<time>2012-03-09T10:34:51.000Z</time>
</trkpt>
<trkpt lat="31.0089939" lon="35.2886113">
<ele>-13.799999</ele>
<time>2012-03-09T10:35:24.000Z</time>
</trkpt>
<trkpt lat="31.0089989" lon="35.2886077">
<ele>-13.799999</ele>
<time>2012-03-09T10:35:55.000Z</time>
</trkpt>
<trkpt lat="31.0090034" lon="35.2886093">
<ele>-14.280001</ele>
<time>2012-03-09T10:36:27.000Z</time>
</trkpt>
<trkpt lat="31.0090047" lon="35.2886095">
<ele>-13.320000</ele>
<time>2012-03-09T10:36:58.000Z</time>
</trkpt>
<trkpt lat="31.0090030" lon="35.2886101">
<ele>-13.799999</ele>
<time>2012-03-09T10:37:30.000Z</time>
</trkpt>
<trkpt lat="31.0090018" lon="35.2886103">
<ele>-13.320000</ele>
<time>2012-03-09T10:37:59.000Z</time>
</trkpt>
<trkpt lat="31.0089966" lon="35.2885976">
<ele>-12.840000</ele>
<time>2012-03-09T10:38:28.000Z</time>
</trkpt>
<trkpt lat="31.0089907" lon="35.2885961">
<ele>-13.320000</ele>
<time>2012-03-09T10:38:55.000Z</time>
</trkpt>
<trkpt lat="31.0089819" lon="35.2885852">
<ele>-13.799999</ele>
<time>2012-03-09T10:39:25.000Z</time>
</trkpt>
<trkpt lat="31.0089757" lon="35.2885763">
<ele>-13.799999</ele>
<time>2012-03-09T10:39:56.000Z</time>
</trkpt>
<trkpt lat="31.0089740" lon="35.2885625">
<ele>-13.799999</ele>
<time>2012-03-09T10:40:27.000Z</time>
</trkpt>
<trkpt lat="31.0089703" lon="35.2885526">
<ele>-13.799999</ele>
<time>2012-03-09T10:41:00.000Z</time>
</trkpt>
<trkpt lat="31.0089666" lon="35.2885485">
<ele>-13.799999</ele>
<time>2012-03-09T10:41:34.000Z</time>
</trkpt>
<trkpt lat="31.0089655" lon="35.2885398">
<ele>-14.280001</ele>
<time>2012-03-09T10:42:08.000Z</time>
</trkpt>
<trkpt lat="31.0089658" lon="35.2885303">
<ele>-13.799999</ele>
<time>2012-03-09T10:42:38.000Z</time>
</trkpt>
<trkpt lat="31.0089680" lon="35.2885193">
<ele>-14.280001</ele>
<time>2012-03-09T10:43:11.000Z</time>
</trkpt>
<trkpt lat="31.0089664" lon="35.2885217">
<ele>-14.280001</ele>
<time>2012-03-09T10:43:40.000Z</time>
</trkpt>
<trkpt lat="31.0089666" lon="35.2885189">
<ele>-14.760000</ele>
<time>2012-03-09T10:44:10.000Z</time>
</trkpt>
<trkpt lat="31.0089716" lon="35.2885151">
<ele>-14.280001</ele>
<time>2012-03-09T10:44:39.000Z</time>
</trkpt>
<trkpt lat="31.0089670" lon="35.2885196">
<ele>-14.760000</ele>
<time>2012-03-09T10:45:12.000Z</time>
</trkpt>
<trkpt lat="31.0089645" lon="35.2885286">
<ele>-14.760000</ele>
<time>2012-03-09T10:45:42.000Z</time>
</trkpt>
<trkpt lat="31.0089627" lon="35.2885297">
<ele>-15.240000</ele>
<time>2012-03-09T10:46:14.000Z</time>
</trkpt>
<trkpt lat="31.0089622" lon="35.2885288">
<ele>-14.760000</ele>
<time>2012-03-09T10:46:44.000Z</time>
</trkpt>
<trkpt lat="31.0089616" lon="35.2885299">
<ele>-14.760000</ele>
<time>2012-03-09T10:47:14.000Z</time>
</trkpt>
<trkpt lat="31.0089599" lon="35.2885358">
<ele>-14.760000</ele>
<time>2012-03-09T10:47:45.000Z</time>
</trkpt>
<trkpt lat="31.0089585" lon="35.2885404">
<ele>-14.280001</ele>
<time>2012-03-09T10:48:17.000Z</time>
</trkpt>
<trkpt lat="31.0089567" lon="35.2885449">
<ele>-14.760000</ele>
<time>2012-03-09T10:48:47.000Z</time>
</trkpt>
<trkpt lat="31.0089582" lon="35.2885432">
<ele>-14.760000</ele>
<time>2012-03-09T10:49:18.000Z</time>
</trkpt>
<trkpt lat="31.0089596" lon="35.2885421">
<ele>-14.760000</ele>
<time>2012-03-09T10:49:51.000Z</time>
</trkpt>
<trkpt lat="31.0089599" lon="35.2885432">
<ele>-14.760000</ele>
<time>2012-03-09T10:50:26.000Z</time>
</trkpt>
<trkpt lat="31.0089557" lon="35.2885508">
<ele>-14.760000</ele>
<time>2012-03-09T10:50:57.000Z</time>
</trkpt>
<trkpt lat="31.0089510" lon="35.2885593">
<ele>-15.240000</ele>
<time>2012-03-09T10:51:28.000Z</time>
</trkpt>
<trkpt lat="31.0089516" lon="35.2885615">
<ele>-15.240000</ele>
<time>2012-03-09T10:51:58.000Z</time>
</trkpt>
<trkpt lat="31.0089587" lon="35.2885571">
<ele>-15.719999</ele>
<time>2012-03-09T10:52:32.000Z</time>
</trkpt>
<trkpt lat="31.0089615" lon="35.2885534">
<ele>-15.240000</ele>
<time>2012-03-09T10:53:09.000Z</time>
</trkpt>
<trkpt lat="31.0089577" lon="35.2885528">
<ele>-15.240000</ele>
<time>2012-03-09T10:53:38.000Z</time>
</trkpt>
<trkpt lat="31.0089531" lon="35.2885516">
<ele>-15.240000</ele>
<time>2012-03-09T10:54:03.000Z</time>
</trkpt>
<trkpt lat="31.0089537" lon="35.2885541">
<ele>-14.280001</ele>
<time>2012-03-09T10:54:25.000Z</time>
</trkpt>
<trkpt lat="31.0089527" lon="35.2885542">
<ele>-15.240000</ele>
<time>2012-03-09T10:54:49.000Z</time>
</trkpt>
<trkpt lat="31.0089479" lon="35.2885542">
<ele>-14.760000</ele>
<time>2012-03-09T10:55:08.000Z</time>
</trkpt>
<trkpt lat="31.0089433" lon="35.2885593">
<ele>-15.240000</ele>
<time>2012-03-09T10:55:31.000Z</time>
</trkpt>
<trkpt lat="31.0089431" lon="35.2885565">
<ele>-14.760000</ele>
<time>2012-03-09T10:55:59.000Z</time>
</trkpt>
<trkpt lat="31.0089375" lon="35.2885573">
<ele>-15.240000</ele>
<time>2012-03-09T10:56:30.000Z</time>
</trkpt>
<trkpt lat="31.0089355" lon="35.2885597">
<ele>-15.240000</ele>
<time>2012-03-09T10:56:54.000Z</time>
</trkpt>
<trkpt lat="31.0089297" lon="35.2885653">
<ele>-15.240000</ele>
<time>2012-03-09T10:57:22.000Z</time>
</trkpt>
<trkpt lat="31.0089243" lon="35.2885681">
<ele>-14.760000</ele>
<time>2012-03-09T10:57:48.000Z</time>
</trkpt>
<trkpt lat="31.0089219" lon="35.2885744">
<ele>-15.719999</ele>
<time>2012-03-09T10:58:15.000Z</time>
</trkpt>
<trkpt lat="31.0089158" lon="35.2885822">
<ele>-15.240000</ele>
<time>2012-03-09T10:58:49.000Z</time>
</trkpt>
<trkpt lat="31.0089136" lon="35.2885902">
<ele>-14.760000</ele>
<time>2012-03-09T10:59:17.000Z</time>
</trkpt>
<trkpt lat="31.0089143" lon="35.2885966">
<ele>-15.240000</ele>
<time>2012-03-09T10:59:42.000Z</time>
</trkpt>
<trkpt lat="31.0089173" lon="35.2886037">
<ele>-15.719999</ele>
<time>2012-03-09T11:00:17.000Z</time>
</trkpt>
<trkpt lat="31.0089161" lon="35.2886074">
<ele>-15.240000</ele>
<time>2012-03-09T11:00:51.000Z</time>
</trkpt>
<trkpt lat="31.0089130" lon="35.2886136">
<ele>-15.240000</ele>
<time>2012-03-09T11:01:27.000Z</time>
</trkpt>
<trkpt lat="31.0089181" lon="35.2886174">
<ele>-15.240000</ele>
<time>2012-03-09T11:02:04.000Z</time>
</trkpt>
<trkpt lat="31.0089176" lon="35.2886210">
<ele>-14.760000</ele>
<time>2012-03-09T11:02:40.000Z</time>
</trkpt>
<trkpt lat="31.0089154" lon="35.2886178">
<ele>-15.240000</ele>
<time>2012-03-09T11:03:17.000Z</time>
</trkpt>
<trkpt lat="31.0089144" lon="35.2886180">
<ele>-14.760000</ele>
<time>2012-03-09T11:03:57.000Z</time>
</trkpt>
<trkpt lat="31.0089139" lon="35.2886216">
<ele>-14.760000</ele>
<time>2012-03-09T11:04:33.000Z</time>
</trkpt>
<trkpt lat="31.0089113" lon="35.2886223">
<ele>-14.760000</ele>
<time>2012-03-09T11:05:11.000Z</time>
</trkpt>
<trkpt lat="31.0089146" lon="35.2886242">
<ele>-14.760000</ele>
<time>2012-03-09T11:05:45.000Z</time>
</trkpt>
<trkpt lat="31.0089172" lon="35.2886264">
<ele>-14.760000</ele>
<time>2012-03-09T11:06:23.000Z</time>
</trkpt>
<trkpt lat="31.0089133" lon="35.2886272">
<ele>-14.760000</ele>
<time>2012-03-09T11:06:59.000Z</time>
</trkpt>
<trkpt lat="31.0089152" lon="35.2886308">
<ele>-14.760000</ele>
<time>2012-03-09T11:07:30.000Z</time>
</trkpt>
<trkpt lat="31.0089122" lon="35.2886256">
<ele>-15.240000</ele>
<time>2012-03-09T11:07:56.000Z</time>
</trkpt>
<trkpt lat="31.0089082" lon="35.2886250">
<ele>-14.760000</ele>
<time>2012-03-09T11:08:20.000Z</time>
</trkpt>
<trkpt lat="31.0089024" lon="35.2886311">
<ele>-14.760000</ele>
<time>2012-03-09T11:08:43.000Z</time>
</trkpt>
<trkpt lat="31.0089012" lon="35.2886355">
<ele>-15.240000</ele>
<time>2012-03-09T11:09:10.000Z</time>
</trkpt>
<trkpt lat="31.0089007" lon="35.2886460">
<ele>-15.240000</ele>
<time>2012-03-09T11:09:32.000Z</time>
</trkpt>
<trkpt lat="31.0089039" lon="35.2886548">
<ele>-14.280001</ele>
<time>2012-03-09T11:10:05.000Z</time>
</trkpt>
<trkpt lat="31.0089031" lon="35.2886545">
<ele>-14.760000</ele>
<time>2012-03-09T11:10:41.000Z</time>
</trkpt>
<trkpt lat="31.0089069" lon="35.2886578">
<ele>-14.760000</ele>
<time>2012-03-09T11:11:16.000Z</time>
</trkpt>
<trkpt lat="31.0089126" lon="35.2886551">
<ele>-14.280001</ele>
<time>2012-03-09T11:11:44.000Z</time>
</trkpt>
<trkpt lat="31.0089198" lon="35.2886500">
<ele>-14.760000</ele>
<time>2012-03-09T11:12:18.000Z</time>
</trkpt>
<trkpt lat="31.0089250" lon="35.2886494">
<ele>-14.280001</ele>
<time>2012-03-09T11:12:49.000Z</time>
</trkpt>
<trkpt lat="31.0089273" lon="35.2886468">
<ele>-14.280001</ele>
<time>2012-03-09T11:13:17.000Z</time>
</trkpt>
<trkpt lat="31.0089269" lon="35.2886520">
<ele>-14.280001</ele>
<time>2012-03-09T11:13:53.000Z</time>
</trkpt>
<trkpt lat="31.0089231" lon="35.2886551">
<ele>-14.280001</ele>
<time>2012-03-09T11:14:28.000Z</time>
</trkpt>
<trkpt lat="31.0089185" lon="35.2886577">
<ele>-13.799999</ele>
<time>2012-03-09T11:15:00.000Z</time>
</trkpt>
<trkpt lat="31.0089150" lon="35.2886613">
<ele>-13.799999</ele>
<time>2012-03-09T11:15:33.000Z</time>
</trkpt>
<trkpt lat="31.0089152" lon="35.2886678">
<ele>-14.280001</ele>
<time>2012-03-09T11:16:02.000Z</time>
</trkpt>
<trkpt lat="31.0089167" lon="35.2886740">
<ele>-14.280001</ele>
<time>2012-03-09T11:16:37.000Z</time>
</trkpt>
<trkpt lat="31.0089149" lon="35.2886779">
<ele>-14.280001</ele>
<time>2012-03-09T11:17:03.000Z</time>
</trkpt>
<trkpt lat="31.0089160" lon="35.2886820">
<ele>-13.799999</ele>
<time>2012-03-09T11:17:31.000Z</time>
</trkpt>
<trkpt lat="31.0089178" lon="35.2886778">
<ele>-13.320000</ele>
<time>2012-03-09T11:18:01.000Z</time>
</trkpt>
<trkpt lat="31.0089194" lon="35.2886753">
<ele>-14.280001</ele>
<time>2012-03-09T11:18:33.000Z</time>
</trkpt>
<trkpt lat="31.0089230" lon="35.2886647">
<ele>-13.799999</ele>
<time>2012-03-09T11:19:06.000Z</time>
</trkpt>
<trkpt lat="31.0089286" lon="35.2886601">
<ele>-13.799999</ele>
<time>2012-03-09T11:19:41.000Z</time>
</trkpt>
<trkpt lat="31.0089392" lon="35.2886529">
<ele>-13.799999</ele>
<time>2012-03-09T11:20:20.000Z</time>
</trkpt>
<trkpt lat="31.0089444" lon="35.2886522">
<ele>-13.799999</ele>
<time>2012-03-09T11:20:58.000Z</time>
</trkpt>
<trkpt lat="31.0089442" lon="35.2886511">
<ele>-13.320000</ele>
<time>2012-03-09T11:21:35.000Z</time>
</trkpt>
<trkpt lat="31.0089385" lon="35.2886490">
<ele>-13.799999</ele>
<time>2012-03-09T11:22:10.000Z</time>
</trkpt>
<trkpt lat="31.0089354" lon="35.2886474">
<ele>-12.840000</ele>
<time>2012-03-09T11:22:41.000Z</time>
</trkpt>
<trkpt lat="31.0089365" lon="35.2886421">
<ele>-13.320000</ele>
<time>2012-03-09T11:23:15.000Z</time>
</trkpt>
<trkpt lat="31.0089382" lon="35.2886402">
<ele>-13.320000</ele>
<time>2012-03-09T11:23:44.000Z</time>
</trkpt>
<trkpt lat="31.0089327" lon="35.2886437">
<ele>-13.320000</ele>
<time>2012-03-09T11:24:12.000Z</time>
</trkpt>
<trkpt lat="31.0089343" lon="35.2886391">
<ele>-13.320000</ele>
<time>2012-03-09T11:24:45.000Z</time>
</trkpt>
<trkpt lat="31.0089335" lon="35.2886399">
<ele>-13.320000</ele>
<time>2012-03-09T11:25:09.000Z</time>
</trkpt>
<trkpt lat="31.0089364" lon="35.2886394">
<ele>-12.840000</ele>
<time>2012-03-09T11:25:41.000Z</time>
</trkpt>
<trkpt lat="31.0089308" lon="35.2886433">
<ele>-12.840000</ele>
<time>2012-03-09T11:26:17.000Z</time>
</trkpt>
<trkpt lat="31.0089321" lon="35.2886419">
<ele>-13.320000</ele>
<time>2012-03-09T11:26:48.000Z</time>
</trkpt>
<trkpt lat="31.0089287" lon="35.2886401">
<ele>-12.840000</ele>
<time>2012-03-09T11:27:21.000Z</time>
</trkpt>
<trkpt lat="31.0089317" lon="35.2886377">
<ele>-12.360001</ele>
<time>2012-03-09T11:27:53.000Z</time>
</trkpt>
<trkpt lat="31.0089313" lon="35.2886354">
<ele>-12.360001</ele>
<time>2012-03-09T11:28:29.000Z</time>
</trkpt>
<trkpt lat="31.0089276" lon="35.2886353">
<ele>-12.360001</ele>
<time>2012-03-09T11:29:08.000Z</time>
</trkpt>
<trkpt lat="31.0089272" lon="35.2886292">
<ele>-12.360001</ele>
<time>2012-03-09T11:29:41.000Z</time>
</trkpt>
<trkpt lat="31.0089252" lon="35.2886267">
<ele>-11.880000</ele>
<time>2012-03-09T11:30:20.000Z</time>
</trkpt>
<trkpt lat="31.0089290" lon="35.2886246">
<ele>-12.360001</ele>
<time>2012-03-09T11:30:58.000Z</time>
</trkpt>
<trkpt lat="31.0089235" lon="35.2886266">
<ele>-11.880000</ele>
<time>2012-03-09T11:31:37.000Z</time>
</trkpt>
<trkpt lat="31.0089289" lon="35.2886251">
<ele>-11.880000</ele>
<time>2012-03-09T11:32:20.000Z</time>
</trkpt>
<trkpt lat="31.0089328" lon="35.2886243">
<ele>-12.360001</ele>
<time>2012-03-09T11:32:55.000Z</time>
</trkpt>
<trkpt lat="31.0089285" lon="35.2886215">
<ele>-12.360001</ele>
<time>2012-03-09T11:33:31.000Z</time>
</trkpt>
<trkpt lat="31.0089253" lon="35.2886179">
<ele>-12.360001</ele>
<time>2012-03-09T11:34:05.000Z</time>
</trkpt>
<trkpt lat="31.0089216" lon="35.2886156">
<ele>-12.360001</ele>
<time>2012-03-09T11:34:40.000Z</time>
</trkpt>
<trkpt lat="31.0089219" lon="35.2886153">
<ele>-12.360001</ele>
<time>2012-03-09T11:35:09.000Z</time>
</trkpt>
<trkpt lat="31.0089216" lon="35.2886146">
<ele>-12.840000</ele>
<time>2012-03-09T11:35:40.000Z</time>
</trkpt>
<trkpt lat="31.0089212" lon="35.2886099">
<ele>-12.840000</ele>
<time>2012-03-09T11:36:09.000Z</time>
</trkpt>
<trkpt lat="31.0089235" lon="35.2886063">
<ele>-12.360001</ele>
<time>2012-03-09T11:36:43.000Z</time>
</trkpt>
<trkpt lat="31.0089293" lon="35.2886169">
<ele>-11.880000</ele>
<time>2012-03-09T11:37:07.000Z</time>
</trkpt>
<trkpt lat="31.0089528" lon="35.2886171">
<ele>-11.880000</ele>
<time>2012-03-09T11:37:24.000Z</time>
</trkpt>
<trkpt lat="31.0089605" lon="35.2886168">
<ele>-11.880000</ele>
<time>2012-03-09T11:37:25.000Z</time>
</trkpt>
<trkpt lat="31.0091846" lon="35.2886062">
<ele>-11.880000</ele>
<time>2012-03-09T11:37:37.000Z</time>
</trkpt>
<trkpt lat="31.0092107" lon="35.2886152">
<ele>-11.400000</ele>
<time>2012-03-09T11:37:41.000Z</time>
</trkpt>
<trkpt lat="31.0092268" lon="35.2886422">
<ele>-11.880000</ele>
<time>2012-03-09T11:37:44.000Z</time>
</trkpt>
<trkpt lat="31.0092720" lon="35.2886702">
<ele>-11.880000</ele>
<time>2012-03-09T11:37:50.000Z</time>
</trkpt>
<trkpt lat="31.0092830" lon="35.2887051">
<ele>-12.360001</ele>
<time>2012-03-09T11:37:54.000Z</time>
</trkpt>
<trkpt lat="31.0092980" lon="35.2887231">
<ele>-11.400000</ele>
<time>2012-03-09T11:37:58.000Z</time>
</trkpt>
<trkpt lat="31.0092736" lon="35.2887142">
<ele>-11.400000</ele>
<time>2012-03-09T11:38:13.000Z</time>
</trkpt>
<trkpt lat="31.0091756" lon="35.2887126">
<ele>-11.880000</ele>
<time>2012-03-09T11:38:30.000Z</time>
</trkpt>
<trkpt lat="31.0091315" lon="35.2887141">
<ele>-11.400000</ele>
<time>2012-03-09T11:38:34.000Z</time>
</trkpt>
<trkpt lat="31.0091080" lon="35.2887289">
<ele>-11.400000</ele>
<time>2012-03-09T11:38:36.000Z</time>
</trkpt>
<trkpt lat="31.0090893" lon="35.2887335">
<ele>-11.400000</ele>
<time>2012-03-09T11:38:38.000Z</time>
</trkpt>
<trkpt lat="31.0090615" lon="35.2887355">
<ele>-10.440000</ele>
<time>2012-03-09T11:38:43.000Z</time>
</trkpt>
<trkpt lat="31.0089851" lon="35.2888618">
<ele>-8.509999</ele>
<time>2012-03-09T11:38:58.000Z</time>
</trkpt>
<trkpt lat="31.0089947" lon="35.2888831">
<ele>-8.509999</ele>
<time>2012-03-09T11:39:00.000Z</time>
</trkpt>
<trkpt lat="31.0090942" lon="35.2889484">
<ele>-6.590000</ele>
<time>2012-03-09T11:39:16.000Z</time>
</trkpt>
<trkpt lat="31.0091017" lon="35.2889481">
<ele>-6.590000</ele>
<time>2012-03-09T11:39:41.000Z</time>
</trkpt>
<trkpt lat="31.0091199" lon="35.2889451">
<ele>-6.110000</ele>
<time>2012-03-09T11:39:43.000Z</time>
</trkpt>
<trkpt lat="31.0091407" lon="35.2889525">
<ele>-5.630000</ele>
<time>2012-03-09T11:39:46.000Z</time>
</trkpt>
<trkpt lat="31.0092081" lon="35.2889029">
<ele>-3.710000</ele>
<time>2012-03-09T11:39:59.000Z</time>
</trkpt>
<trkpt lat="31.0092659" lon="35.2889049">
<ele>-2.750000</ele>
<time>2012-03-09T11:40:08.000Z</time>
</trkpt>
<trkpt lat="31.0093051" lon="35.2889880">
<ele>-1.300000</ele>
<time>2012-03-09T11:40:23.000Z</time>
</trkpt>
<trkpt lat="31.0092619" lon="35.2890203">
<ele>-1.300000</ele>
<time>2012-03-09T11:40:34.000Z</time>
</trkpt>
<trkpt lat="31.0092050" lon="35.2890480">
<ele>-0.820000</ele>
<time>2012-03-09T11:40:38.000Z</time>
</trkpt>
<trkpt lat="31.0088958" lon="35.2891422">
<ele>-1.300000</ele>
<time>2012-03-09T11:40:52.000Z</time>
</trkpt>
<trkpt lat="31.0085162" lon="35.2893584">
<ele>-0.340000</ele>
<time>2012-03-09T11:41:08.000Z</time>
</trkpt>
<trkpt lat="31.0082214" lon="35.2896147">
<ele>-0.820000</ele>
<time>2012-03-09T11:41:19.000Z</time>
</trkpt>
<trkpt lat="31.0079016" lon="35.2899570">
<ele>-1.790000</ele>
<time>2012-03-09T11:41:31.000Z</time>
</trkpt>
<trkpt lat="31.0078592" lon="35.2899939">
<ele>-1.790000</ele>
<time>2012-03-09T11:41:32.000Z</time>
</trkpt>
<trkpt lat="31.0078151" lon="35.2900222">
<ele>-1.790000</ele>
<time>2012-03-09T11:41:33.000Z</time>
</trkpt>
<trkpt lat="31.0074785" lon="35.2902294">
<ele>-0.820000</ele>
<time>2012-03-09T11:41:44.000Z</time>
</trkpt>
<trkpt lat="31.0070068" lon="35.2905286">
<ele>-0.340000</ele>
<time>2012-03-09T11:41:59.000Z</time>
</trkpt>
<trkpt lat="31.0067038" lon="35.2907260">
<ele>-0.820000</ele>
<time>2012-03-09T11:42:08.000Z</time>
</trkpt>
<trkpt lat="31.0066012" lon="35.2907825">
<ele>-1.300000</ele>
<time>2012-03-09T11:42:11.000Z</time>
</trkpt>
<trkpt lat="31.0065632" lon="35.2908012">
<ele>-1.300000</ele>
<time>2012-03-09T11:42:12.000Z</time>
</trkpt>
<trkpt lat="31.0065250" lon="35.2908210">
<ele>-1.790000</ele>
<time>2012-03-09T11:42:13.000Z</time>
</trkpt>
<trkpt lat="31.0064862" lon="35.2908391">
<ele>-1.790000</ele>
<time>2012-03-09T11:42:14.000Z</time>
</trkpt>
<trkpt lat="31.0064496" lon="35.2908611">
<ele>-1.790000</ele>
<time>2012-03-09T11:42:15.000Z</time>
</trkpt>
<trkpt lat="31.0064141" lon="35.2908905">
<ele>-2.270000</ele>
<time>2012-03-09T11:42:16.000Z</time>
</trkpt>
<trkpt lat="31.0063778" lon="35.2909184">
<ele>-2.270000</ele>
<time>2012-03-09T11:42:17.000Z</time>
</trkpt>
<trkpt lat="31.0063440" lon="35.2909450">
<ele>-2.750000</ele>
<time>2012-03-09T11:42:18.000Z</time>
</trkpt>
<trkpt lat="31.0063163" lon="35.2909737">
<ele>-2.750000</ele>
<time>2012-03-09T11:42:19.000Z</time>
</trkpt>
<trkpt lat="31.0062937" lon="35.2910023">
<ele>-2.750000</ele>
<time>2012-03-09T11:42:20.000Z</time>
</trkpt>
<trkpt lat="31.0062756" lon="35.2910330">
<ele>-2.750000</ele>
<time>2012-03-09T11:42:21.000Z</time>
</trkpt>
<trkpt lat="31.0062637" lon="35.2910709">
<ele>-2.270000</ele>
<time>2012-03-09T11:42:22.000Z</time>
</trkpt>
<trkpt lat="31.0062490" lon="35.2911123">
<ele>-3.230000</ele>
<time>2012-03-09T11:42:23.000Z</time>
</trkpt>
<trkpt lat="31.0062253" lon="35.2911473">
<ele>-3.710000</ele>
<time>2012-03-09T11:42:24.000Z</time>
</trkpt>
<trkpt lat="31.0061927" lon="35.2911685">
<ele>-3.230000</ele>
<time>2012-03-09T11:42:25.000Z</time>
</trkpt>
<trkpt lat="31.0061630" lon="35.2911799">
<ele>-3.230000</ele>
<time>2012-03-09T11:42:26.000Z</time>
</trkpt>
<trkpt lat="31.0061347" lon="35.2911886">
<ele>-2.750000</ele>
<time>2012-03-09T11:42:27.000Z</time>
</trkpt>
<trkpt lat="31.0058507" lon="35.2914282">
<ele>-4.190000</ele>
<time>2012-03-09T11:42:38.000Z</time>
</trkpt>
<trkpt lat="31.0055943" lon="35.2917716">
<ele>-2.270000</ele>
<time>2012-03-09T11:42:51.000Z</time>
</trkpt>
<trkpt lat="31.0054570" lon="35.2918964">
<ele>-1.790000</ele>
<time>2012-03-09T11:43:00.000Z</time>
</trkpt>
<trkpt lat="31.0054458" lon="35.2919043">
<ele>-1.300000</ele>
<time>2012-03-09T11:43:01.000Z</time>
</trkpt>
<trkpt lat="31.0054129" lon="35.2919389">
<ele>-1.300000</ele>
<time>2012-03-09T11:43:05.000Z</time>
</trkpt>
<trkpt lat="31.0054059" lon="35.2919492">
<ele>-1.300000</ele>
<time>2012-03-09T11:43:06.000Z</time>
</trkpt>
<trkpt lat="31.0053973" lon="35.2919592">
<ele>-0.820000</ele>
<time>2012-03-09T11:43:07.000Z</time>
</trkpt>
<trkpt lat="31.0053851" lon="35.2919628">
<ele>-1.300000</ele>
<time>2012-03-09T11:43:08.000Z</time>
</trkpt>
<trkpt lat="31.0053715" lon="35.2919652">
<ele>-0.820000</ele>
<time>2012-03-09T11:43:09.000Z</time>
</trkpt>
<trkpt lat="31.0053586" lon="35.2919733">
<ele>-0.820000</ele>
<time>2012-03-09T11:43:10.000Z</time>
</trkpt>
<trkpt lat="31.0053454" lon="35.2919830">
<ele>-0.820000</ele>
<time>2012-03-09T11:43:11.000Z</time>
</trkpt>
<trkpt lat="31.0053325" lon="35.2919917">
<ele>-1.300000</ele>
<time>2012-03-09T11:43:12.000Z</time>
</trkpt>
<trkpt lat="31.0053188" lon="35.2919965">
<ele>-0.820000</ele>
<time>2012-03-09T11:43:13.000Z</time>
</trkpt>
<trkpt lat="31.0053082" lon="35.2920017">
<ele>-1.300000</ele>
<time>2012-03-09T11:43:14.000Z</time>
</trkpt>
<trkpt lat="31.0053107" lon="35.2919993">
<ele>-0.820000</ele>
<time>2012-03-09T11:43:26.000Z</time>
</trkpt>
<trkpt lat="31.0053161" lon="35.2920003">
<ele>-0.820000</ele>
<time>2012-03-09T11:43:56.000Z</time>
</trkpt>
<trkpt lat="31.0053289" lon="35.2920246">
<ele>-1.300000</ele>
<time>2012-03-09T11:43:59.000Z</time>
</trkpt>
<trkpt lat="31.0053528" lon="35.2920261">
<ele>-0.820000</ele>
<time>2012-03-09T11:44:01.000Z</time>
</trkpt>
<trkpt lat="31.0053611" lon="35.2921186">
<ele>-0.340000</ele>
<time>2012-03-09T11:44:05.000Z</time>
</trkpt>
<trkpt lat="31.0049966" lon="35.2924253">
<ele>3.020000</ele>
<time>2012-03-09T11:44:21.000Z</time>
</trkpt>
<trkpt lat="31.0047151" lon="35.2926849">
<ele>3.980000</ele>
<time>2012-03-09T11:44:32.000Z</time>
</trkpt>
<trkpt lat="31.0045376" lon="35.2928795">
<ele>3.980000</ele>
<time>2012-03-09T11:44:42.000Z</time>
</trkpt>
<trkpt lat="31.0045456" lon="35.2928842">
<ele>3.500000</ele>
<time>2012-03-09T11:44:58.000Z</time>
</trkpt>
<trkpt lat="31.0045068" lon="35.2929162">
<ele>3.500000</ele>
<time>2012-03-09T11:45:11.000Z</time>
</trkpt>
<trkpt lat="31.0045049" lon="35.2929194">
<ele>2.540000</ele>
<time>2012-03-09T11:45:41.000Z</time>
</trkpt>
<trkpt lat="31.0045074" lon="35.2929228">
<ele>3.020000</ele>
<time>2012-03-09T11:45:50.000Z</time>
</trkpt>
<trkpt lat="31.0044952" lon="35.2929692">
<ele>1.580000</ele>
<time>2012-03-09T11:45:59.000Z</time>
</trkpt>
<trkpt lat="31.0044552" lon="35.2929753">
<ele>0.140000</ele>
<time>2012-03-09T11:46:09.000Z</time>
</trkpt>
<trkpt lat="31.0044450" lon="35.2929904">
<ele>0.140000</ele>
<time>2012-03-09T11:46:23.000Z</time>
</trkpt>
<trkpt lat="31.0044048" lon="35.2929925">
<ele>-0.820000</ele>
<time>2012-03-09T11:46:37.000Z</time>
</trkpt>
<trkpt lat="31.0044008" lon="35.2929577">
<ele>-2.750000</ele>
<time>2012-03-09T11:46:49.000Z</time>
</trkpt>
<trkpt lat="31.0043523" lon="35.2929683">
<ele>-4.190000</ele>
<time>2012-03-09T11:47:03.000Z</time>
</trkpt>
<trkpt lat="31.0043024" lon="35.2929805">
<ele>-4.670000</ele>
<time>2012-03-09T11:47:16.000Z</time>
</trkpt>
<trkpt lat="31.0042892" lon="35.2930057">
<ele>-6.590000</ele>
<time>2012-03-09T11:47:24.000Z</time>
</trkpt>
<trkpt lat="31.0042238" lon="35.2930323">
<ele>-8.030000</ele>
<time>2012-03-09T11:47:37.000Z</time>
</trkpt>
<trkpt lat="31.0042039" lon="35.2930521">
<ele>-8.030000</ele>
<time>2012-03-09T11:47:51.000Z</time>
</trkpt>
<trkpt lat="31.0041966" lon="35.2930743">
<ele>-8.030000</ele>
<time>2012-03-09T11:48:09.000Z</time>
</trkpt>
<trkpt lat="31.0041971" lon="35.2930930">
<ele>-9.000000</ele>
<time>2012-03-09T11:48:20.000Z</time>
</trkpt>
<trkpt lat="31.0041780" lon="35.2930943">
<ele>-9.480000</ele>
<time>2012-03-09T11:48:32.000Z</time>
</trkpt>
<trkpt lat="31.0041740" lon="35.2931129">
<ele>-10.440000</ele>
<time>2012-03-09T11:48:46.000Z</time>
</trkpt>
<trkpt lat="31.0041798" lon="35.2931362">
<ele>-11.880000</ele>
<time>2012-03-09T11:48:58.000Z</time>
</trkpt>
<trkpt lat="31.0041623" lon="35.2931244">
<ele>-12.360001</ele>
<time>2012-03-09T11:49:08.000Z</time>
</trkpt>
<trkpt lat="31.0041699" lon="35.2931054">
<ele>-12.840000</ele>
<time>2012-03-09T11:49:17.000Z</time>
</trkpt>
<trkpt lat="31.0041583" lon="35.2931293">
<ele>-12.360001</ele>
<time>2012-03-09T11:49:30.000Z</time>
</trkpt>
<trkpt lat="31.0041412" lon="35.2931538">
<ele>-12.840000</ele>
<time>2012-03-09T11:49:45.000Z</time>
</trkpt>
<trkpt lat="31.0041308" lon="35.2931539">
<ele>-13.799999</ele>
<time>2012-03-09T11:50:00.000Z</time>
</trkpt>
<trkpt lat="31.0041474" lon="35.2931185">
<ele>-14.280001</ele>
<time>2012-03-09T11:50:12.000Z</time>
</trkpt>
<trkpt lat="31.0041075" lon="35.2931236">
<ele>-15.240000</ele>
<time>2012-03-09T11:50:24.000Z</time>
</trkpt>
<trkpt lat="31.0040905" lon="35.2931365">
<ele>-15.719999</ele>
<time>2012-03-09T11:50:30.000Z</time>
</trkpt>
<trkpt lat="31.0040474" lon="35.2931927">
<ele>-17.170000</ele>
<time>2012-03-09T11:50:45.000Z</time>
</trkpt>
<trkpt lat="31.0040310" lon="35.2932129">
<ele>-17.650000</ele>
<time>2012-03-09T11:51:05.000Z</time>
</trkpt>
<trkpt lat="31.0040276" lon="35.2932228">
<ele>-17.650000</ele>
<time>2012-03-09T11:51:11.000Z</time>
</trkpt>
<trkpt lat="31.0039905" lon="35.2932754">
<ele>-18.610001</ele>
<time>2012-03-09T11:51:16.000Z</time>
</trkpt>
<trkpt lat="31.0039839" lon="35.2932911">
<ele>-18.610001</ele>
<time>2012-03-09T11:51:18.000Z</time>
</trkpt>
<trkpt lat="31.0039162" lon="35.2933566">
<ele>-21.009998</ele>
<time>2012-03-09T11:51:25.000Z</time>
</trkpt>
<trkpt lat="31.0037537" lon="35.2935388">
<ele>-24.380001</ele>
<time>2012-03-09T11:51:36.000Z</time>
</trkpt>
<trkpt lat="31.0036460" lon="35.2937425">
<ele>-27.740000</ele>
<time>2012-03-09T11:51:45.000Z</time>
</trkpt>
<trkpt lat="31.0036106" lon="35.2937632">
<ele>-28.699999</ele>
<time>2012-03-09T11:51:47.000Z</time>
</trkpt>
<trkpt lat="31.0036040" lon="35.2937754">
<ele>-28.699999</ele>
<time>2012-03-09T11:51:57.000Z</time>
</trkpt>
<trkpt lat="31.0035973" lon="35.2938022">
<ele>-30.139999</ele>
<time>2012-03-09T11:52:08.000Z</time>
</trkpt>
<trkpt lat="31.0035495" lon="35.2938892">
<ele>-30.620001</ele>
<time>2012-03-09T11:52:13.000Z</time>
</trkpt>
<trkpt lat="31.0034507" lon="35.2939669">
<ele>-34.470001</ele>
<time>2012-03-09T11:52:21.000Z</time>
</trkpt>
<trkpt lat="31.0034233" lon="35.2940102">
<ele>-35.910000</ele>
<time>2012-03-09T11:52:35.000Z</time>
</trkpt>
<trkpt lat="31.0034144" lon="35.2940340">
<ele>-36.389999</ele>
<time>2012-03-09T11:52:45.000Z</time>
</trkpt>
<trkpt lat="31.0034075" lon="35.2940819">
<ele>-37.830002</ele>
<time>2012-03-09T11:52:48.000Z</time>
</trkpt>
<trkpt lat="31.0033235" lon="35.2942191">
<ele>-38.799999</ele>
<time>2012-03-09T11:52:57.000Z</time>
</trkpt>
<trkpt lat="31.0032063" lon="35.2943774">
<ele>-40.239998</ele>
<time>2012-03-09T11:53:07.000Z</time>
</trkpt>
<trkpt lat="31.0031806" lon="35.2944501">
<ele>-42.160000</ele>
<time>2012-03-09T11:53:12.000Z</time>
</trkpt>
<trkpt lat="31.0031489" lon="35.2945178">
<ele>-45.040001</ele>
<time>2012-03-09T11:53:17.000Z</time>
</trkpt>
<trkpt lat="31.0031524" lon="35.2945464">
<ele>-46.489998</ele>
<time>2012-03-09T11:53:19.000Z</time>
</trkpt>
<trkpt lat="31.0031542" lon="35.2945576">
<ele>-46.489998</ele>
<time>2012-03-09T11:53:20.000Z</time>
</trkpt>
<trkpt lat="31.0032000" lon="35.2945775">
<ele>-47.930000</ele>
<time>2012-03-09T11:53:24.000Z</time>
</trkpt>
<trkpt lat="31.0031925" lon="35.2945854">
<ele>-49.369999</ele>
<time>2012-03-09T11:53:34.000Z</time>
</trkpt>
<trkpt lat="31.0031813" lon="35.2945726">
<ele>-49.849998</ele>
<time>2012-03-09T11:53:38.000Z</time>
</trkpt>
<trkpt lat="31.0031443" lon="35.2946119">
<ele>-50.810001</ele>
<time>2012-03-09T11:53:42.000Z</time>
</trkpt>
<trkpt lat="31.0031404" lon="35.2946679">
<ele>-51.290001</ele>
<time>2012-03-09T11:53:52.000Z</time>
</trkpt>
<trkpt lat="31.0031273" lon="35.2946730">
<ele>-52.250000</ele>
<time>2012-03-09T11:54:01.000Z</time>
</trkpt>
<trkpt lat="31.0031244" lon="35.2946971">
<ele>-53.700001</ele>
<time>2012-03-09T11:54:05.000Z</time>
</trkpt>
<trkpt lat="31.0031061" lon="35.2947172">
<ele>-53.700001</ele>
<time>2012-03-09T11:54:15.000Z</time>
</trkpt>
<trkpt lat="31.0030428" lon="35.2948552">
<ele>-55.140003</ele>
<time>2012-03-09T11:54:20.000Z</time>
</trkpt>
<trkpt lat="31.0030244" lon="35.2948975">
<ele>-56.580002</ele>
<time>2012-03-09T11:54:21.000Z</time>
</trkpt>
<trkpt lat="31.0030099" lon="35.2949275">
<ele>-56.099998</ele>
<time>2012-03-09T11:54:22.000Z</time>
</trkpt>
<trkpt lat="31.0029964" lon="35.2949527">
<ele>-57.060001</ele>
<time>2012-03-09T11:54:23.000Z</time>
</trkpt>
<trkpt lat="31.0029839" lon="35.2949730">
<ele>-57.540001</ele>
<time>2012-03-09T11:54:24.000Z</time>
</trkpt>
<trkpt lat="31.0029733" lon="35.2949894">
<ele>-57.060001</ele>
<time>2012-03-09T11:54:25.000Z</time>
</trkpt>
<trkpt lat="31.0029674" lon="35.2950129">
<ele>-57.540001</ele>
<time>2012-03-09T11:54:26.000Z</time>
</trkpt>
<trkpt lat="31.0029605" lon="35.2950322">
<ele>-57.540001</ele>
<time>2012-03-09T11:54:27.000Z</time>
</trkpt>
<trkpt lat="31.0029527" lon="35.2950520">
<ele>-57.540001</ele>
<time>2012-03-09T11:54:28.000Z</time>
</trkpt>
<trkpt lat="31.0029367" lon="35.2950671">
<ele>-58.019997</ele>
<time>2012-03-09T11:54:39.000Z</time>
</trkpt>
<trkpt lat="31.0029301" lon="35.2950532">
<ele>-58.500000</ele>
<time>2012-03-09T11:55:09.000Z</time>
</trkpt>
<trkpt lat="31.0029336" lon="35.2950638">
<ele>-58.980000</ele>
<time>2012-03-09T11:55:36.000Z</time>
</trkpt>
<trkpt lat="31.0029297" lon="35.2950521">
<ele>-58.980000</ele>
<time>2012-03-09T11:56:09.000Z</time>
</trkpt>
<trkpt lat="31.0029303" lon="35.2950526">
<ele>-58.980000</ele>
<time>2012-03-09T11:56:18.000Z</time>
</trkpt>
<trkpt lat="31.0029298" lon="35.2950682">
<ele>-58.500000</ele>
<time>2012-03-09T11:56:19.000Z</time>
</trkpt>
<trkpt lat="31.0029295" lon="35.2950865">
<ele>-58.980000</ele>
<time>2012-03-09T11:56:20.000Z</time>
</trkpt>
<trkpt lat="31.0029320" lon="35.2951080">
<ele>-58.500000</ele>
<time>2012-03-09T11:56:21.000Z</time>
</trkpt>
<trkpt lat="31.0029340" lon="35.2951361">
<ele>-58.500000</ele>
<time>2012-03-09T11:56:22.000Z</time>
</trkpt>
<trkpt lat="31.0028711" lon="35.2954462">
<ele>-59.459999</ele>
<time>2012-03-09T11:56:31.000Z</time>
</trkpt>
<trkpt lat="31.0028062" lon="35.2958313">
<ele>-60.910000</ele>
<time>2012-03-09T11:56:43.000Z</time>
</trkpt>
<trkpt lat="31.0028063" lon="35.2958598">
<ele>-61.390003</ele>
<time>2012-03-09T11:56:44.000Z</time>
</trkpt>
<trkpt lat="31.0028331" lon="35.2959521">
<ele>-60.910000</ele>
<time>2012-03-09T11:56:49.000Z</time>
</trkpt>
<trkpt lat="31.0028338" lon="35.2959674">
<ele>-60.910000</ele>
<time>2012-03-09T11:56:50.000Z</time>
</trkpt>
<trkpt lat="31.0028369" lon="35.2959803">
<ele>-60.910000</ele>
<time>2012-03-09T11:56:51.000Z</time>
</trkpt>
<trkpt lat="31.0028413" lon="35.2959935">
<ele>-60.910000</ele>
<time>2012-03-09T11:56:52.000Z</time>
</trkpt>
<trkpt lat="31.0028582" lon="35.2960347">
<ele>-60.910000</ele>
<time>2012-03-09T11:57:01.000Z</time>
</trkpt>
<trkpt lat="31.0028534" lon="35.2960726">
<ele>-61.390003</ele>
<time>2012-03-09T11:57:07.000Z</time>
</trkpt>
<trkpt lat="31.0028326" lon="35.2961858">
<ele>-62.349998</ele>
<time>2012-03-09T11:57:19.000Z</time>
</trkpt>
<trkpt lat="31.0028207" lon="35.2961930">
<ele>-61.869999</ele>
<time>2012-03-09T11:57:21.000Z</time>
</trkpt>
<trkpt lat="31.0028148" lon="35.2961943">
<ele>-62.830002</ele>
<time>2012-03-09T11:57:33.000Z</time>
</trkpt>
<trkpt lat="31.0028099" lon="35.2962062">
<ele>-62.830002</ele>
<time>2012-03-09T11:57:34.000Z</time>
</trkpt>
<trkpt lat="31.0027909" lon="35.2962354">
<ele>-62.830002</ele>
<time>2012-03-09T11:57:37.000Z</time>
</trkpt>
<trkpt lat="31.0027524" lon="35.2963267">
<ele>-63.790001</ele>
<time>2012-03-09T11:57:49.000Z</time>
</trkpt>
<trkpt lat="31.0027408" lon="35.2963518">
<ele>-64.750000</ele>
<time>2012-03-09T11:57:52.000Z</time>
</trkpt>
<trkpt lat="31.0027339" lon="35.2963636">
<ele>-64.269997</ele>
<time>2012-03-09T11:57:53.000Z</time>
</trkpt>
<trkpt lat="31.0027223" lon="35.2963683">
<ele>-64.750000</ele>
<time>2012-03-09T11:57:54.000Z</time>
</trkpt>
<trkpt lat="31.0026695" lon="35.2964015">
<ele>-64.750000</ele>
<time>2012-03-09T11:58:01.000Z</time>
</trkpt>
<trkpt lat="31.0026572" lon="35.2964194">
<ele>-64.750000</ele>
<time>2012-03-09T11:58:07.000Z</time>
</trkpt>
<trkpt lat="31.0026369" lon="35.2964400">
<ele>-65.230003</ele>
<time>2012-03-09T11:58:11.000Z</time>
</trkpt>
<trkpt lat="31.0026252" lon="35.2964512">
<ele>-65.230003</ele>
<time>2012-03-09T11:58:25.000Z</time>
</trkpt>
<trkpt lat="31.0026198" lon="35.2964536">
<ele>-65.230003</ele>
<time>2012-03-09T11:58:50.000Z</time>
</trkpt>
<trkpt lat="31.0025996" lon="35.2964864">
<ele>-65.230003</ele>
<time>2012-03-09T11:58:54.000Z</time>
</trkpt>
<trkpt lat="31.0025757" lon="35.2965822">
<ele>-64.269997</ele>
<time>2012-03-09T11:59:06.000Z</time>
</trkpt>
<trkpt lat="31.0025692" lon="35.2966042">
<ele>-64.269997</ele>
<time>2012-03-09T11:59:08.000Z</time>
</trkpt>
<trkpt lat="31.0025843" lon="35.2966688">
<ele>-64.269997</ele>
<time>2012-03-09T11:59:13.000Z</time>
</trkpt>
<trkpt lat="31.0025988" lon="35.2967328">
<ele>-64.269997</ele>
<time>2012-03-09T11:59:19.000Z</time>
</trkpt>
<trkpt lat="31.0026067" lon="35.2968321">
<ele>-63.790001</ele>
<time>2012-03-09T11:59:30.000Z</time>
</trkpt>
<trkpt lat="31.0025935" lon="35.2968565">
<ele>-63.790001</ele>
<time>2012-03-09T11:59:33.000Z</time>
</trkpt>
<trkpt lat="31.0025805" lon="35.2968766">
<ele>-63.790001</ele>
<time>2012-03-09T11:59:35.000Z</time>
</trkpt>
<trkpt lat="31.0025465" lon="35.2969449">
<ele>-63.310001</ele>
<time>2012-03-09T11:59:49.000Z</time>
</trkpt>
<trkpt lat="31.0025811" lon="35.2970894">
<ele>-63.310001</ele>
<time>2012-03-09T11:59:55.000Z</time>
</trkpt>
<trkpt lat="31.0026029" lon="35.2971127">
<ele>-63.790001</ele>
<time>2012-03-09T11:59:56.000Z</time>
</trkpt>
<trkpt lat="31.0026177" lon="35.2971428">
<ele>-63.790001</ele>
<time>2012-03-09T11:59:57.000Z</time>
</trkpt>
<trkpt lat="31.0027433" lon="35.2974000">
<ele>-62.830002</ele>
<time>2012-03-09T12:00:09.000Z</time>
</trkpt>
<trkpt lat="31.0027541" lon="35.2974148">
<ele>-62.830002</ele>
<time>2012-03-09T12:00:10.000Z</time>
</trkpt>
<trkpt lat="31.0027669" lon="35.2974321">
<ele>-62.349998</ele>
<time>2012-03-09T12:00:11.000Z</time>
</trkpt>
<trkpt lat="31.0029382" lon="35.2977156">
<ele>-61.869999</ele>
<time>2012-03-09T12:00:25.000Z</time>
</trkpt>
<trkpt lat="31.0029702" lon="35.2980318">
<ele>-61.390003</ele>
<time>2012-03-09T12:00:38.000Z</time>
</trkpt>
<trkpt lat="31.0027947" lon="35.2983859">
<ele>-61.390003</ele>
<time>2012-03-09T12:00:54.000Z</time>
</trkpt>
<trkpt lat="31.0024333" lon="35.2984738">
<ele>-61.390003</ele>
<time>2012-03-09T12:01:06.000Z</time>
</trkpt>
<trkpt lat="31.0023577" lon="35.2984756">
<ele>-61.869999</ele>
<time>2012-03-09T12:01:08.000Z</time>
</trkpt>
<trkpt lat="31.0023145" lon="35.2984761">
<ele>-62.349998</ele>
<time>2012-03-09T12:01:09.000Z</time>
</trkpt>
<trkpt lat="31.0020217" lon="35.2985249">
<ele>-63.310001</ele>
<time>2012-03-09T12:01:16.000Z</time>
</trkpt>
<trkpt lat="31.0019815" lon="35.2985238">
<ele>-63.310001</ele>
<time>2012-03-09T12:01:17.000Z</time>
</trkpt>
<trkpt lat="31.0019427" lon="35.2985276">
<ele>-63.310001</ele>
<time>2012-03-09T12:01:18.000Z</time>
</trkpt>
<trkpt lat="31.0016662" lon="35.2985307">
<ele>-64.269997</ele>
<time>2012-03-09T12:01:25.000Z</time>
</trkpt>
<trkpt lat="31.0016231" lon="35.2985377">
<ele>-64.269997</ele>
<time>2012-03-09T12:01:26.000Z</time>
</trkpt>
<trkpt lat="31.0015778" lon="35.2985481">
<ele>-64.750000</ele>
<time>2012-03-09T12:01:27.000Z</time>
</trkpt>
<trkpt lat="31.0015316" lon="35.2985529">
<ele>-64.750000</ele>
<time>2012-03-09T12:01:28.000Z</time>
</trkpt>
<trkpt lat="31.0014849" lon="35.2985523">
<ele>-65.709999</ele>
<time>2012-03-09T12:01:29.000Z</time>
</trkpt>
<trkpt lat="31.0014413" lon="35.2985558">
<ele>-65.230003</ele>
<time>2012-03-09T12:01:30.000Z</time>
</trkpt>
<trkpt lat="31.0013991" lon="35.2985642">
<ele>-66.190002</ele>
<time>2012-03-09T12:01:31.000Z</time>
</trkpt>
<trkpt lat="31.0013590" lon="35.2985812">
<ele>-66.190002</ele>
<time>2012-03-09T12:01:32.000Z</time>
</trkpt>
<trkpt lat="31.0012797" lon="35.2986300">
<ele>-66.669998</ele>
<time>2012-03-09T12:01:34.000Z</time>
</trkpt>
<trkpt lat="31.0012378" lon="35.2986462">
<ele>-66.669998</ele>
<time>2012-03-09T12:01:35.000Z</time>
</trkpt>
<trkpt lat="31.0010084" lon="35.2987884">
<ele>-67.150002</ele>
<time>2012-03-09T12:01:44.000Z</time>
</trkpt>
<trkpt lat="31.0009200" lon="35.2988984">
<ele>-67.639999</ele>
<time>2012-03-09T12:01:47.000Z</time>
</trkpt>
<trkpt lat="31.0008921" lon="35.2989484">
<ele>-68.599998</ele>
<time>2012-03-09T12:01:48.000Z</time>
</trkpt>
<trkpt lat="31.0008652" lon="35.2989929">
<ele>-68.599998</ele>
<time>2012-03-09T12:01:49.000Z</time>
</trkpt>
<trkpt lat="31.0008365" lon="35.2990292">
<ele>-68.599998</ele>
<time>2012-03-09T12:01:50.000Z</time>
</trkpt>
<trkpt lat="31.0008090" lon="35.2990616">
<ele>-69.080002</ele>
<time>2012-03-09T12:01:51.000Z</time>
</trkpt>
<trkpt lat="31.0007861" lon="35.2990950">
<ele>-69.080002</ele>
<time>2012-03-09T12:01:52.000Z</time>
</trkpt>
<trkpt lat="31.0007667" lon="35.2991321">
<ele>-69.559998</ele>
<time>2012-03-09T12:01:53.000Z</time>
</trkpt>
<trkpt lat="31.0007490" lon="35.2991714">
<ele>-69.559998</ele>
<time>2012-03-09T12:01:54.000Z</time>
</trkpt>
<trkpt lat="31.0004457" lon="35.2995580">
<ele>-70.040001</ele>
<time>2012-03-09T12:02:05.000Z</time>
</trkpt>
<trkpt lat="31.0004168" lon="35.2995966">
<ele>-70.040001</ele>
<time>2012-03-09T12:02:06.000Z</time>
</trkpt>
<trkpt lat="31.0003828" lon="35.2996280">
<ele>-70.040001</ele>
<time>2012-03-09T12:02:07.000Z</time>
</trkpt>
<trkpt lat="31.0003457" lon="35.2996547">
<ele>-70.519997</ele>
<time>2012-03-09T12:02:08.000Z</time>
</trkpt>
<trkpt lat="31.0003092" lon="35.2996810">
<ele>-70.519997</ele>
<time>2012-03-09T12:02:09.000Z</time>
</trkpt>
<trkpt lat="31.0002807" lon="35.2997086">
<ele>-70.519997</ele>
<time>2012-03-09T12:02:10.000Z</time>
</trkpt>
<trkpt lat="31.0002257" lon="35.2997898">
<ele>-70.519997</ele>
<time>2012-03-09T12:02:13.000Z</time>
</trkpt>
<trkpt lat="31.0002247" lon="35.2998135">
<ele>-70.040001</ele>
<time>2012-03-09T12:02:14.000Z</time>
</trkpt>
<trkpt lat="31.0001845" lon="35.3001882">
<ele>-68.120003</ele>
<time>2012-03-09T12:02:28.000Z</time>
</trkpt>
<trkpt lat="31.0001857" lon="35.3002529">
<ele>-67.639999</ele>
<time>2012-03-09T12:02:31.000Z</time>
</trkpt>
<trkpt lat="31.0001932" lon="35.3002679">
<ele>-67.639999</ele>
<time>2012-03-09T12:02:32.000Z</time>
</trkpt>
<trkpt lat="31.0002112" lon="35.3003081">
<ele>-68.120003</ele>
<time>2012-03-09T12:02:34.000Z</time>
</trkpt>
<trkpt lat="31.0002155" lon="35.3003419">
<ele>-68.120003</ele>
<time>2012-03-09T12:02:35.000Z</time>
</trkpt>
<trkpt lat="31.0002161" lon="35.3003674">
<ele>-68.599998</ele>
<time>2012-03-09T12:02:36.000Z</time>
</trkpt>
<trkpt lat="31.0002164" lon="35.3003935">
<ele>-68.599998</ele>
<time>2012-03-09T12:02:37.000Z</time>
</trkpt>
<trkpt lat="31.0002153" lon="35.3004197">
<ele>-68.599998</ele>
<time>2012-03-09T12:02:38.000Z</time>
</trkpt>
<trkpt lat="31.0001953" lon="35.3008604">
<ele>-68.599998</ele>
<time>2012-03-09T12:02:54.000Z</time>
</trkpt>
<trkpt lat="31.0001585" lon="35.3011211">
<ele>-67.150002</ele>
<time>2012-03-09T12:03:05.000Z</time>
</trkpt>
<trkpt lat="31.0001591" lon="35.3013785">
<ele>-65.230003</ele>
<time>2012-03-09T12:03:18.000Z</time>
</trkpt>
<trkpt lat="30.9999935" lon="35.3016664">
<ele>-64.750000</ele>
<time>2012-03-09T12:03:31.000Z</time>
</trkpt>
<trkpt lat="30.9999768" lon="35.3017116">
<ele>-65.709999</ele>
<time>2012-03-09T12:03:32.000Z</time>
</trkpt>
<trkpt lat="30.9999656" lon="35.3017571">
<ele>-66.190002</ele>
<time>2012-03-09T12:03:33.000Z</time>
</trkpt>
<trkpt lat="30.9999500" lon="35.3017921">
<ele>-66.669998</ele>
<time>2012-03-09T12:03:34.000Z</time>
</trkpt>
<trkpt lat="30.9999361" lon="35.3018167">
<ele>-66.669998</ele>
<time>2012-03-09T12:03:35.000Z</time>
</trkpt>
<trkpt lat="30.9999215" lon="35.3018370">
<ele>-66.669998</ele>
<time>2012-03-09T12:03:36.000Z</time>
</trkpt>
<trkpt lat="30.9999078" lon="35.3018560">
<ele>-66.669998</ele>
<time>2012-03-09T12:03:37.000Z</time>
</trkpt>
<trkpt lat="30.9998931" lon="35.3018774">
<ele>-67.150002</ele>
<time>2012-03-09T12:03:38.000Z</time>
</trkpt>
<trkpt lat="30.9998800" lon="35.3018945">
<ele>-68.120003</ele>
<time>2012-03-09T12:03:39.000Z</time>
</trkpt>
<trkpt lat="30.9998712" lon="35.3019109">
<ele>-68.599998</ele>
<time>2012-03-09T12:03:40.000Z</time>
</trkpt>
<trkpt lat="30.9998590" lon="35.3019255">
<ele>-69.080002</ele>
<time>2012-03-09T12:03:41.000Z</time>
</trkpt>
<trkpt lat="30.9998436" lon="35.3019392">
<ele>-69.559998</ele>
<time>2012-03-09T12:03:42.000Z</time>
</trkpt>
<trkpt lat="30.9998310" lon="35.3019493">
<ele>-69.559998</ele>
<time>2012-03-09T12:03:43.000Z</time>
</trkpt>
<trkpt lat="30.9998195" lon="35.3019581">
<ele>-69.080002</ele>
<time>2012-03-09T12:03:44.000Z</time>
</trkpt>
<trkpt lat="30.9998018" lon="35.3019829">
<ele>-70.040001</ele>
<time>2012-03-09T12:03:56.000Z</time>
</trkpt>
<trkpt lat="30.9997946" lon="35.3019919">
<ele>-70.040001</ele>
<time>2012-03-09T12:04:14.000Z</time>
</trkpt>
<trkpt lat="30.9997731" lon="35.3020136">
<ele>-71.959999</ele>
<time>2012-03-09T12:04:29.000Z</time>
</trkpt>
<trkpt lat="30.9997643" lon="35.3020353">
<ele>-72.440002</ele>
<time>2012-03-09T12:04:31.000Z</time>
</trkpt>
<trkpt lat="30.9996647" lon="35.3021089">
<ele>-74.360001</ele>
<time>2012-03-09T12:04:39.000Z</time>
</trkpt>
<trkpt lat="30.9995800" lon="35.3021554">
<ele>-75.330002</ele>
<time>2012-03-09T12:04:43.000Z</time>
</trkpt>
<trkpt lat="30.9995650" lon="35.3021410">
<ele>-74.849998</ele>
<time>2012-03-09T12:04:44.000Z</time>
</trkpt>
<trkpt lat="30.9995563" lon="35.3021205">
<ele>-75.330002</ele>
<time>2012-03-09T12:04:45.000Z</time>
</trkpt>
<trkpt lat="30.9994921" lon="35.3019903">
<ele>-73.880005</ele>
<time>2012-03-09T12:04:53.000Z</time>
</trkpt>
<trkpt lat="30.9994755" lon="35.3019990">
<ele>-73.400002</ele>
<time>2012-03-09T12:04:54.000Z</time>
</trkpt>
<trkpt lat="30.9993688" lon="35.3021552">
<ele>-72.919998</ele>
<time>2012-03-09T12:05:05.000Z</time>
</trkpt>
<trkpt lat="30.9994065" lon="35.3023033">
<ele>-72.440002</ele>
<time>2012-03-09T12:05:12.000Z</time>
</trkpt>
<trkpt lat="30.9995285" lon="35.3024789">
<ele>-71.959999</ele>
<time>2012-03-09T12:05:25.000Z</time>
</trkpt>
<trkpt lat="30.9995387" lon="35.3024870">
<ele>-71.959999</ele>
<time>2012-03-09T12:05:41.000Z</time>
</trkpt>
<trkpt lat="30.9995380" lon="35.3024835">
<ele>-72.440002</ele>
<time>2012-03-09T12:06:08.000Z</time>
</trkpt>
<trkpt lat="30.9995149" lon="35.3025078">
<ele>-72.919998</ele>
<time>2012-03-09T12:06:19.000Z</time>
</trkpt>
<trkpt lat="30.9995127" lon="35.3025197">
<ele>-72.440002</ele>
<time>2012-03-09T12:06:20.000Z</time>
</trkpt>
<trkpt lat="30.9995134" lon="35.3025363">
<ele>-72.440002</ele>
<time>2012-03-09T12:06:21.000Z</time>
</trkpt>
<trkpt lat="30.9995071" lon="35.3025557">
<ele>-72.440002</ele>
<time>2012-03-09T12:06:22.000Z</time>
</trkpt>
<trkpt lat="30.9995011" lon="35.3025772">
<ele>-71.959999</ele>
<time>2012-03-09T12:06:23.000Z</time>
</trkpt>
<trkpt lat="30.9993772" lon="35.3029067">
<ele>-71.480003</ele>
<time>2012-03-09T12:06:38.000Z</time>
</trkpt>
<trkpt lat="30.9992182" lon="35.3032534">
<ele>-70.519997</ele>
<time>2012-03-09T12:06:52.000Z</time>
</trkpt>
<trkpt lat="30.9990175" lon="35.3034831">
<ele>-70.519997</ele>
<time>2012-03-09T12:07:05.000Z</time>
</trkpt>
<trkpt lat="30.9988755" lon="35.3035813">
<ele>-71.000000</ele>
<time>2012-03-09T12:07:10.000Z</time>
</trkpt>
<trkpt lat="30.9988387" lon="35.3036105">
<ele>-71.000000</ele>
<time>2012-03-09T12:07:11.000Z</time>
</trkpt>
<trkpt lat="30.9985083" lon="35.3037668">
<ele>-72.919998</ele>
<time>2012-03-09T12:07:22.000Z</time>
</trkpt>
<trkpt lat="30.9982836" lon="35.3036809">
<ele>-73.880005</ele>
<time>2012-03-09T12:07:31.000Z</time>
</trkpt>
<trkpt lat="30.9981812" lon="35.3036143">
<ele>-74.849998</ele>
<time>2012-03-09T12:07:35.000Z</time>
</trkpt>
<trkpt lat="30.9981580" lon="35.3036183">
<ele>-74.849998</ele>
<time>2012-03-09T12:07:36.000Z</time>
</trkpt>
<trkpt lat="30.9981343" lon="35.3036232">
<ele>-75.330002</ele>
<time>2012-03-09T12:07:37.000Z</time>
</trkpt>
<trkpt lat="30.9981127" lon="35.3036308">
<ele>-75.330002</ele>
<time>2012-03-09T12:07:38.000Z</time>
</trkpt>
<trkpt lat="30.9980880" lon="35.3036406">
<ele>-75.330002</ele>
<time>2012-03-09T12:07:39.000Z</time>
</trkpt>
<trkpt lat="30.9980624" lon="35.3036526">
<ele>-75.330002</ele>
<time>2012-03-09T12:07:40.000Z</time>
</trkpt>
<trkpt lat="30.9980330" lon="35.3036578">
<ele>-75.809998</ele>
<time>2012-03-09T12:07:41.000Z</time>
</trkpt>
<trkpt lat="30.9978602" lon="35.3036913">
<ele>-75.809998</ele>
<time>2012-03-09T12:07:46.000Z</time>
</trkpt>
<trkpt lat="30.9978417" lon="35.3037145">
<ele>-75.809998</ele>
<time>2012-03-09T12:07:47.000Z</time>
</trkpt>
<trkpt lat="30.9978236" lon="35.3037360">
<ele>-75.809998</ele>
<time>2012-03-09T12:07:48.000Z</time>
</trkpt>
<trkpt lat="30.9978046" lon="35.3037548">
<ele>-75.809998</ele>
<time>2012-03-09T12:07:49.000Z</time>
</trkpt>
<trkpt lat="30.9977879" lon="35.3037756">
<ele>-75.809998</ele>
<time>2012-03-09T12:07:50.000Z</time>
</trkpt>
<trkpt lat="30.9977690" lon="35.3037945">
<ele>-75.809998</ele>
<time>2012-03-09T12:07:51.000Z</time>
</trkpt>
<trkpt lat="30.9977501" lon="35.3038152">
<ele>-75.809998</ele>
<time>2012-03-09T12:07:52.000Z</time>
</trkpt>
<trkpt lat="30.9977308" lon="35.3038364">
<ele>-76.290001</ele>
<time>2012-03-09T12:07:53.000Z</time>
</trkpt>
<trkpt lat="30.9977132" lon="35.3038595">
<ele>-75.809998</ele>
<time>2012-03-09T12:07:54.000Z</time>
</trkpt>
<trkpt lat="30.9976948" lon="35.3038840">
<ele>-75.809998</ele>
<time>2012-03-09T12:07:55.000Z</time>
</trkpt>
<trkpt lat="30.9976826" lon="35.3039075">
<ele>-75.809998</ele>
<time>2012-03-09T12:07:56.000Z</time>
</trkpt>
<trkpt lat="30.9976652" lon="35.3039212">
<ele>-76.290001</ele>
<time>2012-03-09T12:08:08.000Z</time>
</trkpt>
<trkpt lat="30.9976645" lon="35.3039097">
<ele>-76.769997</ele>
<time>2012-03-09T12:08:38.000Z</time>
</trkpt>
<trkpt lat="30.9976355" lon="35.3039196">
<ele>-76.290001</ele>
<time>2012-03-09T12:08:48.000Z</time>
</trkpt>
<trkpt lat="30.9976211" lon="35.3039277">
<ele>-76.290001</ele>
<time>2012-03-09T12:08:49.000Z</time>
</trkpt>
<trkpt lat="30.9976037" lon="35.3039357">
<ele>-76.769997</ele>
<time>2012-03-09T12:08:50.000Z</time>
</trkpt>
<trkpt lat="30.9975834" lon="35.3039411">
<ele>-76.290001</ele>
<time>2012-03-09T12:08:51.000Z</time>
</trkpt>
<trkpt lat="30.9975654" lon="35.3039513">
<ele>-76.290001</ele>
<time>2012-03-09T12:08:52.000Z</time>
</trkpt>
<trkpt lat="30.9975462" lon="35.3039665">
<ele>-76.290001</ele>
<time>2012-03-09T12:08:53.000Z</time>
</trkpt>
<trkpt lat="30.9975267" lon="35.3039867">
<ele>-76.290001</ele>
<time>2012-03-09T12:08:54.000Z</time>
</trkpt>
<trkpt lat="30.9972776" lon="35.3042340">
<ele>-75.809998</ele>
<time>2012-03-09T12:09:07.000Z</time>
</trkpt>
<trkpt lat="30.9972646" lon="35.3042442">
<ele>-75.330002</ele>
<time>2012-03-09T12:09:08.000Z</time>
</trkpt>
<trkpt lat="30.9972544" lon="35.3042539">
<ele>-75.330002</ele>
<time>2012-03-09T12:09:09.000Z</time>
</trkpt>
<trkpt lat="30.9970927" lon="35.3043891">
<ele>-74.360001</ele>
<time>2012-03-09T12:09:21.000Z</time>
</trkpt>
<trkpt lat="30.9970625" lon="35.3043906">
<ele>-73.880005</ele>
<time>2012-03-09T12:09:32.000Z</time>
</trkpt>
<trkpt lat="30.9970628" lon="35.3043838">
<ele>-73.880005</ele>
<time>2012-03-09T12:09:51.000Z</time>
</trkpt>
<trkpt lat="30.9970486" lon="35.3043904">
<ele>-73.880005</ele>
<time>2012-03-09T12:09:52.000Z</time>
</trkpt>
<trkpt lat="30.9970316" lon="35.3043976">
<ele>-73.880005</ele>
<time>2012-03-09T12:09:53.000Z</time>
</trkpt>
<trkpt lat="30.9970127" lon="35.3044043">
<ele>-74.360001</ele>
<time>2012-03-09T12:09:54.000Z</time>
</trkpt>
<trkpt lat="30.9969916" lon="35.3044116">
<ele>-73.880005</ele>
<time>2012-03-09T12:09:55.000Z</time>
</trkpt>
<trkpt lat="30.9969731" lon="35.3044227">
<ele>-73.880005</ele>
<time>2012-03-09T12:09:56.000Z</time>
</trkpt>
<trkpt lat="30.9969551" lon="35.3044419">
<ele>-73.880005</ele>
<time>2012-03-09T12:09:57.000Z</time>
</trkpt>
<trkpt lat="30.9969307" lon="35.3044635">
<ele>-73.880005</ele>
<time>2012-03-09T12:09:58.000Z</time>
</trkpt>
<trkpt lat="30.9969040" lon="35.3044773">
<ele>-73.880005</ele>
<time>2012-03-09T12:09:59.000Z</time>
</trkpt>
<trkpt lat="30.9968839" lon="35.3044839">
<ele>-74.360001</ele>
<time>2012-03-09T12:10:00.000Z</time>
</trkpt>
<trkpt lat="30.9968691" lon="35.3044851">
<ele>-73.880005</ele>
<time>2012-03-09T12:10:01.000Z</time>
</trkpt>
<trkpt lat="30.9967264" lon="35.3045804">
<ele>-75.330002</ele>
<time>2012-03-09T12:10:11.000Z</time>
</trkpt>
<trkpt lat="30.9964125" lon="35.3047154">
<ele>-78.209999</ele>
<time>2012-03-09T12:10:23.000Z</time>
</trkpt>
<trkpt lat="30.9963371" lon="35.3047350">
<ele>-78.209999</ele>
<time>2012-03-09T12:10:26.000Z</time>
</trkpt>
<trkpt lat="30.9963265" lon="35.3047504">
<ele>-77.730003</ele>
<time>2012-03-09T12:10:27.000Z</time>
</trkpt>
<trkpt lat="30.9963222" lon="35.3047692">
<ele>-77.730003</ele>
<time>2012-03-09T12:10:28.000Z</time>
</trkpt>
<trkpt lat="30.9963207" lon="35.3047916">
<ele>-77.250000</ele>
<time>2012-03-09T12:10:29.000Z</time>
</trkpt>
<trkpt lat="30.9963193" lon="35.3048179">
<ele>-77.250000</ele>
<time>2012-03-09T12:10:30.000Z</time>
</trkpt>
<trkpt lat="30.9963138" lon="35.3048440">
<ele>-76.769997</ele>
<time>2012-03-09T12:10:31.000Z</time>
</trkpt>
<trkpt lat="30.9963035" lon="35.3048613">
<ele>-76.290001</ele>
<time>2012-03-09T12:10:32.000Z</time>
</trkpt>
<trkpt lat="30.9962945" lon="35.3048736">
<ele>-76.769997</ele>
<time>2012-03-09T12:10:33.000Z</time>
</trkpt>
<trkpt lat="30.9962848" lon="35.3048911">
<ele>-76.769997</ele>
<time>2012-03-09T12:10:34.000Z</time>
</trkpt>
<trkpt lat="30.9962762" lon="35.3049107">
<ele>-75.809998</ele>
<time>2012-03-09T12:10:35.000Z</time>
</trkpt>
<trkpt lat="30.9962666" lon="35.3049312">
<ele>-76.290001</ele>
<time>2012-03-09T12:10:36.000Z</time>
</trkpt>
<trkpt lat="30.9961294" lon="35.3050548">
<ele>-76.769997</ele>
<time>2012-03-09T12:10:48.000Z</time>
</trkpt>
<trkpt lat="30.9961203" lon="35.3050502">
<ele>-76.769997</ele>
<time>2012-03-09T12:11:18.000Z</time>
</trkpt>
<trkpt lat="30.9961078" lon="35.3050548">
<ele>-76.290001</ele>
<time>2012-03-09T12:11:19.000Z</time>
</trkpt>
<trkpt lat="30.9958858" lon="35.3051171">
<ele>-76.769997</ele>
<time>2012-03-09T12:11:33.000Z</time>
</trkpt>
<trkpt lat="30.9958031" lon="35.3051838">
<ele>-79.650002</ele>
<time>2012-03-09T12:11:38.000Z</time>
</trkpt>
<trkpt lat="30.9957102" lon="35.3052595">
<ele>-83.020004</ele>
<time>2012-03-09T12:11:43.000Z</time>
</trkpt>
<trkpt lat="30.9956830" lon="35.3052846">
<ele>-84.459999</ele>
<time>2012-03-09T12:11:46.000Z</time>
</trkpt>
<trkpt lat="30.9956820" lon="35.3052794">
<ele>-84.459999</ele>
<time>2012-03-09T12:11:56.000Z</time>
</trkpt>
<trkpt lat="30.9956719" lon="35.3052740">
<ele>-83.979996</ele>
<time>2012-03-09T12:12:28.000Z</time>
</trkpt>
<trkpt lat="30.9956523" lon="35.3052681">
<ele>-83.979996</ele>
<time>2012-03-09T12:12:47.000Z</time>
</trkpt>
<trkpt lat="30.9955706" lon="35.3053657">
<ele>-83.500000</ele>
<time>2012-03-09T12:13:01.000Z</time>
</trkpt>
<trkpt lat="30.9955132" lon="35.3054682">
<ele>-80.610001</ele>
<time>2012-03-09T12:13:18.000Z</time>
</trkpt>
<trkpt lat="30.9954466" lon="35.3055024">
<ele>-78.689995</ele>
<time>2012-03-09T12:13:32.000Z</time>
</trkpt>
<trkpt lat="30.9953689" lon="35.3055799">
<ele>-76.769997</ele>
<time>2012-03-09T12:13:48.000Z</time>
</trkpt>
<trkpt lat="30.9953336" lon="35.3056027">
<ele>-74.849998</ele>
<time>2012-03-09T12:14:01.000Z</time>
</trkpt>
<trkpt lat="30.9953321" lon="35.3056019">
<ele>-75.330002</ele>
<time>2012-03-09T12:14:02.000Z</time>
</trkpt>
<trkpt lat="30.9952957" lon="35.3056129">
<ele>-73.880005</ele>
<time>2012-03-09T12:14:08.000Z</time>
</trkpt>
<trkpt lat="30.9952828" lon="35.3056908">
<ele>-71.959999</ele>
<time>2012-03-09T12:14:21.000Z</time>
</trkpt>
<trkpt lat="30.9952765" lon="35.3056911">
<ele>-70.519997</ele>
<time>2012-03-09T12:14:27.000Z</time>
</trkpt>
<trkpt lat="30.9952647" lon="35.3057438">
<ele>-69.080002</ele>
<time>2012-03-09T12:14:37.000Z</time>
</trkpt>
<trkpt lat="30.9952597" lon="35.3057781">
<ele>-68.599998</ele>
<time>2012-03-09T12:14:49.000Z</time>
</trkpt>
<trkpt lat="30.9952463" lon="35.3057743">
<ele>-68.599998</ele>
<time>2012-03-09T12:15:17.000Z</time>
</trkpt>
<trkpt lat="30.9952466" lon="35.3057790">
<ele>-69.080002</ele>
<time>2012-03-09T12:15:27.000Z</time>
</trkpt>
<trkpt lat="30.9952488" lon="35.3057801">
<ele>-70.519997</ele>
<time>2012-03-09T12:15:52.000Z</time>
</trkpt>
<trkpt lat="30.9952410" lon="35.3057980">
<ele>-69.559998</ele>
<time>2012-03-09T12:16:07.000Z</time>
</trkpt>
<trkpt lat="30.9951967" lon="35.3059096">
<ele>-67.150002</ele>
<time>2012-03-09T12:16:23.000Z</time>
</trkpt>
<trkpt lat="30.9952004" lon="35.3059795">
<ele>-63.790001</ele>
<time>2012-03-09T12:16:33.000Z</time>
</trkpt>
<trkpt lat="30.9951873" lon="35.3060448">
<ele>-63.790001</ele>
<time>2012-03-09T12:16:48.000Z</time>
</trkpt>
<trkpt lat="30.9951731" lon="35.3060769">
<ele>-62.349998</ele>
<time>2012-03-09T12:17:02.000Z</time>
</trkpt>
<trkpt lat="30.9951592" lon="35.3061002">
<ele>-62.349998</ele>
<time>2012-03-09T12:17:05.000Z</time>
</trkpt>
<trkpt lat="30.9951367" lon="35.3061829">
<ele>-62.349998</ele>
<time>2012-03-09T12:17:19.000Z</time>
</trkpt>
<trkpt lat="30.9951405" lon="35.3061843">
<ele>-61.869999</ele>
<time>2012-03-09T12:17:48.000Z</time>
</trkpt>
<trkpt lat="30.9951343" lon="35.3061973">
<ele>-60.910000</ele>
<time>2012-03-09T12:18:00.000Z</time>
</trkpt>
<trkpt lat="30.9951347" lon="35.3061999">
<ele>-62.349998</ele>
<time>2012-03-09T12:18:02.000Z</time>
</trkpt>
<trkpt lat="30.9951340" lon="35.3062066">
<ele>-62.349998</ele>
<time>2012-03-09T12:18:03.000Z</time>
</trkpt>
<trkpt lat="30.9951344" lon="35.3062239">
<ele>-62.830002</ele>
<time>2012-03-09T12:18:04.000Z</time>
</trkpt>
<trkpt lat="30.9951329" lon="35.3062373">
<ele>-62.830002</ele>
<time>2012-03-09T12:18:05.000Z</time>
</trkpt>
<trkpt lat="30.9951321" lon="35.3062541">
<ele>-62.349998</ele>
<time>2012-03-09T12:18:06.000Z</time>
</trkpt>
<trkpt lat="30.9951340" lon="35.3062762">
<ele>-62.349998</ele>
<time>2012-03-09T12:18:07.000Z</time>
</trkpt>
<trkpt lat="30.9951345" lon="35.3062939">
<ele>-62.349998</ele>
<time>2012-03-09T12:18:08.000Z</time>
</trkpt>
<trkpt lat="30.9951373" lon="35.3063122">
<ele>-62.349998</ele>
<time>2012-03-09T12:18:09.000Z</time>
</trkpt>
<trkpt lat="30.9951391" lon="35.3063325">
<ele>-61.390003</ele>
<time>2012-03-09T12:18:10.000Z</time>
</trkpt>
<trkpt lat="30.9951387" lon="35.3063563">
<ele>-61.390003</ele>
<time>2012-03-09T12:18:11.000Z</time>
</trkpt>
<trkpt lat="30.9951396" lon="35.3063805">
<ele>-61.869999</ele>
<time>2012-03-09T12:18:12.000Z</time>
</trkpt>
<trkpt lat="30.9951421" lon="35.3064068">
<ele>-61.869999</ele>
<time>2012-03-09T12:18:13.000Z</time>
</trkpt>
<trkpt lat="30.9951385" lon="35.3067796">
<ele>-61.869999</ele>
<time>2012-03-09T12:18:25.000Z</time>
</trkpt>
<trkpt lat="30.9949367" lon="35.3070990">
<ele>-61.869999</ele>
<time>2012-03-09T12:18:38.000Z</time>
</trkpt>
<trkpt lat="30.9949516" lon="35.3072676">
<ele>-63.790001</ele>
<time>2012-03-09T12:18:49.000Z</time>
</trkpt>
<trkpt lat="30.9949552" lon="35.3072761">
<ele>-63.790001</ele>
<time>2012-03-09T12:19:04.000Z</time>
</trkpt>
<trkpt lat="30.9949584" lon="35.3072854">
<ele>-64.269997</ele>
<time>2012-03-09T12:19:41.000Z</time>
</trkpt>
<trkpt lat="30.9949812" lon="35.3072951">
<ele>-64.750000</ele>
<time>2012-03-09T12:19:52.000Z</time>
</trkpt>
<trkpt lat="30.9949829" lon="35.3073049">
<ele>-64.750000</ele>
<time>2012-03-09T12:19:53.000Z</time>
</trkpt>
<trkpt lat="30.9949885" lon="35.3073580">
<ele>-64.750000</ele>
<time>2012-03-09T12:19:59.000Z</time>
</trkpt>
<trkpt lat="30.9949828" lon="35.3073719">
<ele>-64.750000</ele>
<time>2012-03-09T12:20:00.000Z</time>
</trkpt>
<trkpt lat="30.9949778" lon="35.3073835">
<ele>-65.709999</ele>
<time>2012-03-09T12:20:01.000Z</time>
</trkpt>
<trkpt lat="30.9949452" lon="35.3074445">
<ele>-66.669998</ele>
<time>2012-03-09T12:20:10.000Z</time>
</trkpt>
<trkpt lat="30.9949496" lon="35.3074506">
<ele>-67.150002</ele>
<time>2012-03-09T12:20:24.000Z</time>
</trkpt>
<trkpt lat="30.9950072" lon="35.3076257">
<ele>-70.519997</ele>
<time>2012-03-09T12:20:35.000Z</time>
</trkpt>
<trkpt lat="30.9949987" lon="35.3076929">
<ele>-72.440002</ele>
<time>2012-03-09T12:20:38.000Z</time>
</trkpt>
<trkpt lat="30.9949693" lon="35.3077774">
<ele>-73.400002</ele>
<time>2012-03-09T12:20:42.000Z</time>
</trkpt>
<trkpt lat="30.9949875" lon="35.3079821">
<ele>-72.440002</ele>
<time>2012-03-09T12:20:52.000Z</time>
</trkpt>
<trkpt lat="30.9950007" lon="35.3080361">
<ele>-74.360001</ele>
<time>2012-03-09T12:20:55.000Z</time>
</trkpt>
<trkpt lat="30.9950468" lon="35.3081067">
<ele>-74.849998</ele>
<time>2012-03-09T12:21:00.000Z</time>
</trkpt>
<trkpt lat="30.9950657" lon="35.3081562">
<ele>-75.809998</ele>
<time>2012-03-09T12:21:03.000Z</time>
</trkpt>
<trkpt lat="30.9950808" lon="35.3081857">
<ele>-77.730003</ele>
<time>2012-03-09T12:21:11.000Z</time>
</trkpt>
<trkpt lat="30.9950968" lon="35.3082281">
<ele>-78.209999</ele>
<time>2012-03-09T12:21:20.000Z</time>
</trkpt>
<trkpt lat="30.9951196" lon="35.3083256">
<ele>-78.209999</ele>
<time>2012-03-09T12:21:31.000Z</time>
</trkpt>
<trkpt lat="30.9951194" lon="35.3083356">
<ele>-78.209999</ele>
<time>2012-03-09T12:21:32.000Z</time>
</trkpt>
<trkpt lat="30.9951293" lon="35.3083739">
<ele>-79.650002</ele>
<time>2012-03-09T12:21:38.000Z</time>
</trkpt>
<trkpt lat="30.9951191" lon="35.3084726">
<ele>-82.059998</ele>
<time>2012-03-09T12:21:46.000Z</time>
</trkpt>
<trkpt lat="30.9951323" lon="35.3085228">
<ele>-81.570000</ele>
<time>2012-03-09T12:21:53.000Z</time>
</trkpt>
<trkpt lat="30.9951579" lon="35.3085944">
<ele>-83.020004</ele>
<time>2012-03-09T12:22:05.000Z</time>
</trkpt>
<trkpt lat="30.9951548" lon="35.3086100">
<ele>-83.979996</ele>
<time>2012-03-09T12:22:16.000Z</time>
</trkpt>
<trkpt lat="30.9951543" lon="35.3086089">
<ele>-83.979996</ele>
<time>2012-03-09T12:22:47.000Z</time>
</trkpt>
<trkpt lat="30.9951486" lon="35.3086536">
<ele>-85.900002</ele>
<time>2012-03-09T12:23:14.000Z</time>
</trkpt>
<trkpt lat="30.9951461" lon="35.3086604">
<ele>-86.380005</ele>
<time>2012-03-09T12:23:15.000Z</time>
</trkpt>
<trkpt lat="30.9951397" lon="35.3086872">
<ele>-86.860001</ele>
<time>2012-03-09T12:23:23.000Z</time>
</trkpt>
<trkpt lat="30.9951392" lon="35.3086938">
<ele>-88.299995</ele>
<time>2012-03-09T12:23:26.000Z</time>
</trkpt>
<trkpt lat="30.9951333" lon="35.3087139">
<ele>-88.780006</ele>
<time>2012-03-09T12:23:28.000Z</time>
</trkpt>
<trkpt lat="30.9951368" lon="35.3087617">
<ele>-88.780006</ele>
<time>2012-03-09T12:23:33.000Z</time>
</trkpt>
<trkpt lat="30.9951442" lon="35.3088189">
<ele>-91.670006</ele>
<time>2012-03-09T12:23:40.000Z</time>
</trkpt>
<trkpt lat="30.9951247" lon="35.3088867">
<ele>-93.589996</ele>
<time>2012-03-09T12:23:52.000Z</time>
</trkpt>
<trkpt lat="30.9951086" lon="35.3089892">
<ele>-95.510002</ele>
<time>2012-03-09T12:24:05.000Z</time>
</trkpt>
<trkpt lat="30.9950559" lon="35.3089823">
<ele>-96.959999</ele>
<time>2012-03-09T12:24:15.000Z</time>
</trkpt>
<trkpt lat="30.9950526" lon="35.3090482">
<ele>-98.400002</ele>
<time>2012-03-09T12:24:25.000Z</time>
</trkpt>
<trkpt lat="30.9950624" lon="35.3091260">
<ele>-98.880005</ele>
<time>2012-03-09T12:24:29.000Z</time>
</trkpt>
<trkpt lat="30.9950839" lon="35.3091702">
<ele>-100.799995</ele>
<time>2012-03-09T12:24:33.000Z</time>
</trkpt>
<trkpt lat="30.9950873" lon="35.3091847">
<ele>-100.320000</ele>
<time>2012-03-09T12:24:34.000Z</time>
</trkpt>
<trkpt lat="30.9951142" lon="35.3093042">
<ele>-102.720001</ele>
<time>2012-03-09T12:24:41.000Z</time>
</trkpt>
<trkpt lat="30.9951023" lon="35.3093674">
<ele>-104.170006</ele>
<time>2012-03-09T12:24:45.000Z</time>
</trkpt>
<trkpt lat="30.9950299" lon="35.3094457">
<ele>-107.049995</ele>
<time>2012-03-09T12:24:51.000Z</time>
</trkpt>
<trkpt lat="30.9950036" lon="35.3094974">
<ele>-107.530006</ele>
<time>2012-03-09T12:24:56.000Z</time>
</trkpt>
<trkpt lat="30.9950282" lon="35.3095555">
<ele>-109.449997</ele>
<time>2012-03-09T12:25:08.000Z</time>
</trkpt>
<trkpt lat="30.9950221" lon="35.3095559">
<ele>-110.409996</ele>
<time>2012-03-09T12:25:10.000Z</time>
</trkpt>
<trkpt lat="30.9950214" lon="35.3095591">
<ele>-110.409996</ele>
<time>2012-03-09T12:25:13.000Z</time>
</trkpt>
<trkpt lat="30.9950500" lon="35.3096745">
<ele>-110.890007</ele>
<time>2012-03-09T12:25:20.000Z</time>
</trkpt>
<trkpt lat="30.9950483" lon="35.3098305">
<ele>-114.260002</ele>
<time>2012-03-09T12:25:31.000Z</time>
</trkpt>
<trkpt lat="30.9950479" lon="35.3098418">
<ele>-114.739998</ele>
<time>2012-03-09T12:25:32.000Z</time>
</trkpt>
<trkpt lat="30.9950484" lon="35.3099451">
<ele>-116.659996</ele>
<time>2012-03-09T12:25:44.000Z</time>
</trkpt>
<trkpt lat="30.9950175" lon="35.3099717">
<ele>-118.099998</ele>
<time>2012-03-09T12:25:56.000Z</time>
</trkpt>
<trkpt lat="30.9950256" lon="35.3099508">
<ele>-118.099998</ele>
<time>2012-03-09T12:26:24.000Z</time>
</trkpt>
<trkpt lat="30.9950104" lon="35.3099449">
<ele>-120.030006</ele>
<time>2012-03-09T12:26:46.000Z</time>
</trkpt>
<trkpt lat="30.9949050" lon="35.3099179">
<ele>-121.470001</ele>
<time>2012-03-09T12:27:00.000Z</time>
</trkpt>
<trkpt lat="30.9948977" lon="35.3099180">
<ele>-120.989998</ele>
<time>2012-03-09T12:27:01.000Z</time>
</trkpt>
<trkpt lat="30.9947820" lon="35.3099146">
<ele>-123.870003</ele>
<time>2012-03-09T12:27:14.000Z</time>
</trkpt>
<trkpt lat="30.9947366" lon="35.3098873">
<ele>-125.309998</ele>
<time>2012-03-09T12:27:24.000Z</time>
</trkpt>
<trkpt lat="30.9947151" lon="35.3098830">
<ele>-126.280006</ele>
<time>2012-03-09T12:27:29.000Z</time>
</trkpt>
<trkpt lat="30.9946875" lon="35.3098732">
<ele>-127.720001</ele>
<time>2012-03-09T12:27:40.000Z</time>
</trkpt>
<trkpt lat="30.9946861" lon="35.3098713">
<ele>-127.720001</ele>
<time>2012-03-09T12:27:42.000Z</time>
</trkpt>
<trkpt lat="30.9946694" lon="35.3098482">
<ele>-128.679993</ele>
<time>2012-03-09T12:27:46.000Z</time>
</trkpt>
<trkpt lat="30.9946574" lon="35.3097786">
<ele>-130.119995</ele>
<time>2012-03-09T12:27:58.000Z</time>
</trkpt>
<trkpt lat="30.9946268" lon="35.3097568">
<ele>-131.080002</ele>
<time>2012-03-09T12:28:06.000Z</time>
</trkpt>
<trkpt lat="30.9945726" lon="35.3097391">
<ele>-132.039993</ele>
<time>2012-03-09T12:28:18.000Z</time>
</trkpt>
<trkpt lat="30.9945245" lon="35.3097516">
<ele>-133.010010</ele>
<time>2012-03-09T12:28:30.000Z</time>
</trkpt>
<trkpt lat="30.9944869" lon="35.3097718">
<ele>-134.449997</ele>
<time>2012-03-09T12:28:42.000Z</time>
</trkpt>
<trkpt lat="30.9944735" lon="35.3097785">
<ele>-135.410004</ele>
<time>2012-03-09T12:28:48.000Z</time>
</trkpt>
<trkpt lat="30.9944430" lon="35.3098534">
<ele>-136.850006</ele>
<time>2012-03-09T12:28:59.000Z</time>
</trkpt>
<trkpt lat="30.9944176" lon="35.3098920">
<ele>-138.289993</ele>
<time>2012-03-09T12:29:12.000Z</time>
</trkpt>
<trkpt lat="30.9943684" lon="35.3099749">
<ele>-140.220001</ele>
<time>2012-03-09T12:29:25.000Z</time>
</trkpt>
<trkpt lat="30.9943544" lon="35.3100770">
<ele>-141.660004</ele>
<time>2012-03-09T12:29:39.000Z</time>
</trkpt>
<trkpt lat="30.9943444" lon="35.3101460">
<ele>-143.100006</ele>
<time>2012-03-09T12:29:51.000Z</time>
</trkpt>
<trkpt lat="30.9943319" lon="35.3101739">
<ele>-143.580002</ele>
<time>2012-03-09T12:29:54.000Z</time>
</trkpt>
<trkpt lat="30.9943188" lon="35.3101917">
<ele>-144.059998</ele>
<time>2012-03-09T12:29:56.000Z</time>
</trkpt>
<trkpt lat="30.9942996" lon="35.3102246">
<ele>-144.539993</ele>
<time>2012-03-09T12:29:59.000Z</time>
</trkpt>
<trkpt lat="30.9942100" lon="35.3102647">
<ele>-147.910004</ele>
<time>2012-03-09T12:30:07.000Z</time>
</trkpt>
<trkpt lat="30.9942076" lon="35.3102719">
<ele>-147.910004</ele>
<time>2012-03-09T12:30:10.000Z</time>
</trkpt>
<trkpt lat="30.9941118" lon="35.3103681">
<ele>-150.309998</ele>
<time>2012-03-09T12:30:19.000Z</time>
</trkpt>
<trkpt lat="30.9940550" lon="35.3103709">
<ele>-152.710007</ele>
<time>2012-03-09T12:30:30.000Z</time>
</trkpt>
<trkpt lat="30.9939820" lon="35.3103552">
<ele>-156.080002</ele>
<time>2012-03-09T12:30:41.000Z</time>
</trkpt>
<trkpt lat="30.9939561" lon="35.3103548">
<ele>-157.520004</ele>
<time>2012-03-09T12:30:44.000Z</time>
</trkpt>
<trkpt lat="30.9938705" lon="35.3103446">
<ele>-160.880005</ele>
<time>2012-03-09T12:30:53.000Z</time>
</trkpt>
<trkpt lat="30.9938645" lon="35.3103433">
<ele>-161.359985</ele>
<time>2012-03-09T12:30:54.000Z</time>
</trkpt>
<trkpt lat="30.9938588" lon="35.3103382">
<ele>-160.880005</ele>
<time>2012-03-09T12:30:56.000Z</time>
</trkpt>
<trkpt lat="30.9936472" lon="35.3105121">
<ele>-163.289993</ele>
<time>2012-03-09T12:31:05.000Z</time>
</trkpt>
<trkpt lat="30.9934125" lon="35.3108516">
<ele>-164.729996</ele>
<time>2012-03-09T12:31:17.000Z</time>
</trkpt>
<trkpt lat="30.9930487" lon="35.3109064">
<ele>-168.570007</ele>
<time>2012-03-09T12:31:27.000Z</time>
</trkpt>
<trkpt lat="30.9927652" lon="35.3109058">
<ele>-171.940002</ele>
<time>2012-03-09T12:31:32.000Z</time>
</trkpt>
<trkpt lat="30.9926576" lon="35.3109099">
<ele>-172.899994</ele>
<time>2012-03-09T12:31:34.000Z</time>
</trkpt>
<trkpt lat="30.9926083" lon="35.3109203">
<ele>-174.339996</ele>
<time>2012-03-09T12:31:35.000Z</time>
</trkpt>
<trkpt lat="30.9923342" lon="35.3109943">
<ele>-176.750000</ele>
<time>2012-03-09T12:31:41.000Z</time>
</trkpt>
<trkpt lat="30.9920159" lon="35.3110771">
<ele>-180.109985</ele>
<time>2012-03-09T12:31:47.000Z</time>
</trkpt>
<trkpt lat="30.9919494" lon="35.3110762">
<ele>-181.070007</ele>
<time>2012-03-09T12:31:48.000Z</time>
</trkpt>
<trkpt lat="30.9916722" lon="35.3110443">
<ele>-183.960007</ele>
<time>2012-03-09T12:31:52.000Z</time>
</trkpt>
<trkpt lat="30.9915320" lon="35.3110212">
<ele>-184.919998</ele>
<time>2012-03-09T12:31:54.000Z</time>
</trkpt>
<trkpt lat="30.9913038" lon="35.3109697">
<ele>-188.279999</ele>
<time>2012-03-09T12:31:58.000Z</time>
</trkpt>
<trkpt lat="30.9912594" lon="35.3109671">
<ele>-188.759995</ele>
<time>2012-03-09T12:31:59.000Z</time>
</trkpt>
<trkpt lat="30.9910925" lon="35.3109782">
<ele>-192.130005</ele>
<time>2012-03-09T12:32:03.000Z</time>
</trkpt>
<trkpt lat="30.9909456" lon="35.3109948">
<ele>-195.490005</ele>
<time>2012-03-09T12:32:06.000Z</time>
</trkpt>
<trkpt lat="30.9907174" lon="35.3110119">
<ele>-198.859985</ele>
<time>2012-03-09T12:32:11.000Z</time>
</trkpt>
<trkpt lat="30.9906735" lon="35.3110123">
<ele>-199.339996</ele>
<time>2012-03-09T12:32:12.000Z</time>
</trkpt>
<trkpt lat="30.9906310" lon="35.3110100">
<ele>-200.300003</ele>
<time>2012-03-09T12:32:13.000Z</time>
</trkpt>
<trkpt lat="30.9904454" lon="35.3109832">
<ele>-203.660004</ele>
<time>2012-03-09T12:32:17.000Z</time>
</trkpt>
<trkpt lat="30.9902198" lon="35.3109131">
<ele>-206.550003</ele>
<time>2012-03-09T12:32:22.000Z</time>
</trkpt>
<trkpt lat="30.9900280" lon="35.3108709">
<ele>-208.949997</ele>
<time>2012-03-09T12:32:26.000Z</time>
</trkpt>
<trkpt lat="30.9899044" lon="35.3108413">
<ele>-210.869995</ele>
<time>2012-03-09T12:32:29.000Z</time>
</trkpt>
<trkpt lat="30.9898716" lon="35.3108184">
<ele>-211.829987</ele>
<time>2012-03-09T12:32:30.000Z</time>
</trkpt>
<trkpt lat="30.9898449" lon="35.3107814">
<ele>-211.829987</ele>
<time>2012-03-09T12:32:31.000Z</time>
</trkpt>
<trkpt lat="30.9898277" lon="35.3107394">
<ele>-211.350006</ele>
<time>2012-03-09T12:32:32.000Z</time>
</trkpt>
<trkpt lat="30.9898207" lon="35.3106976">
<ele>-211.350006</ele>
<time>2012-03-09T12:32:33.000Z</time>
</trkpt>
<trkpt lat="30.9898175" lon="35.3106639">
<ele>-211.350006</ele>
<time>2012-03-09T12:32:34.000Z</time>
</trkpt>
<trkpt lat="30.9898150" lon="35.3106291">
<ele>-211.829987</ele>
<time>2012-03-09T12:32:35.000Z</time>
</trkpt>
<trkpt lat="30.9896940" lon="35.3102413">
<ele>-208.949997</ele>
<time>2012-03-09T12:32:47.000Z</time>
</trkpt>
<trkpt lat="30.9892916" lon="35.3101956">
<ele>-209.910004</ele>
<time>2012-03-09T12:32:59.000Z</time>
</trkpt>
<trkpt lat="30.9887739" lon="35.3100376">
<ele>-212.790009</ele>
<time>2012-03-09T12:33:08.000Z</time>
</trkpt>
<trkpt lat="30.9884412" lon="35.3097681">
<ele>-216.160004</ele>
<time>2012-03-09T12:33:13.000Z</time>
</trkpt>
<trkpt lat="30.9881499" lon="35.3094861">
<ele>-219.519989</ele>
<time>2012-03-09T12:33:17.000Z</time>
</trkpt>
<trkpt lat="30.9878299" lon="35.3091616">
<ele>-222.889999</ele>
<time>2012-03-09T12:33:21.000Z</time>
</trkpt>
<trkpt lat="30.9877489" lon="35.3090760">
<ele>-222.889999</ele>
<time>2012-03-09T12:33:22.000Z</time>
</trkpt>
<trkpt lat="30.9868175" lon="35.3084266">
<ele>-224.809998</ele>
<time>2012-03-09T12:33:33.000Z</time>
</trkpt>
<trkpt lat="30.9854970" lon="35.3080172">
<ele>-226.729996</ele>
<time>2012-03-09T12:33:49.000Z</time>
</trkpt>
<trkpt lat="30.9852178" lon="35.3079058">
<ele>-227.210007</ele>
<time>2012-03-09T12:33:53.000Z</time>
</trkpt>
<trkpt lat="30.9851733" lon="35.3078629">
<ele>-227.699997</ele>
<time>2012-03-09T12:33:54.000Z</time>
</trkpt>
<trkpt lat="30.9851446" lon="35.3078150">
<ele>-227.699997</ele>
<time>2012-03-09T12:33:55.000Z</time>
</trkpt>
<trkpt lat="30.9852044" lon="35.3075542">
<ele>-226.729996</ele>
<time>2012-03-09T12:34:02.000Z</time>
</trkpt>
<trkpt lat="30.9852462" lon="35.3075154">
<ele>-226.250000</ele>
<time>2012-03-09T12:34:04.000Z</time>
</trkpt>
<trkpt lat="30.9853675" lon="35.3073473">
<ele>-226.250000</ele>
<time>2012-03-09T12:34:11.000Z</time>
</trkpt>
<trkpt lat="30.9854110" lon="35.3073294">
<ele>-226.729996</ele>
<time>2012-03-09T12:34:22.000Z</time>
</trkpt>
<trkpt lat="30.9854191" lon="35.3073264">
<ele>-226.729996</ele>
<time>2012-03-09T12:34:45.000Z</time>
</trkpt>
<trkpt lat="30.9854207" lon="35.3073180">
<ele>-227.210007</ele>
<time>2012-03-09T12:35:09.000Z</time>
</trkpt>
<trkpt lat="30.9854262" lon="35.3073206">
<ele>-227.210007</ele>
<time>2012-03-09T12:35:31.000Z</time>
</trkpt>
<trkpt lat="30.9854364" lon="35.3072954">
<ele>-227.210007</ele>
<time>2012-03-09T12:35:48.000Z</time>
</trkpt>
<trkpt lat="30.9854721" lon="35.3072831">
<ele>-226.250000</ele>
<time>2012-03-09T12:36:14.000Z</time>
</trkpt>
<trkpt lat="30.9855385" lon="35.3072840">
<ele>-226.729996</ele>
<time>2012-03-09T12:36:27.000Z</time>
</trkpt>
<trkpt lat="30.9855434" lon="35.3072909">
<ele>-226.729996</ele>
<time>2012-03-09T12:37:09.000Z</time>
</trkpt>
<trkpt lat="30.9855358" lon="35.3073006">
<ele>-226.729996</ele>
<time>2012-03-09T12:37:45.000Z</time>
</trkpt>
<trkpt lat="30.9855383" lon="35.3073020">
<ele>-226.250000</ele>
<time>2012-03-09T12:38:25.000Z</time>
</trkpt>
<trkpt lat="30.9855415" lon="35.3072963">
<ele>-226.729996</ele>
<time>2012-03-09T12:39:05.000Z</time>
</trkpt>
<trkpt lat="30.9855431" lon="35.3072947">
<ele>-227.210007</ele>
<time>2012-03-09T12:39:41.000Z</time>
</trkpt>
<trkpt lat="30.9855413" lon="35.3072885">
<ele>-227.210007</ele>
<time>2012-03-09T12:39:56.000Z</time>
</trkpt>
<trkpt lat="30.9855426" lon="35.3072886">
<ele>-227.699997</ele>
<time>2012-03-09T12:40:26.000Z</time>
</trkpt>
<trkpt lat="30.9855377" lon="35.3072777">
<ele>-227.699997</ele>
<time>2012-03-09T12:40:28.000Z</time>
</trkpt>
</trkseg>
</trk>
</gpx>
